[[{"header":{"parameterUnit":"m.s-1","parameterCategory":1,"la1":31.0,"la2":29.5877,"lo1":-88.7671,"lo2":-86.6584,"dy":0.0162,"dx":0.0185,"nx":115,"ny":88,"refTime":"2026-03-16T12:00:00:Z","depth":0,"parameterNumber":2,"parameterNumberName":"U-component_of_WINDS"},"data":[0.0,0.0,0.0,0.0,0.0,0.0,0.0,0.0,0.0,0.0,0.0,0.0,0.0,0.0,0.0,0.0,0.0,0.0,0.0,0.0,0.0,0.0,0.0,0.0,0.0,0.0,0.0,0.0,0.0,0.0,0.0,0.0,0.0,0.0,0.0,0.0,0.0,0.0,0.0,0.0,0.0,0.0,0.0,0.0,0.0,0.0,0.0,0.0,0.0,0.0,0.0,0.0,0.0,0.0,0.0,0.0,0.0,0.0,0.0,0.0,0.0,0.0,0.0,0.0,0.0,0.0,0.0,0.0,0.0,0.0,0.0,0.0,0.0,0.0,0.0,0.0,0.0,0.0,0.0,0.0,0.0,0.0,0.0,0.0,0.0,0.0,0.0,0.0,0.0,0.0,0.0,0.0,0.0,0.0,0.0,0.0,0.0,0.0,0.0,0.0,0.0,0.0,0.0,0.0,0.0,0.0,0.0,0.0,0.0,0.0,0.0,0.0,0.0,0.0,0.0,0.0,0.0,0.0,0.0,0.0,0.0,0.0,0.0,0.0,0.0,0.0,0.0,0.0,0.0,0.0,0.0,0.0,0.0,0.0,0.0,0.0,0.0,0.0,0.0,0.0,0.0,0.0,0.0,0.0,0.0,0.0,0.0,0.0,0.0,0.0,0.0,0.0,0.0,0.0,0.0,0.0,0.0,0.0,0.0,0.0,0.0,0.0,0.0,0.0,0.0,0.0,0.0,0.0,0.0,0.0,0.0,0.0,0.0,0.0,0.0,0.0,0.0,0.0,0.0,0.0,0.0,0.0,0.0,0.0,0.0,0.0,0.0,0.0,0.0,0.0,0.0,0.0,0.0,0.0,0.0,0.0,0.0,0.0,0.0,0.0,0.0,0.0,0.0,0.0,0.0,0.0,0.0,0.0,0.0,0.0,0.0,0.0,0.0,0.0,0.0,0.0,0.0,0.0,0.0,0.0,0.0,0.0,0.0,0.0,0.0,0.0,0.0,0.0,0.0,0.0,0.0,0.0,0.0,0.0,0.0,0.0,0.0,0.0,0.0,0.0,0.0,0.0,0.0,0.0,0.0,0.0,0.0,0.0,0.0,0.0,0.0,0.0,0.0,0.0,0.0,0.0,0.0,0.0,0.0,0.0,0.0,0.0,0.0,0.0,0.0,0.0,0.0,0.0,0.0,0.0,0.0,0.0,0.0,0.0,0.0,0.0,0.0,0.0,0.0,0.0,0.0,0.0,0.0,0.0,0.0,0.0,0.0,0.0,0.0,0.0,0.0,0.0,0.0,0.0,0.0,0.0,0.0,0.0,0.0,0.0,0.0,0.0,0.0,0.0,0.0,0.0,0.0,0.0,0.0,0.0,0.0,0.0,0.0,0.0,0.0,0.0,0.0,0.0,0.0,0.0,0.0,0.0,0.0,0.0,0.0,0.0,0.0,0.0,0.0,0.0,0.0,0.0,0.0,0.0,0.0,0.0,0.0,0.0,0.0,0.0,0.0,0.0,0.0,0.0,0.0,0.0,0.0,0.0,0.0,0.0,0.0,0.0,0.0,0.0,0.0,0.0,0.0,0.0,0.0,0.0,0.0,0.0,0.0,0.0,0.0,0.0,0.0,0.0,0.0,0.0,0.0,0.0,0.0,0.0,0.0,0.0,0.0,0.0,0.0,0.0,0.0,0.0,0.0,0.0,0.0,0.0,0.0,0.0,0.0,0.0,0.0,0.0,0.0,0.0,0.0,0.0,0.0,0.0,0.0,0.0,0.0,0.0,0.0,0.0,0.0,0.0,0.0,0.0,0.0,0.0,0.0,0.0,0.0,0.0,0.0,0.0,0.0,0.0,0.0,0.0,0.0,0.0,0.0,0.0,0.0,0.0,0.0,0.0,0.0,0.0,0.0,0.0,0.0,0.0,0.0,0.0,0.0,0.0,0.0,0.0,0.0,0.0,0.0,0.0,0.0,0.0,0.0,0.0,0.0,0.0,0.0,0.0,0.0,0.0,0.0,0.0,0.0,0.0,0.0,0.0,0.0,0.0,0.0,0.0,0.0,0.0,0.0,0.0,0.0,0.0,0.0,0.0,0.0,0.0,0.0,0.0,0.0,0.0,0.0,0.0,0.0,0.0,0.0,0.0,0.0,0.0,0.0,0.0,0.0,0.0,0.0,0.0,0.0,0.0,0.0,0.0,0.0,0.0,0.0,0.0,0.0,0.0,0.0,0.0,0.0,0.0,0.0,0.0,0.0,0.0,0.0,0.0,0.0,0.0,0.0,0.0,0.0,0.0,0.0,0.0,0.0,0.0,0.0,0.0,0.0,0.0,0.0,0.0,0.0,0.0,0.0,0.0,0.0,0.0,0.0,0.0,0.0,0.0,0.0,0.0,0.0,0.0,0.0,0.0,0.0,0.0,0.0,0.0,0.0,0.0,0.0,0.0,0.0,0.0,0.0,0.0,0.0,0.0,0.0,0.0,0.0,0.0,0.0,0.0,0.0,0.0,0.0,0.0,0.0,0.0,0.0,0.0,0.0,0.0,0.0,0.0,0.0,0.0,0.0,0.0,0.0,0.0,0.0,0.0,0.0,0.0,0.0,0.0,0.0,0.0,0.0,0.0,0.0,0.0,0.0,0.0,0.0,0.0,0.0,0.0,0.0,0.0,0.0,0.0,0.0,0.0,0.0,0.0,0.0,0.0,0.0,0.0,0.0,0.0,0.0,0.0,0.0,0.0,0.0,0.0,0.0,0.0,0.0,0.0,0.0,0.0,0.0,0.0,0.0,0.0,0.0,0.0,0.0,0.0,0.0,0.0,0.0,0.0,0.0,0.0,0.0,0.0,0.0,0.0,0.0,0.0,0.0,0.0,0.0,0.0,0.0,0.0,0.0,0.0,0.0,0.0,0.0,0.0,0.0,0.0,0.0,0.0,0.0,0.0,0.0,0.0,0.0,0.0,0.0,0.0,0.0,0.0,0.0,0.0,0.0,0.0,0.0,0.0,0.0,0.0,0.0,0.0,0.0,0.0,0.0,0.0,0.0,0.0,0.0,0.0,0.0,0.0,0.0,0.0,0.0,0.0,0.0,0.0,0.0,0.0,0.0,0.0,0.0,0.0,0.0,0.0,0.0,0.0,0.0,0.0,0.0,0.0,0.0,0.0,0.0,0.0,0.0,0.0,0.0,0.0,0.0,0.0,0.0,0.0,0.0,0.0,0.0,0.0,0.0,0.0,0.0,0.0,0.0,0.0,0.0,0.0,0.0,0.0,0.0,0.0,0.0,0.0,0.0,0.0,0.0,0.0,0.0,0.0,0.0,0.0,0.0,0.0,0.0,0.0,0.0,0.0,0.0,0.0,0.0,0.0,0.0,0.0,0.0,0.0,0.0,0.0,0.0,0.0,0.0,0.0,0.0,0.0,0.0,0.0,0.0,0.0,0.0,0.0,0.0,0.0,0.0,0.0,0.0,0.0,0.0,0.0,0.0,0.0,0.0,0.0,0.0,0.0,0.0,0.0,0.0,0.0,0.0,0.0,0.0,0.0,0.0,0.0,0.0,0.0,0.0,0.0,0.0,0.0,0.0,0.0,0.0,0.0,0.0,0.0,0.0,0.0,0.0,0.0,0.0,0.0,0.0,0.0,0.0,0.0,0.0,0.0,0.0,0.0,0.0,0.0,0.0,0.0,0.0,0.0,0.0,0.0,0.0,0.0,0.0,0.0,0.0,0.0,0.0,0.0,0.0,0.0,0.0,0.0,0.0,0.0,0.0,0.0,0.0,0.0,0.0,0.0,0.0,0.0,0.0,0.0,0.0,0.0,0.0,0.0,0.0,0.0,0.0,0.0,0.0,0.0,0.0,0.0,0.0,0.0,0.0,0.0,0.0,0.0,0.0,0.0,0.0,0.0,0.0,0.0,0.0,0.0,0.0,0.0,0.0,0.0,0.0,0.0,0.0,0.0,0.0,0.0,0.0,0.0,0.0,0.0,0.0,0.0,0.0,0.0,0.0,0.0,0.0,0.0,0.0,0.0,0.0,0.0,0.0,0.0,0.0,0.0,0.0,0.0,0.0,0.0,0.0,0.0,0.0,0.0,0.0,0.0,0.0,0.0,0.0,0.0,0.0,0.0,0.0,0.0,0.0,0.0,0.0,0.0,0.0,0.0,0.0,0.0,0.0,0.0,0.0,0.0,0.0,0.0,0.0,0.0,0.0,0.0,0.0,0.0,0.0,0.0,0.0,0.0,0.0,0.0,0.0,0.0,0.0,0.0,0.0,0.0,4.1945,0.0,0.0,0.0,0.0,0.0,0.0,0.0,0.0,0.0,0.0,0.0,0.0,0.0,0.0,0.0,0.0,0.0,0.0,0.0,0.0,0.0,0.0,0.0,0.0,0.0,0.0,0.0,0.0,0.0,0.0,0.0,0.0,0.0,0.0,0.0,0.0,0.0,0.0,0.0,0.0,0.0,0.0,0.0,0.0,0.0,0.0,0.0,0.0,0.0,0.0,0.0,0.0,0.0,0.0,0.0,0.0,0.0,0.0,0.0,0.0,0.0,0.0,0.0,0.0,0.0,0.0,0.0,0.0,0.0,0.0,0.0,0.0,0.0,0.0,0.0,0.0,0.0,0.0,0.0,0.0,0.0,0.0,0.0,0.0,0.0,0.0,0.0,0.0,0.0,0.0,0.0,0.0,0.0,0.0,0.0,0.0,0.0,0.0,0.0,0.0,0.0,0.0,0.0,0.0,0.0,0.0,0.0,0.0,0.0,0.0,4.3642,4.4513,4.4008,4.3184,4.2081,0.0,0.0,0.0,0.0,0.0,0.0,0.0,0.0,0.0,0.0,0.0,0.0,0.0,0.0,0.0,0.0,0.0,0.0,0.0,0.0,0.0,0.0,0.0,0.0,0.0,0.0,0.0,0.0,0.0,0.0,0.0,0.0,0.0,0.0,0.0,0.0,0.0,0.0,0.0,0.0,0.0,0.0,0.0,0.0,0.0,0.0,0.0,0.0,0.0,0.0,0.0,0.0,0.0,0.0,0.0,0.0,0.0,0.0,0.0,0.0,0.0,0.0,0.0,0.0,0.0,0.0,0.0,0.0,0.0,0.0,0.0,0.0,0.0,0.0,0.0,0.0,0.0,0.0,0.0,0.0,0.0,0.0,0.0,0.0,0.0,0.0,0.0,0.0,0.0,0.0,0.0,0.0,0.0,0.0,0.0,0.0,0.0,0.0,0.0,0.0,0.0,0.0,0.0,0.0,0.0,0.0,0.0,0.0,0.0,0.0,0.0,0.0,4.4551,4.3624,4.1911,0.0,0.0,0.0,0.0,0.0,0.0,0.0,0.0,0.0,0.0,0.0,0.0,0.0,0.0,0.0,0.0,0.0,0.0,0.0,0.0,0.0,0.0,0.0,0.0,0.0,0.0,0.0,0.0,0.0,0.0,0.0,0.0,0.0,0.0,0.0,0.0,0.0,0.0,0.0,0.0,0.0,0.0,0.0,0.0,0.0,0.0,0.0,0.0,0.0,0.0,0.0,0.0,0.0,0.0,0.0,0.0,0.0,0.0,0.0,0.0,0.0,0.0,0.0,0.0,0.0,0.0,0.0,0.0,0.0,0.0,0.0,0.0,0.0,0.0,0.0,0.0,0.0,0.0,0.0,0.0,0.0,0.0,0.0,0.0,0.0,0.0,0.0,0.0,0.0,0.0,0.0,0.0,0.0,0.0,0.0,0.0,0.0,0.0,0.0,0.0,0.0,0.0,0.0,0.0,0.0,0.0,0.0,0.0,0.0,0.0,4.3804,4.4751,4.4659,0.0,4.1579,0.0,0.0,0.0,0.0,0.0,0.0,0.0,0.0,0.0,0.0,0.0,0.0,0.0,0.0,0.0,0.0,0.0,0.0,0.0,0.0,0.0,0.0,0.0,0.0,0.0,0.0,0.0,0.0,0.0,0.0,0.0,0.0,0.0,0.0,0.0,0.0,0.0,0.0,0.0,0.0,0.0,0.0,0.0,0.0,0.0,0.0,0.0,0.0,0.0,0.0,0.0,0.0,0.0,0.0,0.0,0.0,0.0,0.0,0.0,0.0,0.0,0.0,0.0,0.0,0.0,0.0,0.0,0.0,0.0,0.0,0.0,0.0,0.0,0.0,0.0,0.0,0.0,0.0,0.0,0.0,0.0,0.0,0.0,0.0,0.0,0.0,0.0,0.0,0.0,0.0,0.0,0.0,0.0,0.0,0.0,0.0,0.0,0.0,0.0,0.0,0.0,0.0,0.0,0.0,0.0,0.0,0.0,0.0,0.0,0.0,0.0,4.4777,4.3653,4.2575,0.0,0.0,0.0,0.0,0.0,0.0,0.0,0.0,0.0,0.0,0.0,0.0,0.0,0.0,0.0,0.0,0.0,0.0,0.0,0.0,0.0,0.0,0.0,0.0,0.0,0.0,0.0,0.0,0.0,0.0,0.0,0.0,0.0,0.0,0.0,0.0,0.0,0.0,0.0,0.0,0.0,0.0,0.0,0.0,0.0,0.0,0.0,0.0,0.0,0.0,0.0,0.0,0.0,0.0,0.0,0.0,0.0,0.0,0.0,0.0,0.0,0.0,0.0,0.0,0.0,0.0,0.0,0.0,0.0,0.0,0.0,0.0,0.0,0.0,0.0,0.0,0.0,0.0,0.0,0.0,0.0,0.0,0.0,0.0,0.0,0.0,0.0,0.0,0.0,0.0,0.0,0.0,0.0,0.0,0.0,0.0,0.0,0.0,0.0,0.0,0.0,0.0,0.0,0.0,0.0,0.0,0.0,0.0,0.0,0.0,4.3837,0.0,4.4399,4.3262,4.2248,4.1437,0.0,0.0,0.0,0.0,0.0,0.0,0.0,0.0,0.0,0.0,0.0,0.0,0.0,0.0,0.0,0.0,0.0,0.0,0.0,0.0,0.0,0.0,0.0,0.0,0.0,0.0,0.0,0.0,0.0,0.0,0.0,0.0,0.0,0.0,0.0,0.0,0.0,0.0,0.0,0.0,0.0,0.0,0.0,0.0,0.0,0.0,0.0,0.0,0.0,0.0,0.0,0.0,0.0,0.0,0.0,0.0,0.0,0.0,0.0,0.0,0.0,0.0,0.0,0.0,0.0,0.0,0.0,0.0,0.0,0.0,0.0,0.0,0.0,0.0,0.0,0.0,0.0,0.0,0.0,0.0,0.0,0.0,0.0,0.0,0.0,0.0,0.0,0.0,0.0,0.0,0.0,0.0,0.0,0.0,0.0,0.0,0.0,0.0,0.0,0.0,0.0,0.0,0.0,0.0,0.0,0.0,0.0,0.0,0.0,4.4062,4.4348,4.3829,4.3998,4.3025,0.0,0.0,0.0,0.0,0.0,0.0,0.0,0.0,0.0,0.0,0.0,0.0,0.0,0.0,0.0,0.0,0.0,0.0,0.0,0.0,0.0,0.0,0.0,0.0,0.0,0.0,0.0,0.0,0.0,0.0,0.0,0.0,0.0,0.0,0.0,0.0,0.0,0.0,0.0,0.0,0.0,0.0,0.0,0.0,0.0,0.0,0.0,0.0,0.0,0.0,0.0,0.0,0.0,0.0,0.0,0.0,0.0,0.0,0.0,0.0,0.0,0.0,0.0,0.0,0.0,0.0,0.0,0.0,0.0,0.0,0.0,0.0,0.0,0.0,0.0,0.0,0.0,0.0,0.0,0.0,0.0,0.0,0.0,0.0,0.0,0.0,0.0,0.0,0.0,0.0,0.0,0.0,0.0,0.0,0.0,0.0,0.0,0.0,0.0,0.0,0.0,0.0,0.0,0.0,0.0,0.0,0.0,0.0,0.0,4.2783,4.399,4.4561,4.4386,4.3375,4.2098,0.0,0.0,0.0,0.0,0.0,0.0,0.0,0.0,0.0,0.0,0.0,0.0,0.0,0.0,0.0,0.0,0.0,0.0,0.0,0.0,0.0,0.0,0.0,0.0,0.0,0.0,0.0,0.0,0.0,0.0,0.0,0.0,0.0,0.0,0.0,0.0,0.0,0.0,0.0,0.0,0.0,0.0,0.0,0.0,0.0,0.0,0.0,0.0,0.0,0.0,0.0,0.0,0.0,0.0,0.0,0.0,0.0,0.0,0.0,0.0,0.0,0.0,0.0,0.0,0.0,0.0,0.0,0.0,0.0,0.0,0.0,0.0,0.0,0.0,0.0,0.0,0.0,0.0,0.0,0.0,0.0,0.0,0.0,0.0,0.0,0.0,0.0,0.0,0.0,0.0,0.0,0.0,0.0,0.0,0.0,0.0,0.0,0.0,0.0,0.0,0.0,0.0,0.0,0.0,0.0,0.0,0.0,0.0,0.0,4.2909,0.0,4.4448,0.0,4.2949,4.1552,0.0,0.0,0.0,0.0,0.0,0.0,0.0,0.0,0.0,0.0,0.0,0.0,0.0,0.0,0.0,0.0,0.0,0.0,0.0,0.0,0.0,0.0,0.0,0.0,0.0,0.0,0.0,0.0,0.0,0.0,0.0,0.0,0.0,0.0,0.0,0.0,0.0,0.0,0.0,0.0,0.0,0.0,0.0,0.0,0.0,0.0,0.0,0.0,0.0,0.0,0.0,0.0,0.0,0.0,0.0,0.0,0.0,0.0,0.0,0.0,0.0,0.0,0.0,0.0,0.0,0.0,0.0,0.0,0.0,0.0,0.0,0.0,0.0,0.0,0.0,0.0,0.0,0.0,0.0,0.0,0.0,0.0,0.0,0.0,0.0,0.0,0.0,0.0,0.0,0.0,0.0,0.0,0.0,0.0,0.0,0.0,0.0,0.0,0.0,0.0,0.0,0.0,0.0,0.0,0.0,0.0,0.0,0.0,0.0,4.3326,4.4285,4.4071,4.2446,4.2912,4.1627,0.0,0.0,0.0,0.0,0.0,0.0,0.0,0.0,0.0,0.0,0.0,0.0,0.0,0.0,0.0,0.0,0.0,0.0,0.0,0.0,0.0,0.0,0.0,0.0,0.0,0.0,0.0,0.0,0.0,0.0,0.0,0.0,0.0,0.0,0.0,0.0,0.0,0.0,0.0,0.0,0.0,0.0,0.0,0.0,0.0,0.0,0.0,0.0,0.0,0.0,0.0,0.0,0.0,0.0,0.0,0.0,0.0,0.0,0.0,0.0,0.0,0.0,0.0,0.0,0.0,0.0,0.0,0.0,0.0,0.0,0.0,0.0,0.0,0.0,0.0,0.0,0.0,0.0,0.0,0.0,0.0,0.0,0.0,0.0,0.0,0.0,0.0,0.0,0.0,0.0,0.0,0.0,0.0,0.0,0.0,0.0,0.0,0.0,0.0,0.0,0.0,0.0,0.0,0.0,0.0,0.0,0.0,0.0,0.0,4.2509,4.3917,4.4749,4.4852,4.3302,4.1867,0.0,0.0,0.0,0.0,0.0,0.0,0.0,0.0,0.0,0.0,0.0,0.0,0.0,0.0,0.0,0.0,0.0,0.0,0.0,0.0,0.0,0.0,0.0,0.0,0.0,0.0,0.0,0.0,0.0,0.0,0.0,0.0,0.0,0.0,0.0,0.0,0.0,0.0,0.0,0.0,0.0,0.0,0.0,0.0,0.0,0.0,0.0,0.0,0.0,0.0,0.0,0.0,0.0,0.0,0.0,0.0,0.0,0.0,0.0,0.0,0.0,0.0,0.0,0.0,0.0,0.0,0.0,0.0,0.0,0.0,0.0,0.0,0.0,0.0,0.0,0.0,0.0,0.0,0.0,0.0,0.0,0.0,0.0,0.0,0.0,0.0,0.0,0.0,0.0,0.0,0.0,0.0,0.0,0.0,0.0,0.0,0.0,0.0,0.0,0.0,0.0,0.0,0.0,0.0,0.0,0.0,0.0,0.0,0.0,4.305,4.4433,4.5127,4.5193,4.353,4.2121,4.0846,0.0,0.0,0.0,0.0,0.0,0.0,0.0,0.0,0.0,0.0,0.0,0.0,0.0,0.0,0.0,0.0,0.0,0.0,0.0,0.0,0.0,0.0,0.0,0.0,0.0,0.0,0.0,0.0,0.0,0.0,0.0,0.0,0.0,0.0,0.0,0.0,0.0,0.0,0.0,0.0,0.0,0.0,0.0,0.0,0.0,0.0,0.0,0.0,0.0,0.0,0.0,0.0,0.0,0.0,0.0,0.0,0.0,0.0,0.0,0.0,0.0,0.0,0.0,0.0,0.0,0.0,0.0,0.0,0.0,0.0,0.0,0.0,0.0,0.0,0.0,0.0,0.0,0.0,0.0,0.0,0.0,0.0,0.0,0.0,0.0,0.0,0.0,0.0,0.0,0.0,0.0,0.0,0.0,0.0,0.0,0.0,0.0,0.0,0.0,0.0,0.0,0.0,0.0,0.0,0.0,0.0,0.0,0.0,4.4674,4.558,4.5368,4.3945,4.368,4.231,0.0,0.0,0.0,0.0,0.0,0.0,0.0,0.0,0.0,0.0,0.0,0.0,0.0,0.0,0.0,0.0,0.0,0.0,0.0,0.0,0.0,0.0,0.0,0.0,0.0,0.0,0.0,0.0,0.0,0.0,0.0,0.0,0.0,0.0,0.0,0.0,0.0,0.0,0.0,0.0,0.0,0.0,0.0,0.0,0.0,0.0,0.0,0.0,0.0,0.0,0.0,0.0,0.0,0.0,0.0,0.0,0.0,0.0,0.0,0.0,0.0,0.0,0.0,0.0,0.0,0.0,0.0,0.0,0.0,0.0,0.0,0.0,0.0,0.0,0.0,0.0,0.0,0.0,0.0,0.0,0.0,0.0,0.0,0.0,0.0,0.0,0.0,0.0,0.0,0.0,0.0,0.0,0.0,0.0,0.0,0.0,0.0,0.0,0.0,0.0,0.0,0.0,0.0,0.0,0.0,0.0,0.0,0.0,0.0,4.4503,4.6135,4.6781,4.6367,4.4499,4.2998,0.0,0.0,0.0,0.0,0.0,0.0,0.0,0.0,0.0,0.0,0.0,0.0,0.0,0.0,0.0,0.0,0.0,0.0,0.0,0.0,0.0,0.0,0.0,0.0,0.0,0.0,0.0,0.0,0.0,0.0,0.0,0.0,0.0,0.0,0.0,0.0,0.0,0.0,0.0,0.0,0.0,0.0,0.0,0.0,0.0,0.0,0.0,0.0,0.0,0.0,0.0,0.0,0.0,0.0,0.0,0.0,0.0,0.0,0.0,0.0,0.0,0.0,0.0,0.0,0.0,0.0,0.0,0.0,0.0,0.0,0.0,0.0,0.0,0.0,0.0,0.0,0.0,0.0,0.0,0.0,0.0,0.0,0.0,0.0,0.0,0.0,0.0,0.0,0.0,0.0,0.0,0.0,0.0,0.0,0.0,0.0,0.0,0.0,0.0,0.0,0.0,0.0,0.0,0.0,0.0,0.0,0.0,0.0,4.3269,4.5557,4.6679,4.7462,4.7856,4.5957,4.4298,0.0,0.0,0.0,0.0,0.0,0.0,0.0,0.0,0.0,0.0,0.0,0.0,0.0,0.0,0.0,0.0,0.0,0.0,0.0,0.0,0.0,0.0,0.0,0.0,0.0,0.0,0.0,0.0,0.0,0.0,0.0,0.0,0.0,0.0,0.0,0.0,0.0,0.0,0.0,0.0,0.0,0.0,0.0,0.0,0.0,0.0,0.0,0.0,0.0,0.0,0.0,0.0,0.0,0.0,0.0,0.0,0.0,0.0,0.0,0.0,0.0,0.0,0.0,0.0,0.0,0.0,0.0,0.0,0.0,0.0,0.0,0.0,0.0,0.0,0.0,0.0,0.0,0.0,0.0,0.0,0.0,0.0,0.0,0.0,0.0,0.0,0.0,0.0,0.0,0.0,0.0,0.0,0.0,0.0,0.0,0.0,0.0,0.0,0.0,0.0,0.0,0.0,0.0,0.0,0.0,0.0,0.0,0.0,4.4215,4.7072,4.7186,4.7672,4.8586,4.7486,4.5594,0.0,0.0,0.0,0.0,0.0,0.0,0.0,0.0,0.0,0.0,0.0,0.0,0.0,0.0,0.0,0.0,0.0,0.0,0.0,0.0,0.0,0.0,0.0,0.0,0.0,0.0,0.0,0.0,0.0,0.0,0.0,0.0,0.0,0.0,0.0,0.0,0.0,0.0,0.0,0.0,0.0,0.0,0.0,0.0,0.0,0.0,0.0,0.0,0.0,0.0,0.0,0.0,0.0,0.0,0.0,0.0,0.0,0.0,0.0,0.0,0.0,0.0,0.0,0.0,0.0,0.0,0.0,0.0,0.0,0.0,0.0,0.0,0.0,0.0,0.0,0.0,0.0,0.0,0.0,0.0,0.0,0.0,0.0,0.0,0.0,0.0,0.0,0.0,0.0,0.0,0.0,0.0,0.0,0.0,0.0,0.0,0.0,0.0,0.0,0.0,0.0,0.0,0.0,0.0,0.0,0.0,0.0,0.0,4.4327,4.7226,4.7288,4.8045,4.9629,4.7165,4.4766,0.0,0.0,0.0,0.0,0.0,0.0,0.0,0.0,0.0,0.0,0.0,0.0,0.0,0.0,0.0,0.0,0.0,0.0,0.0,0.0,0.0,0.0,0.0,0.0,0.0,0.0,0.0,0.0,0.0,0.0,0.0,0.0,0.0,0.0,0.0,0.0,0.0,0.0,0.0,0.0,0.0,0.0,0.0,0.0,0.0,0.0,0.0,0.0,4.4178,0.0,0.0,0.0,0.0,0.0,0.0,0.0,0.0,0.0,0.0,0.0,0.0,0.0,0.0,0.0,0.0,0.0,0.0,0.0,0.0,0.0,0.0,0.0,0.0,0.0,0.0,0.0,0.0,0.0,0.0,0.0,0.0,0.0,0.0,0.0,0.0,0.0,0.0,0.0,0.0,0.0,0.0,0.0,0.0,0.0,0.0,0.0,0.0,0.0,0.0,0.0,0.0,0.0,0.0,0.0,0.0,0.0,0.0,0.0,4.4665,4.7162,4.725,4.8121,4.977,4.74,4.5146,0.0,0.0,0.0,0.0,0.0,0.0,0.0,0.0,0.0,0.0,0.0,0.0,0.0,0.0,0.0,0.0,0.0,0.0,0.0,0.0,0.0,0.0,0.0,0.0,0.0,0.0,0.0,0.0,0.0,0.0,0.0,0.0,0.0,0.0,0.0,0.0,0.0,0.0,0.0,0.0,0.0,0.0,0.0,0.0,0.0,0.0,0.0,0.0,0.0,0.0,0.0,0.0,0.0,0.0,0.0,0.0,0.0,0.0,0.0,0.0,0.0,0.0,0.0,0.0,0.0,0.0,0.0,0.0,0.0,0.0,0.0,0.0,0.0,0.0,0.0,0.0,0.0,0.0,0.0,0.0,0.0,0.0,0.0,0.0,0.0,0.0,0.0,0.0,0.0,0.0,0.0,0.0,0.0,0.0,0.0,0.0,0.0,0.0,0.0,0.0,0.0,0.0,0.0,0.0,0.0,0.0,0.0,4.2945,4.4927,4.702,4.72,4.8121,4.9834,4.7871,4.5835,4.3923,0.0,0.0,0.0,0.0,0.0,0.0,0.0,0.0,0.0,0.0,0.0,0.0,0.0,0.0,0.0,0.0,0.0,0.0,0.0,0.0,0.0,0.0,0.0,0.0,0.0,0.0,0.0,0.0,0.0,0.0,0.0,0.0,0.0,0.0,0.0,0.0,0.0,0.0,4.0503,4.3095,0.0,0.0,0.0,0.0,0.0,0.0,0.0,0.0,4.4797,0.0,0.0,0.0,0.0,0.0,0.0,0.0,0.0,0.0,0.0,0.0,0.0,0.0,0.0,0.0,0.0,0.0,0.0,0.0,0.0,0.0,0.0,0.0,0.0,0.0,0.0,0.0,0.0,0.0,0.0,0.0,0.0,0.0,0.0,0.0,0.0,0.0,0.0,0.0,0.0,0.0,0.0,0.0,0.0,0.0,0.0,0.0,0.0,0.0,0.0,0.0,0.0,0.0,0.0,0.0,0.0,4.2221,4.276,4.4402,4.7158,4.734,4.8251,4.9986,4.8121,4.5977,4.3721,0.0,0.0,0.0,0.0,0.0,0.0,0.0,0.0,0.0,0.0,0.0,0.0,0.0,0.0,0.0,0.0,0.0,0.0,0.0,0.0,0.0,0.0,0.0,0.0,0.0,0.0,0.0,0.0,0.0,0.0,0.0,0.0,0.0,0.0,0.0,0.0,0.0,0.0,0.0,4.4285,4.4721,0.0,0.0,0.0,0.0,0.0,0.0,0.0,0.0,4.415,0.0,0.0,0.0,0.0,0.0,0.0,0.0,0.0,0.0,0.0,0.0,0.0,0.0,0.0,0.0,0.0,0.0,0.0,0.0,0.0,0.0,0.0,0.0,0.0,0.0,0.0,0.0,0.0,0.0,0.0,0.0,0.0,0.0,0.0,0.0,0.0,0.0,0.0,0.0,0.0,0.0,0.0,0.0,0.0,0.0,0.0,0.0,0.0,0.0,0.0,0.0,0.0,0.0,0.0,0.0,4.1797,4.286,4.4665,4.7082,4.7327,4.8074,4.9449,4.7503,4.5311,0.0,0.0,0.0,0.0,0.0,0.0,0.0,0.0,0.0,0.0,0.0,0.0,0.0,0.0,0.0,0.0,0.0,0.0,0.0,0.0,0.0,0.0,0.0,0.0,0.0,0.0,0.0,0.0,0.0,0.0,0.0,0.0,0.0,0.0,0.0,0.0,0.0,0.0,0.0,0.0,4.5136,4.5423,4.5423,0.0,0.0,0.0,0.0,0.0,0.0,4.4052,4.3985,0.0,0.0,0.0,0.0,0.0,0.0,0.0,0.0,0.0,0.0,0.0,0.0,0.0,0.0,0.0,0.0,0.0,0.0,0.0,0.0,0.0,0.0,0.0,0.0,0.0,0.0,0.0,0.0,0.0,0.0,0.0,0.0,0.0,0.0,0.0,0.0,0.0,0.0,0.0,0.0,0.0,0.0,0.0,0.0,0.0,0.0,0.0,0.0,0.0,0.0,0.0,0.0,0.0,0.0,0.0,4.1156,4.2854,4.4824,4.6996,4.7352,4.7933,4.8945,4.7112,4.4956,0.0,0.0,0.0,0.0,0.0,0.0,0.0,0.0,0.0,0.0,0.0,0.0,0.0,0.0,0.0,0.0,0.0,0.0,0.0,0.0,0.0,0.0,0.0,0.0,0.0,0.0,0.0,0.0,0.0,0.0,0.0,0.0,0.0,0.0,0.0,0.0,0.0,0.0,0.0,0.0,0.0,4.6428,4.5773,4.5953,0.0,0.0,0.0,0.0,4.4263,4.4674,0.0,0.0,0.0,0.0,0.0,0.0,0.0,0.0,0.0,0.0,0.0,0.0,0.0,0.0,0.0,0.0,0.0,0.0,0.0,0.0,0.0,0.0,0.0,0.0,0.0,0.0,0.0,0.0,0.0,0.0,0.0,0.0,0.0,0.0,0.0,0.0,0.0,0.0,0.0,0.0,0.0,0.0,0.0,0.0,0.0,0.0,0.0,0.0,0.0,0.0,0.0,0.0,0.0,0.0,0.0,0.0,4.1079,4.2316,4.4299,4.6947,4.7424,4.8029,4.8945,4.7929,4.5821,0.0,0.0,0.0,0.0,0.0,0.0,0.0,0.0,0.0,0.0,0.0,0.0,0.0,0.0,0.0,0.0,0.0,0.0,0.0,0.0,0.0,0.0,0.0,0.0,0.0,0.0,0.0,0.0,0.0,0.0,0.0,0.0,0.0,0.0,0.0,0.0,0.0,0.0,0.0,0.0,0.0,4.7464,4.4443,4.527,4.5803,0.0,0.0,0.0,4.5622,4.69,0.0,0.0,0.0,0.0,0.0,0.0,0.0,0.0,0.0,0.0,0.0,0.0,0.0,0.0,0.0,0.0,0.0,0.0,0.0,0.0,0.0,0.0,0.0,0.0,0.0,0.0,0.0,0.0,0.0,0.0,0.0,0.0,0.0,0.0,0.0,0.0,0.0,0.0,0.0,0.0,0.0,0.0,0.0,0.0,0.0,0.0,0.0,0.0,0.0,0.0,0.0,0.0,0.0,0.0,0.0,4.0749,4.1119,4.2686,4.442,4.6301,4.6701,4.7099,4.757,4.6656,4.4789,0.0,0.0,0.0,0.0,0.0,0.0,0.0,0.0,0.0,0.0,0.0,0.0,0.0,0.0,0.0,0.0,0.0,0.0,0.0,0.0,0.0,0.0,0.0,0.0,0.0,0.0,0.0,0.0,0.0,0.0,0.0,0.0,0.0,0.0,0.0,0.0,0.0,0.0,0.0,0.0,0.0,0.0,4.6055,4.647,0.0,0.0,0.0,4.6585,4.59,0.0,0.0,0.0,0.0,0.0,0.0,0.0,0.0,0.0,0.0,0.0,0.0,0.0,0.0,0.0,0.0,0.0,0.0,0.0,0.0,0.0,0.0,0.0,0.0,0.0,0.0,0.0,0.0,0.0,0.0,0.0,0.0,0.0,0.0,0.0,0.0,0.0,0.0,0.0,0.0,0.0,0.0,0.0,0.0,0.0,0.0,0.0,0.0,0.0,0.0,0.0,0.0,0.0,0.0,0.0,0.0,0.0,4.0859,4.2908,4.4579,4.5735,4.6145,4.6351,4.6462,4.5742,0.0,0.0,0.0,0.0,0.0,0.0,0.0,0.0,0.0,0.0,0.0,0.0,0.0,0.0,0.0,0.0,0.0,0.0,0.0,0.0,0.0,0.0,0.0,0.0,0.0,0.0,0.0,0.0,0.0,0.0,0.0,0.0,0.0,0.0,0.0,0.0,0.0,0.0,0.0,0.0,0.0,0.0,4.6312,4.7311,4.7428,4.7176,0.0,0.0,4.7223,4.6257,4.7205,4.7286,0.0,0.0,0.0,0.0,0.0,0.0,0.0,0.0,0.0,0.0,0.0,0.0,0.0,0.0,0.0,0.0,0.0,0.0,0.0,0.0,0.0,0.0,0.0,0.0,0.0,0.0,0.0,0.0,0.0,0.0,0.0,0.0,0.0,0.0,0.0,0.0,0.0,0.0,0.0,0.0,0.0,0.0,0.0,0.0,0.0,0.0,0.0,0.0,0.0,0.0,0.0,0.0,0.0,0.0,0.0,4.0047,4.2643,4.4595,4.5757,4.6149,4.6351,4.6522,4.638,4.48,0.0,0.0,0.0,0.0,0.0,0.0,0.0,0.0,0.0,0.0,0.0,0.0,0.0,0.0,0.0,0.0,0.0,0.0,0.0,0.0,0.0,0.0,0.0,0.0,0.0,0.0,0.0,0.0,0.0,0.0,0.0,0.0,0.0,0.0,0.0,0.0,0.0,0.0,0.0,0.0,0.0,4.6981,4.6861,4.7316,4.7832,0.0,0.0,4.7865,4.7033,4.8782,4.8996,4.5213,0.0,0.0,0.0,0.0,0.0,0.0,0.0,0.0,0.0,0.0,0.0,0.0,0.0,0.0,0.0,0.0,0.0,0.0,0.0,0.0,0.0,0.0,0.0,0.0,0.0,0.0,0.0,0.0,0.0,0.0,0.0,0.0,0.0,0.0,0.0,0.0,0.0,0.0,0.0,0.0,0.0,0.0,0.0,0.0,0.0,0.0,0.0,0.0,0.0,0.0,0.0,0.0,0.0,4.0163,4.005,4.2978,4.4723,4.518,4.5506,4.5698,4.5774,4.5715,4.4478,0.0,0.0,0.0,0.0,0.0,0.0,0.0,0.0,0.0,0.0,0.0,0.0,0.0,0.0,0.0,0.0,0.0,0.0,0.0,0.0,0.0,0.0,0.0,0.0,0.0,0.0,0.0,0.0,3.4101,3.4338,3.5014,0.0,0.0,0.0,0.0,0.0,0.0,0.0,0.0,0.0,0.0,4.6103,4.7375,4.7606,0.0,0.0,4.8432,4.8603,4.7818,4.8461,4.8247,4.5749,4.4609,0.0,0.0,0.0,0.0,0.0,0.0,0.0,0.0,0.0,0.0,0.0,0.0,0.0,0.0,0.0,0.0,0.0,0.0,0.0,0.0,0.0,0.0,0.0,0.0,0.0,0.0,0.0,0.0,0.0,0.0,0.0,0.0,0.0,0.0,0.0,0.0,0.0,0.0,0.0,0.0,0.0,0.0,0.0,0.0,0.0,0.0,0.0,0.0,0.0,0.0,0.0,0.0,4.0328,4.0133,4.3213,4.48,4.4825,4.512,4.5321,4.5339,4.5298,4.4417,0.0,0.0,0.0,0.0,0.0,0.0,0.0,0.0,0.0,0.0,0.0,0.0,0.0,0.0,0.0,0.0,0.0,0.0,0.0,0.0,0.0,0.0,0.0,0.0,0.0,0.0,0.0,0.0,3.4987,3.4899,3.557,0.0,0.0,0.0,0.0,0.0,0.0,0.0,0.0,0.0,0.0,4.559,4.8111,4.8093,4.7814,4.7775,4.8524,4.8733,4.764,4.7854,4.7533,4.5749,0.0,0.0,0.0,0.0,0.0,0.0,0.0,0.0,0.0,0.0,0.0,0.0,0.0,0.0,0.0,0.0,0.0,0.0,0.0,0.0,0.0,0.0,0.0,0.0,0.0,0.0,0.0,0.0,0.0,0.0,3.859,0.0,0.0,0.0,0.0,0.0,0.0,0.0,0.0,0.0,0.0,0.0,0.0,0.0,0.0,0.0,0.0,0.0,0.0,0.0,0.0,0.0,0.0,0.0,4.0259,4.3239,4.4849,4.4896,4.5159,4.5341,4.5438,4.5339,4.4728,4.344,0.0,0.0,0.0,0.0,0.0,0.0,0.0,0.0,0.0,0.0,0.0,0.0,0.0,0.0,0.0,0.0,0.0,0.0,0.0,0.0,0.0,0.0,0.0,0.0,0.0,0.0,3.4666,3.4126,3.3863,0.0,0.0,0.0,0.0,0.0,0.0,0.0,0.0,0.0,0.0,4.4089,4.5883,4.904,4.8663,4.8202,4.8756,4.864,4.7913,4.6222,4.7176,4.7354,0.0,0.0,0.0,0.0,0.0,0.0,0.0,0.0,0.0,0.0,0.0,0.0,0.0,0.0,0.0,0.0,0.0,0.0,0.0,0.0,0.0,0.0,0.0,0.0,0.0,0.0,0.0,3.9123,3.8302,0.0,0.0,0.0,0.0,0.0,0.0,0.0,0.0,0.0,0.0,0.0,3.8689,3.8946,0.0,0.0,0.0,0.0,0.0,0.0,0.0,0.0,0.0,0.0,0.0,0.0,4.0666,4.0697,4.371,4.5243,4.5109,4.5936,4.634,4.6282,4.6717,4.5451,4.234,0.0,0.0,0.0,0.0,0.0,0.0,0.0,0.0,0.0,0.0,0.0,0.0,0.0,0.0,0.0,0.0,0.0,0.0,0.0,0.0,0.0,0.0,0.0,0.0,0.0,3.5512,0.0,0.0,0.0,0.0,0.0,0.0,0.0,0.0,0.0,0.0,0.0,4.1556,4.3904,4.493,4.6287,4.8453,4.8334,4.8166,0.0,0.0,0.0,0.0,0.0,0.0,0.0,0.0,0.0,0.0,0.0,0.0,0.0,0.0,4.5222,4.23,4.1402,4.1121,4.1215,0.0,0.0,0.0,0.0,0.0,0.0,0.0,0.0,0.0,0.0,0.0,0.0,0.0,0.0,3.9275,0.0,3.8439,0.0,0.0,0.0,0.0,0.0,0.0,0.0,0.0,4.0802,4.0754,4.0362,4.0336,4.0047,0.0,3.9276,3.8726,0.0,0.0,0.0,0.0,0.0,0.0,0.0,0.0,4.1254,4.1255,4.4075,4.5495,4.5298,4.634,4.6857,4.6801,4.7444,4.6149,4.2754,4.1215,3.9234,0.0,0.0,0.0,0.0,0.0,0.0,0.0,0.0,0.0,0.0,0.0,0.0,0.0,0.0,0.0,0.0,0.0,0.0,0.0,0.0,0.0,0.0,0.0,3.5588,0.0,0.0,0.0,0.0,0.0,0.0,0.0,0.0,0.0,3.9863,4.0855,4.2323,4.4415,4.5406,4.6471,4.8086,0.0,0.0,0.0,0.0,0.0,0.0,0.0,4.6167,4.5996,4.4716,4.3938,4.4487,4.5151,4.5664,4.5682,0.0,0.0,4.3895,4.3173,4.2847,4.2969,4.3321,4.3487,4.3049,4.3276,4.3441,0.0,0.0,0.0,0.0,0.0,0.0,0.0,0.0,3.8871,3.8871,0.0,3.7927,0.0,0.0,0.0,0.0,0.0,0.0,0.0,0.0,4.1492,4.1667,4.1403,4.125,4.1185,4.1222,4.1882,4.1809,4.0965,3.7991,0.0,0.0,0.0,0.0,0.0,0.0,4.207,4.2046,4.4401,4.5512,4.5362,4.6377,4.6991,4.7049,4.7563,4.6806,4.4674,4.3974,4.2083,3.8684,3.797,0.0,0.0,0.0,0.0,0.0,0.0,0.0,0.0,0.0,0.0,0.0,0.0,0.0,0.0,0.0,0.0,0.0,0.0,0.0,0.0,3.5357,0.0,0.0,0.0,0.0,0.0,0.0,0.0,0.0,0.0,0.0,4.0047,4.1368,4.2947,4.4488,0.0,0.0,0.0,0.0,4.8265,4.8105,4.7897,4.747,4.6536,4.6748,4.6895,4.6482,0.0,0.0,4.4936,4.5289,4.5553,4.4859,4.5384,4.6006,4.6969,4.639,4.569,4.5124,4.4914,4.49,4.4655,4.43,4.4233,4.1393,0.0,0.0,0.0,0.0,4.0533,4.0707,4.0517,4.1212,4.0734,3.9532,3.9391,0.0,0.0,0.0,0.0,0.0,0.0,4.1365,4.2267,4.252,4.2723,4.2831,4.2834,4.28,4.28,4.2475,4.2182,4.1919,4.0451,3.957,3.9203,0.0,0.0,0.0,0.0,4.2143,4.2404,4.4461,4.5281,4.4557,4.6646,4.8279,4.9264,4.8853,4.7846,4.6106,4.5101,4.3379,4.0887,3.9804,0.0,0.0,0.0,0.0,0.0,0.0,0.0,0.0,0.0,0.0,0.0,0.0,0.0,0.0,0.0,0.0,0.0,0.0,0.0,3.5221,3.5256,3.5357,0.0,0.0,0.0,0.0,0.0,0.0,0.0,0.0,0.0,4.1625,4.2506,4.3534,0.0,0.0,4.6948,4.7388,4.8416,4.9072,4.8908,0.0,0.0,0.0,4.8253,4.7891,4.8,4.7562,4.6978,4.6275,4.6389,4.655,4.6553,4.6388,4.6311,4.6397,4.5886,4.5533,4.5925,4.5581,4.5234,4.5251,4.52,4.52,4.24,4.1192,4.0765,4.0415,4.0236,4.0881,4.1177,4.1275,4.2139,4.1911,4.0858,4.0642,3.9751,3.8416,3.8483,0.0,0.0,0.0,4.168,4.2967,4.3005,4.3206,4.3597,4.3532,4.3497,4.3461,4.3023,4.2803,4.2763,4.1956,4.1332,4.0818,0.0,0.0,3.9517,4.1203,4.2308,4.2951,4.4632,4.5263,4.4804,4.6934,4.8624,4.971,4.9595,4.877,4.7243,4.6397,4.4923,4.2739,4.1566,4.0081,0.0,0.0,0.0,0.0,0.0,0.0,0.0,0.0,0.0,0.0,0.0,3.623,0.0,0.0,0.0,0.0,3.5172,3.5897,3.6114,3.5864,0.0,0.0,0.0,0.0,0.0,0.0,0.0,4.0745,4.1577,4.23,4.3133,4.3975,4.4635,4.5112,4.6324,4.7204,4.7535,0.0,4.9001,4.8882,4.9081,4.9198,4.8937,4.8317,4.7986,4.8397,4.8151,4.7747,4.7369,4.7012,4.6743,4.6713,4.6223,4.5799,4.5847,4.5213,4.4916,4.5567,4.5268,4.5015,4.5177,4.5211,4.523,4.3373,4.2458,4.1163,4.069,4.0828,4.1127,4.1344,4.1465,4.2185,4.2488,4.2337,4.1548,4.0691,3.9851,3.9126,0.0,0.0,4.1189,4.1983,4.3194,4.3137,4.3341,4.3734,4.36,4.3497,4.3497,4.3497,4.3497,4.3461,4.2763,4.2359,4.2249,4.0818,4.0105,4.0244,4.1482,4.2574,4.3596,4.4704,4.538,4.5624,4.7124,4.824,4.9022,4.9862,4.9568,4.8103,4.7798,4.6613,4.4409,4.3231,4.1561,3.9147,0.0,0.0,0.0,0.0,0.0,0.0,0.0,0.0,0.0,0.0,0.0,0.0,0.0,0.0,0.0,3.6342,0.0,3.7542,3.6934,0.0,0.0,0.0,3.6078,3.7612,3.8008,3.9085,4.1397,0.0,0.0,0.0,0.0,4.592,4.5993,4.6691,4.7462,4.8122,4.8343,4.8379,4.8526,4.8294,4.8166,4.8206,4.7823,4.7737,4.819,4.8294,4.8186,4.7799,4.6979,4.6192,4.5861,4.5176,4.4821,4.5145,4.4554,4.4146,4.437,4.4406,4.4463,4.4497,4.4553,4.4665,4.3493,4.3195,4.2511,4.2039,4.1792,4.2636,4.3047,4.3133,4.3284,4.3019,4.2375,4.1541,4.07,3.986,4.0314,4.1009,4.1968,4.2697,4.3352,4.3922,4.3893,4.3801,4.3566,4.3532,4.3497,4.3497,4.3497,4.3497,4.3497,4.3314,4.291,4.2323,4.1919,4.147,4.1071,4.2221,4.3062,4.3573,4.4128,4.4806,4.5586,4.597,4.7088,4.8984,4.9862,4.9834,4.8856,4.8621,4.772,4.6005,4.4389,4.2602,4.0646,3.8223,0.0,0.0,0.0,0.0,0.0,0.0,0.0,0.0,0.0,3.6005,3.3707,0.0,3.4749,0.0,3.6077,3.7102,3.7792,3.7542,0.0,0.0,3.8076,3.8326,3.9254,3.9935,4.0659,4.1353,4.2193,4.3141,4.4309,4.5334,4.614,4.6728,4.7498,4.7865,4.7535,4.8526,4.926,4.9297,4.9501,4.9768,4.9438,4.9101,4.8697,4.892,4.8226,4.7479,4.6786,4.6052,4.557,4.5375,4.4626,4.4075,4.4074,4.349,4.3127,4.3388,4.3654,4.3831,4.3831,4.4039,4.4044,4.3497,4.3495,4.3398,4.3193,4.3025,4.3378,4.3629,4.3739,4.408,4.3777,4.2905,4.173,4.0912,4.0488,4.0942,4.1586,4.2404,4.3237,4.383,4.4192,4.4192,4.3949,4.3497,4.3497,4.3497,4.3497,4.3497,4.3497,4.3497,4.3497,4.324,4.2837,4.2837,4.2613,4.2308,4.2723,4.3277,4.4118,4.4534,4.5053,4.5586,4.6317,4.73,4.8411,4.9182,4.9083,4.8071,4.7806,4.7204,4.6124,4.4726,4.33,4.1805,3.9368,3.7506,0.0,0.0,0.0,0.0,0.0,0.0,0.0,0.0,0.0,0.0,0.0,3.5209,0.0,0.0,0.0,3.8151,3.8433,3.8712,3.9022,3.9171,3.9533,4.036,4.0824,4.1296,4.1851,4.2438,4.3278,4.4709,4.5443,4.6212,4.7424,4.8012,4.8159,4.7829,4.8489,4.9003,4.904,4.9252,4.93,4.8872,4.8613,4.8347,4.7989,4.7592,4.7106,4.6435,4.5578,4.5006,4.4751,4.3974,4.3233,4.3233,4.2941,4.268,4.2805,4.3052,4.3235,4.3535,4.3739,4.3689,4.3497,4.3532,4.3832,4.4055,4.4125,4.3735,4.3668,4.3867,4.4435,4.4221,4.3412,4.1942,4.1313,4.1344,4.1396,4.1874,4.2579,4.3474,4.3995,4.4221,4.4192,4.3949,4.3532,4.3532,4.3497,4.3497,4.3497,4.3497,4.3497,4.3497,4.3497,4.3497,4.3497,4.3497,4.3461,4.2955,4.3303,4.4586,4.5073,4.5316,4.5432,4.6952,4.7702,4.7646,4.8186,4.7953,4.6763,4.6471,4.6061,4.5623,4.4629,4.371,4.2753,4.0775,3.9247,0.0,3.6935,0.0,0.0,0.0,0.0,0.0,0.0,0.0,0.0,3.679,3.6635,3.7163,3.8574,3.9229,3.8747,3.9416,3.9833,3.9594,3.9863,4.0379,4.1141,4.1252,4.1582,4.2458,4.2609,4.3343,4.5176,4.5547,4.6245,4.7826,4.8231,4.8306,4.8306,4.8343,4.8416,4.8416,4.8414,4.8429,4.7759,4.7571,4.7412,4.6685,4.6781,4.6782,4.6152,4.5257,4.4495,4.4122,4.3385,4.2745,4.2618,4.2587,4.2587,4.265,4.265,4.2805,4.3295,4.3443,4.3356,4.3497,4.3532,4.3747,4.3878,4.3955,4.399,4.4233,4.455,4.3882,4.3152,4.2423,4.2077,4.1917,4.187,4.2607,4.3071,4.344,4.4283,4.4612,4.444,4.4288,4.4048,4.3738,4.3566,4.3497,4.3497,4.3497,4.3497,4.3497,4.3497,4.3497,4.3497,4.3497,4.3497,0.0,0.0,0.0,0.0,4.3656,4.3893,4.4547,4.5437,4.6186,4.6729,4.7276,0.0,4.6763,4.6434,4.6061,4.5623,4.4629,0.0,0.0,0.0,0.0,0.0,0.0,0.0,0.0,0.0,0.0,0.0,3.7791,3.7104,3.6916,3.7957,3.8647,3.8653,3.9481,3.9947,3.9759,4.0157,4.0488,4.0565,4.1018,4.1485,4.1872,4.1996,4.2185,4.2333,4.249,4.326,4.4822,4.5391,4.6205,4.7779,4.819,4.8306,4.8306,4.8306,4.8563,4.915,4.9069,4.8857,4.8467,4.7925,4.7371,4.6882,4.6412,4.5976,4.5162,4.4615,4.4123,4.3827,4.3333,4.2929,4.2713,4.2587,4.265,4.2587,4.2587,4.2618,4.2743,4.299,4.29,4.3497,0.0,4.3716,4.3815,0.0,4.3929,4.414,4.4421,4.3942,4.3502,4.3127,4.279,4.2575,4.251,4.301,4.3288,4.3348,4.436,4.4621,4.4345,4.4229,4.4048,4.3869,4.36,4.3497,4.3497,4.3497,4.3497,4.3497,4.3497,4.3497,4.3497,4.3497,4.3314,4.2873,4.2263,4.2238,4.281,4.325,4.4172,4.553,4.6244,4.6797,4.715,0.0,0.0,0.0,0.0,0.0,0.0,0.0,0.0,0.0,0.0,0.0,4.0237,3.9109,3.8377,3.8269,3.8014,3.8234,3.91,3.9401,3.9049,3.7935,3.912,3.9806,3.9625,4.0344,4.0623,4.0228,4.0687,4.1007,4.0787,4.1235,4.1657,4.1874,4.2086,4.2246,4.2358,4.2726,4.3566,4.4844,4.5549,4.6404,4.7733,4.8072,4.819,4.8267,4.8306,4.8489,4.8893,4.8852,4.8575,4.8121,4.7635,4.6989,4.6325,4.5814,4.5295,4.471,4.4327,4.4039,4.3831,4.3595,4.3235,4.2929,4.2867,4.2805,4.2618,4.2587,4.2488,4.2229,4.2223,4.2043,4.3497,4.3497,4.3679,4.3744,4.3832,4.3767,4.3832,4.4017,0.0,0.0,0.0,4.3571,4.328,4.3148,4.3245,4.3274,4.3295,4.4213,4.4513,4.4221,4.417,4.4048,4.3929,4.3634,4.3497,4.3497,4.3497,4.3497,4.3497,4.3497,4.3497,4.3497,4.3497,4.302,4.2136,4.1687,4.1698,4.2071,4.3225,4.4784,4.6743,4.7336,4.7673,4.7761,4.7084,4.5977,4.449,4.4017,4.3752,4.3718,4.3651,4.3542,4.3317,4.2501,4.1877,4.1429,4.04,3.9718,3.9671,3.9273,3.9197,3.9511,4.0689,4.0796,3.9478,4.0274,4.078,4.0594,4.1166,4.1288,4.0672,4.1139,4.13,4.0754,4.1082,4.1401,4.1701,4.1959,4.2199,4.2537,4.3108,4.39,4.5006,4.5737,4.6585,4.757,4.7806,4.7853,4.8007,4.8119,4.8229,4.8302,4.83,4.8108,4.7591,4.724,4.666,4.592,4.5389,4.4995,4.472,4.4384,4.4212,4.4097,4.3831,4.3595,4.3295,4.3174,4.3113,4.2805,4.2645,4.2291,4.1703,4.1351,4.0924,4.3497,4.3497,4.3534,4.3532,4.3566,4.3566,4.3529,4.3634,4.3918,4.4042,4.3943,4.3875,4.3754,4.3704,4.3781,4.3862,4.399,4.4365,4.4524,0.0,4.4229,4.4109,4.4048,4.3664,4.3497,4.3497,4.3497,4.3497,4.3497,4.3497,4.3497,4.3497,4.3497,4.2727,4.1405,4.1213,4.1323,4.1689,4.2975,4.4532,4.6326,4.6488,4.6946,4.7701,4.6566,4.5715,4.5342,4.4967,4.4736,4.4562,4.5004,4.518,4.4947,4.3444,4.2472,4.2195,4.0871,4.0118,4.0363,4.0323,4.0491,4.0896,4.1314,4.1343,4.0895,4.174,4.2246,4.2047,4.2083,4.2062,4.1768,4.1445,4.1209,4.1117,4.1071,4.1209,4.1595,4.198,4.2477,4.3208,4.3429,4.4107,4.5408,4.6004,4.6529,4.7162,4.728,4.7007,4.7153,4.7594,4.7995,4.8032,4.8032,4.7915,4.7752,4.7457,4.6972,4.6293,4.5717,4.523,4.4995,4.4665,4.4384,4.4155,4.4097,4.3923,4.3595,4.3535,4.3476,4.3383,4.284,4.2005,4.1285,4.0522,3.991,4.3497,4.3497,4.3497,4.324,4.28,4.2396,4.2176,4.2213,4.2373,4.295,4.3693,4.3795,4.3734,4.3676,4.3767,4.3828,4.3795,4.4079,4.4266,4.4258,4.4017,4.4023,4.4079,4.3664,4.3497,4.3497,4.3497,4.3497,4.3497,4.3497,4.3497,4.3424,4.2653,4.1809,4.1185,4.1079,4.1392,4.1983,4.2875,4.4424,4.6607,4.6846,4.7289,4.815,4.7428,4.6765,4.6165,4.5881,4.5579,4.5369,4.5627,4.5661,4.543,4.4221,4.3346,4.315,4.1968,4.1323,4.1478,4.163,4.1831,4.2127,4.2497,4.2693,4.266,4.2454,4.2328,4.2251,4.193,4.17,4.1796,4.1436,4.1117,4.0896,4.1478,4.1919,4.2021,4.2668,4.3368,4.3978,4.4456,4.5035,4.5713,4.6266,4.6757,4.7212,4.7016,4.6746,4.6509,4.6876,4.7357,4.7756,4.7911,4.7992,4.7911,4.75,4.7107,4.6753,4.5885,4.5302,4.5069,4.4831,4.4553,4.4384,4.4384,4.4212,4.3948,4.3889,4.3772,4.3529,4.2973,4.2129,4.1346,4.0212,3.9378,4.3497,4.3497,4.3497,4.313,4.2506,4.1919,4.1552,4.1368,4.1405,4.1956,4.2907,4.3118,4.3229,4.324,4.3376,4.3487,4.3529,4.361,4.3689,4.3751,4.3384,4.3341,4.346,4.3299,4.324,4.324,4.3387,4.3424,4.324,4.324,4.324,4.3057,4.1809,4.1222,4.1405,4.1368,4.1772,4.2537,4.302,4.4345,4.6525,4.7041,4.7575,4.8143,4.7993,4.7485,4.6769,4.6624,4.6426,4.6214,4.6324,4.636,4.6132,4.5156,4.444,4.4027,4.3097,4.2411,4.2339,4.2498,4.2654,4.2792,4.3162,4.3554,4.3734,4.3023,4.2576,4.2709,4.2358,4.2127,4.2369,4.1995,4.1509,4.1292,4.2055,4.2602,4.2583,4.3301,4.4131,4.4662,4.5374,4.582,4.6141,4.6605,4.6838,4.6672,4.6535,4.625,4.6002,4.6194,4.6747,4.7325,4.7705,4.7829,4.787,4.7457,4.7151,4.7062,4.6119,4.5459,4.523,4.494,4.4609,4.4553,4.4553,4.444,4.427,4.4212,4.4155,4.3914,4.3174,4.236,4.1541,4.068,3.9511,4.3497,4.3497,4.3497,4.3461,4.3314,4.3204,4.2763,4.2176,4.2176,4.1809,4.1368,4.1332,4.1776,4.2331,4.2433,4.2797,4.3348,4.289,4.2717,4.2706,4.1946,4.1576,4.1785,4.2206,4.2402,4.2543,4.313,4.3167,4.258,4.247,4.2433,4.2323,4.1552,4.1479,4.2103,4.2176,4.2573,4.3373,4.3619,4.4294,4.5431,4.6427,4.7081,4.7413,4.7108,4.6862,4.6701,4.7043,4.7168,4.7058,4.7645,4.7972,4.7664,4.6685,4.5745,4.4894,4.3819,4.2978,4.2426,4.2339,4.2407,4.2392,4.2757,4.3065,4.3429,4.364,4.3905,4.4227,4.4321,4.4021,4.4218,4.3605,4.304,4.2743,4.2774,4.2826,4.3108,4.3615,4.4307,4.5382,4.573,4.607,4.6676,4.6855,4.6445,4.5473,4.5425,4.5395,4.5414,4.5845,4.6457,4.6928,4.7232,4.745,4.7615,4.7407,4.7151,4.7017,4.6266,4.5666,4.5441,4.5015,4.4553,4.4587,4.4553,4.4587,4.4587,4.4553,4.4497,4.4282,4.3608,4.2645,4.1754,4.1322,4.0702,4.3497,4.3497,4.3497,4.3204,4.2763,4.2286,4.1919,4.1589,4.1589,4.1144,4.0441,4.0409,4.0813,4.1576,4.1585,4.1772,4.2066,4.1801,4.1746,4.1804,4.1414,4.1267,4.1397,4.2014,4.232,4.2359,4.3094,4.3314,4.3057,4.2983,4.2763,4.2323,4.1956,4.1992,4.2286,4.2286,4.2687,4.349,4.4042,4.4552,4.4983,4.5542,4.6141,4.6644,4.6694,4.6632,4.6471,4.6672,4.6871,4.7095,4.7387,4.7791,4.8153,4.7389,4.6621,4.5859,4.4715,4.3931,4.3694,4.3639,4.3639,4.3639,4.3912,4.4144,4.4406,4.4863,4.5304,4.5492,4.4654,4.4064,4.444,4.4025,4.3476,4.3006,4.3115,4.3271,4.2996,4.3727,4.4677,4.5764,4.6223,4.6514,4.6819,4.6569,4.5864,4.495,4.4863,4.5048,4.5387,4.5904,4.6327,4.6874,4.7053,4.7187,4.7363,4.7363,4.7196,4.7062,4.6507,4.592,4.5701,4.523,4.4776,4.4643,4.4643,4.4587,4.4553,4.4553,4.4553,4.4418,4.3888,4.298,4.2131,4.1963,4.1627,4.3497,4.3497,4.3497,4.302,4.2323,4.2176,4.1846,4.1552,4.1919,4.1291,4.0037,4.0373,4.0625,4.0762,4.0777,4.0891,4.1075,4.0855,4.0956,4.1162,4.0956,4.0956,4.1272,4.1936,4.2312,4.243,4.313,4.3497,4.3424,4.2983,4.2727,4.258,4.2396,4.2433,4.2616,4.2616,4.3128,4.4081,4.456,4.4929,4.5295,4.5358,4.5675,4.6268,4.6628,4.6773,4.6638,4.6755,4.702,4.7388,4.7241,4.7388,4.7864,4.7368,4.6722,4.6094,4.501,4.4461,4.4553,4.4553,4.4553,4.4643,4.4776,4.4995,4.5177,4.5546,4.592,4.6125,4.4975,4.452,4.5098,4.4587,4.3875,4.3171,4.3476,4.3339,4.286,4.3717,4.4729,4.5684,4.6247,4.6671,4.656,4.5963,4.5213,4.4749,4.4736,4.5029,4.5614,4.5952,4.6247,4.69,4.6998,4.7053,4.7187,4.7187,4.7232,4.7062,4.6602,4.6204,4.5905,4.5441,4.5049,4.4831,4.4699,4.4587,4.4587,4.4553,4.4553,4.4451,4.4079,4.3572,4.3179,4.2997,4.2963,4.3497,4.3534,4.3497,4.3167,4.2433,4.3864,4.3644,4.2506,4.3828,4.2805,4.0537,4.1519,4.1339,4.0134,4.0162,4.0414,4.0965,4.0377,4.0451,4.1034,4.0377,4.0414,4.1148,4.1903,4.2345,4.2543,4.324,4.3534,4.3424,4.2066,4.1992,4.3314,4.2727,4.2727,4.3351,4.3424,4.4226,4.5397,4.5073,4.5442,4.6654,4.625,4.6063,4.6422,4.6979,4.7274,4.7383,4.7905,4.8122,4.8196,4.7498,4.7168,4.713,4.6507,4.5856,4.5326,4.4438,4.4116,4.4507,4.4553,4.4553,4.4553,4.4643,4.472,4.4995,4.5177,4.5425,4.5935,4.5571,4.5747,4.6244,4.5446,4.4799,4.4251,4.3473,4.2929,4.2723,4.3306,4.4198,4.4942,4.5774,4.6176,4.5918,4.5178,4.4892,4.4749,4.4678,4.4999,4.5713,4.5891,4.6248,4.6748,4.6998,4.6998,4.7043,4.7088,4.7043,4.6962,4.6731,4.635,4.6055,4.5701,4.5336,4.4995,4.472,4.4643,4.4643,4.4553,4.4553,4.4519,4.4519,4.4181,4.391,4.4316,4.4215,4.46,4.504,4.5039,4.4856,4.4672,4.5223,4.5112,4.4672,4.5223,4.4527,4.3173,4.3059,4.2472,4.1418,4.0895,4.0818,4.1075,4.0818,4.0855,4.1075,4.0818,4.1111,4.1882,4.2684,4.3382,4.3828,4.4158,4.4011,4.3497,4.2873,4.291,4.3314,4.3204,4.3461,4.4121,4.4268,4.4851,4.5764,4.5587,4.603,4.6984,4.6838,4.6948,4.7463,4.6801,4.6433,4.6469,4.6654,4.6985,4.7498,4.7278,4.7352,4.7717,4.7102,4.6449,4.5953,4.5164,4.4687,4.4631,4.4553,4.4553,4.4553,4.4553,4.4643,4.472,4.4906,4.4971,4.4854,4.4921,4.5047,4.5012,4.5012,4.4624,4.3511,4.284,4.2339,4.2124,4.2279,4.279,4.384,4.5022,4.5701,4.5339,4.5213,4.5356,4.5392,4.5356,4.5713,4.632,4.6569,4.6676,4.689,4.6998,4.6998,4.6998,4.6998,4.6998,4.6952,4.6778,4.659,4.6301,4.5854,4.5441,4.5123,4.4886,4.4643,4.4553,4.4553,4.4553,4.4553,4.4553,4.4553,4.4553,4.4553,4.4553,4.5224,4.5517,4.581,4.5736,4.559,4.6067,4.614,4.5993,4.6434,4.5957,4.4858,4.4636,4.4086,4.3137,4.2509,4.2249,4.2213,4.1772,4.1625,4.1846,4.1882,4.2323,4.302,4.3351,4.3754,4.4232,4.4306,4.4121,4.3864,4.3608,4.3754,4.4232,4.4011,4.4305,4.4966,4.5076,4.5478,4.6138,4.6287,4.669,4.7386,4.7497,4.7719,4.8049,4.7241,4.6654,4.6691,4.6691,4.6911,4.7388,4.7278,4.7241,4.7423,4.6948,4.6506,4.6152,4.5501,4.4989,4.4742,4.4643,4.4553,4.4553,4.4553,4.4553,4.4643,4.4776,4.4667,4.4418,4.4387,4.4371,4.4216,4.4488,4.4187,4.2859,4.2195,4.1691,4.1336,4.163,4.2586,4.3935,4.4892,4.5209,4.5125,4.549,4.5713,4.582,4.5998,4.6462,4.6855,4.6998,4.6998,4.6998,4.6998,4.6998,4.6998,4.7033,4.7033,4.7023,4.6952,4.6731,4.6495,4.602,4.5598,4.5336,4.5049,4.472,4.4553,4.4553,4.4553,4.4553,4.4553,4.4553,4.4553,4.4553,4.4553,4.548,4.5112,4.5626,4.57,4.5369,4.6581,4.6654,4.6397,4.7535,4.6947,4.5443,4.6287,4.581,4.4821,4.427,4.4452,4.4048,4.2947,4.2727,4.324,4.3277,4.3718,4.4452,4.3975,4.3828,4.3975,4.3718,4.4048,4.4672,4.4121,4.4415,4.5443,4.5039,4.5112,4.592,4.5957,4.6287,4.6912,4.7095,4.7498,4.8196,4.8233,4.8233,4.8306,4.8196,4.8122,4.8159,4.8196,4.8122,4.8122,4.7572,4.6764,4.636,4.6022,4.5735,4.5784,4.5223,4.4937,4.4966,4.4776,4.4643,4.4553,4.4553,4.4553,4.4587,4.4609,4.4652,4.4647,4.4558,4.4354,4.4113,4.4231,4.3944,4.2952,4.2149,4.1487,4.1209,4.1699,4.3113,4.4733,4.5117,4.5223,4.5478,4.5802,4.5918,4.607,4.6462,4.6855,4.6962,4.6998,4.6998,4.7069,4.7212,4.7319,4.7176,4.7069,4.7105,4.7105,4.7033,4.6906,4.6637,4.6217,4.5768,4.5494,4.494,4.4665,4.4553,4.4553,4.4553,4.4553,4.4553,4.4587,4.4553,4.4553,4.4553,4.6909,4.7205,4.7462,4.7425,4.7241,4.7755,4.7755,4.7609,4.8122,4.7827,4.7167,4.6544,4.5993,4.5333,4.4452,4.3901,4.3864,4.3864,4.3828,4.3534,4.3497,4.3975,4.4635,4.5002,4.5443,4.592,4.5993,4.5773,4.548,4.5223,4.548,4.5736,4.5663,4.5957,4.6691,4.6764,4.7131,4.7829,4.7939,4.8086,4.8306,4.8343,4.8306,4.8306,4.8306,4.8306,4.8306,4.8306,4.8306,4.8306,4.8086,4.7829,4.7571,4.7341,4.7052,4.6677,4.6258,4.5656,4.5214,4.4995,4.4776,4.4643,4.4553,4.4553,4.4553,4.4553,4.4406,4.402,4.383,4.3634,4.3305,4.3457,4.3617,4.3465,4.3139,4.2706,4.2403,4.2501,4.2929,4.3632,4.4396,4.4962,4.5388,4.5868,4.6443,4.6488,4.6819,4.6962,4.6998,4.7069,4.7283,4.764,4.7747,4.7925,4.8068,4.8139,4.8139,4.7925,4.7676,4.7497,4.7122,4.6667,4.6199,4.5683,4.5145,4.4868,4.4778,4.4756,4.4857,4.4756,4.479,4.4722,4.4621,4.4722,4.4925,4.6947,4.7388,4.7425,4.7425,4.7388,4.7425,4.7388,4.7425,4.7425,4.7424,4.7166,4.6323,4.592,4.5625,4.4524,4.3975,4.3975,4.4488,4.4452,4.4085,4.4305,4.4672,4.5149,4.5626,4.614,4.6581,4.6654,4.6397,4.592,4.592,4.6067,4.6287,4.6361,4.6764,4.7498,4.7572,4.7829,4.8269,4.8306,4.8453,4.871,4.8783,4.893,4.9187,4.926,4.9224,4.9224,4.9224,4.893,4.8453,4.8306,4.8306,4.8306,4.8153,4.7875,4.7414,4.6936,4.6376,4.5563,4.523,4.494,4.4665,4.4553,4.4553,4.4553,4.4553,4.4316,4.3978,4.3876,4.3728,4.3537,4.3855,4.4177,4.444,4.3978,4.3777,4.3539,4.3323,4.3407,4.3906,4.4509,4.5053,4.5607,4.6071,4.6637,4.6731,4.6824,4.7037,4.7144,4.7322,4.7843,4.8318,4.8532,4.8817,4.9139,4.921,4.9246,4.8889,4.8496,4.8354,4.8117,4.7483,4.6934,4.6433,4.5909,4.5828,4.5771,4.5669,4.5703,4.5432,4.5263,4.5534,4.5703,4.5635,4.5771,4.5919,4.5883,4.592,4.603,4.603,4.603,4.6067,4.5993,4.5993,4.6067,4.5991,4.581,4.5736,4.5621,4.4744,4.4416,4.4709,4.4672,4.4782,4.4966,4.5443,4.592,4.5993,4.6067,4.625,4.6324,4.6324,4.6214,4.6324,4.6287,4.6397,4.7095,4.7205,4.7498,4.8086,4.8269,4.8233,4.8306,4.8379,4.882,4.9481,4.9627,4.9958,5.0618,5.0618,5.0582,5.0545,5.0508,4.9958,4.871,4.8673,4.871,4.8526,4.8453,4.8297,4.7975,4.7407,4.6753,4.6084,4.5563,4.5123,4.472,4.4609,4.4553,4.4553,4.4553,4.4553,4.4451,4.4451,4.4541,4.4584,4.4898,4.5286,4.556,4.4914,4.4349,4.413,4.406,4.4194,4.4653,4.5123,4.5354,4.5815,4.6182,4.635,4.6491,4.6802,4.7216,4.7616,4.8032,4.8496,4.8948,4.9401,4.9758,5.0079,5.0319,5.0306,5.0102,4.9686,4.9365,4.89,4.815,4.7488,4.6987,4.6699,4.6743,4.6616,4.6413,4.6346,4.6244,4.638,4.6718,4.665,4.6413,4.638,4.6098,4.6135,4.5993,4.5883,4.5883,4.5883,4.5883,4.5883,4.5883,4.592,4.581,4.526,4.5111,4.4957,4.4265,4.4121,4.4635,4.4782,4.5076,4.5663,4.6434,4.6764,4.6801,4.6801,4.7095,4.7535,4.7535,4.7682,4.7682,4.7572,4.7719,4.7976,4.7939,4.8086,4.8306,4.8379,4.8306,4.8416,4.9003,4.9334,4.9664,5.0251,5.0582,5.0765,5.0875,5.0875,5.0839,5.0802,5.0692,5.0251,5.0141,5.0141,4.9994,4.9554,4.9145,4.8831,4.8073,4.7284,4.6472,4.5985,4.5477,4.4906,4.472,4.4553,4.4553,4.4553,4.4553,4.4553,4.4587,4.4699,4.4886,4.5049,4.5389,4.5935,4.5796,4.5523,4.5199,4.5008,4.4844,4.4776,4.494,4.5299,4.5719,4.6145,4.6484,4.6956,4.7364,4.7855,4.8261,4.8643,4.9088,4.9852,5.0378,5.07,5.1034,5.1311,5.1418,5.1343,5.0986,5.0581,4.9755,4.8624,4.7923,4.7227,4.7199,4.7192,4.6955,4.6718,4.6819,4.7124,4.7056,4.7158,4.6921,4.6718,4.6786,4.5342,4.5278,4.5105,4.4998,4.5072,4.5295,4.5406,4.548,4.5773,4.5883,4.5772,4.5441,4.5185,4.5148,4.4745,4.4746,4.5223,4.559,4.5993,4.6471,4.7241,4.7572,4.7609,4.7645,4.7865,4.8233,4.8306,4.8306,4.8269,4.8306,4.8306,4.8269,4.8306,4.8489,4.8857,4.8857,4.904,4.937,4.9884,5.0215,5.0618,5.1059,5.1499,5.172,5.183,5.183,5.183,5.183,5.1536,5.0986,5.0802,5.0802,5.0765,5.0362,5.0065,4.983,4.894,4.8048,4.7319,4.6601,4.5835,4.523,4.4886,4.472,4.4609,4.4553,4.4553,4.4553,4.4553,4.472,4.4995,4.5123,4.5546,4.6005,4.6583,4.6569,4.5939,4.5563,4.523,4.4975,4.5103,4.5439,4.5925,4.6586,4.7124,4.7611,4.8055,4.8529,4.9007,4.9351,4.9848,5.0664,5.1167,5.1382,5.1574,5.173,5.1814,5.1813,5.179,5.1491,5.0758,4.9533,4.8955,4.838,4.7987,4.7665,4.759,4.7623,4.7868,4.8003,4.7733,4.7665,4.7597,4.7394,4.7428,4.4191,4.4257,4.405,4.4022,4.4284,4.4667,4.5038,4.5075,4.559,4.592,4.5882,4.5882,4.5773,4.592,4.5627,4.5883,4.6067,4.6581,4.7021,4.7388,4.7865,4.8196,4.8159,4.8159,4.8233,4.8306,4.8306,4.8416,4.8526,4.8526,4.8563,4.8783,4.8746,4.9003,4.9554,4.9701,5.0105,5.0508,5.0802,5.1169,5.1646,5.1977,5.238,5.2821,5.2931,5.2931,5.3004,5.3004,5.2527,5.1169,5.1059,5.1206,5.1132,5.1059,5.0912,5.0725,4.9976,4.9138,4.847,4.7511,4.6583,4.5979,4.5608,4.5234,4.5184,4.523,4.5162,4.5048,4.4868,4.5239,4.5549,4.5734,4.6066,4.6514,4.7187,4.7131,4.6575,4.6098,4.5736,4.5343,4.566,4.6045,4.6674,4.7434,4.81,4.8242,4.8661,4.9305,4.9764,5.0165,5.0802,5.161,5.1886,5.2042,5.2078,5.2078,5.2126,5.2078,5.2221,5.204,5.1814,5.0951,5.0487,4.9916,4.9114,4.8796,4.87,4.8836,4.8911,4.8748,4.8409,4.8646,4.8849,4.8477,4.8376,4.4804,4.534,4.5072,4.5388,4.5913,4.5941,4.5877,4.5877,4.5919,4.6067,4.5956,4.5919,4.5993,4.5957,4.6067,4.6213,4.6838,4.7131,4.7425,4.8049,4.8159,4.8306,4.8343,4.8343,4.8343,4.8379,4.8343,4.8673,4.915,4.937,4.9627,5.0105,5.0031,5.0325,5.0472,5.0545,5.0582,5.0912,5.1426,5.183,5.2123,5.2637,5.2968,5.3225,5.3225,5.3225,5.3225,5.3225,5.3041,5.2784,5.2601,5.2491,5.2417,5.2013,5.1756,5.1573,5.0945,5.0227,4.9778,4.9072,4.8532,4.7834,4.7335,4.7202,4.7017,4.6691,4.6452,4.6323,4.6473,4.6644,4.69,4.7365,4.7368,4.7421,4.7595,4.7858,4.7771,4.7649,4.7226,4.6948,4.6726,4.6724,4.709,4.7651,4.8231,4.8777,4.938,5.0047,5.0519,5.0941,5.1508,5.2162,5.2304,5.2351,5.2423,5.2495,5.264,5.2795,5.2889,5.2971,5.2748,5.2318,5.1702,5.0924,5.0055,4.9791,4.9479,4.944,4.9317,4.9215,4.912,4.9323,4.9424,4.9255,4.9323,4.5734,4.641,4.6202,4.6345,4.6763,4.6913,4.6928,4.7006,4.72,4.7241,4.7205,4.7168,4.7095,4.7021,4.702,4.7314,4.7571,4.7682,4.7902,4.8233,4.8306,4.8306,4.8453,4.871,4.8893,4.8893,4.893,4.937,4.9958,5.0178,5.0362,5.0765,5.0839,5.0949,5.1316,5.1389,5.161,5.1977,5.2307,5.2564,5.2674,5.2968,5.3225,5.3225,5.3225,5.3225,5.3225,5.3225,5.3225,5.3225,5.3225,5.3225,5.3188,5.2821,5.2601,5.2417,5.1793,5.1229,5.0823,5.0198,4.9549,4.9185,4.8655,4.8295,4.8066,4.7741,4.7493,4.7272,4.741,4.7631,4.7885,4.7885,4.7939,4.8008,4.8196,4.8479,4.8695,4.8522,4.8119,4.7899,4.7795,4.7797,4.807,4.8377,4.9055,4.9851,5.0189,5.0767,5.1321,5.1705,5.197,5.2397,5.2499,5.2581,5.2736,5.2917,5.3281,5.3581,5.4009,5.4109,5.4127,5.3555,5.2929,5.1986,5.0955,5.0195,4.9923,4.9888,4.9949,4.9825,4.9796,4.9898,5.0067,5.0202,5.027,4.6784,4.7503,4.7297,4.7296,4.7492,4.7878,4.8012,4.8161,4.8658,4.8598,4.8641,4.8642,4.8273,4.8309,4.8196,4.8269,4.8269,4.8269,4.8269,4.8306,4.8563,4.8636,4.882,4.941,5.0,4.9961,4.985,5.0291,5.0805,5.1026,5.121,5.1246,5.1242,5.1646,5.2087,5.2197,5.2417,5.2894,5.3004,5.3225,5.3371,5.3482,5.3518,5.3775,5.3812,5.3812,5.3812,5.3775,5.3702,5.3592,5.3592,5.3592,5.3518,5.3261,5.3225,5.3151,5.2491,5.2113,5.184,5.1151,5.0524,4.998,4.959,4.933,4.9062,4.8802,4.8537,4.8344,4.8398,4.8502,4.8574,4.8657,4.8568,4.8459,4.8945,4.9243,4.9482,4.9135,4.8943,4.8765,4.8931,4.9041,4.9136,4.9366,5.014,5.0822,5.1087,5.1485,5.1982,5.2315,5.248,5.2717,5.2926,5.3481,5.3663,5.3872,5.4164,5.4346,5.4838,5.4948,5.504,5.447,5.3688,5.2743,5.1828,5.1242,5.0838,5.0918,5.0878,5.0595,5.0473,5.0574,5.0845,5.1183,5.115,4.7689,4.8461,4.838,4.8692,4.923,4.9183,4.909,4.9096,4.908,4.9023,4.8925,4.8753,4.8679,4.8532,4.8382,4.8306,4.8344,4.8382,4.8381,4.8565,4.9007,4.9338,4.9595,5.0407,5.1148,5.148,5.1219,5.1256,5.1811,5.1952,5.2213,5.2769,5.2757,5.2821,5.2821,5.3004,5.3004,5.3298,5.3371,5.3592,5.4069,5.4216,5.4436,5.4876,5.4913,5.495,5.506,5.5133,5.5207,5.5207,5.517,5.5133,5.4803,5.3922,5.3445,5.3371,5.3261,5.3109,5.2956,5.2638,5.2316,5.2055,5.161,5.1272,5.1022,5.0541,5.0031,4.9766,4.9748,4.9941,5.0647,5.0152,5.0076,5.0035,4.9833,4.9951,5.0305,5.0453,5.0435,5.0154,5.0185,5.0125,5.0105,5.0175,5.0573,5.1105,5.1414,5.1992,5.2614,5.2717,5.2763,5.3072,5.3381,5.4118,5.4775,5.5029,5.5221,5.5131,5.5395,5.544,5.5377,5.4989,5.4278,5.3584,5.3122,5.2815,5.252,5.226,5.1905,5.1589,5.1439,5.1285,5.1654,5.1956,5.1623,4.8548,4.9284,4.9294,4.9484,4.9797,4.9655,4.9596,4.9566,4.9476,4.9315,4.9193,4.9071,4.8932,4.8787,4.8678,4.8605,4.8605,4.8605,4.8827,4.927,4.9677,5.0157,5.0526,5.1449,5.2008,5.2418,5.2419,5.2528,5.3047,5.3006,5.3151,5.3293,5.3396,5.3314,5.3188,5.3188,5.3482,5.3665,5.3849,5.4216,5.4913,5.5023,5.528,5.5464,5.5611,5.5611,5.5611,5.5611,5.5574,5.5574,5.5574,5.5611,5.5354,5.5023,5.4436,5.4399,5.4399,5.4399,5.4436,5.4305,5.4224,5.4062,5.3453,5.2918,5.2497,5.1865,5.1241,5.0941,5.0835,5.1028,5.1398,5.107,5.0857,5.0749,5.053,5.0564,5.0784,5.1263,5.1438,5.1473,5.1331,5.1157,5.0929,5.1017,5.1121,5.1414,5.1799,5.2473,5.3263,5.3381,5.3462,5.3908,5.4326,5.4619,5.5277,5.555,5.5794,5.5778,5.577,5.577,5.5688,5.5312,5.5062,5.4617,5.4353,5.4065,5.3863,5.3506,5.3088,5.2681,5.2603,5.2584,5.266,5.2663,5.2225,4.9322,4.9879,4.9879,4.9879,4.9879,4.9862,4.9835,4.9807,4.9778,4.9625,4.9476,4.9352,4.923,4.9064,4.8996,4.8996,4.9145,4.9257,4.9666,5.0335,5.0708,5.1117,5.1676,5.2457,5.3051,5.3196,5.3596,5.3975,5.3795,5.3758,5.3682,5.3678,5.36,5.344,5.3314,5.3487,5.3849,5.4216,5.462,5.506,5.5647,5.5978,5.6051,5.6088,5.6051,5.6161,5.6271,5.6271,5.6271,5.6198,5.6014,5.5868,5.5831,5.5831,5.5831,5.5831,5.5721,5.5611,5.5537,5.55,5.5273,5.5236,5.4692,5.4209,5.3686,5.2954,5.2108,5.1872,5.1556,5.1485,5.1571,5.1331,5.1123,5.1193,5.1158,5.1299,5.1547,5.1967,5.2573,5.2601,5.2413,5.2279,5.2151,5.2014,5.2222,5.2866,5.3267,5.3588,5.4282,5.4452,5.4598,5.5045,5.5346,5.531,5.564,5.586,5.5941,5.5896,5.5896,5.5896,5.5806,5.5679,5.5405,5.501,5.5064,5.4763,5.4704,5.4455,5.3746,5.3369,5.3652,5.3507,5.2991,5.2769,5.2575,4.9803,4.9879,4.9879,4.9879,4.9879,4.9879,4.9879,4.9879,4.9852,4.9862,4.9712,4.9566,4.9452,4.9407,4.9225,4.9566,5.0052,5.0314,5.0688,5.1435,5.2034,5.2407,5.2748,5.3684,5.3904,5.3965,5.4339,5.442,5.4262,5.4088,5.4054,5.4017,5.3757,5.3561,5.3699,5.3939,5.4289,5.4509,5.5133,5.5868,5.6638,5.7262,5.7519,5.7556,5.7556,5.7483,5.7373,5.7336,5.7373,5.7446,5.6932,5.6675,5.6675,5.6675,5.6675,5.6455,5.6051,5.5611,5.5757,5.5868,5.5868,5.586,5.5359,5.5113,5.46,5.3881,5.3109,5.3073,5.2359,5.1922,5.1993,5.1663,5.1489,5.1825,5.2268,5.2429,5.2676,5.3039,5.359,5.3857,5.3725,5.3652,5.352,5.3351,5.3387,5.4098,5.4745,5.493,5.5221,5.5383,5.5207,5.5464,5.5611,5.5611,5.5611,5.5868,5.5904,5.5904,5.5794,5.5757,5.5493,5.5257,5.5367,5.5122,5.5229,5.4991,5.4539,5.4235,5.394,5.3863,5.3822,5.3381,5.2823,5.2726,5.2831,4.9879,4.9879,4.9879,4.9879,4.9879,4.9879,4.9879,4.9879,4.9879,4.9879,4.9824,4.9712,4.986,5.0146,5.0139,5.0628,5.1243,5.1431,5.1845,5.2484,5.3015,5.3391,5.3842,5.4296,5.4514,5.4608,5.4685,5.4716,5.4597,5.4505,5.4405,5.4268,5.4091,5.4092,5.4269,5.4469,5.508,5.5728,5.6528,5.7116,5.7483,5.7776,5.7997,5.7997,5.7997,5.7997,5.796,5.7483,5.7629,5.7703,5.7262,5.7079,5.7336,5.7483,5.7483,5.7446,5.7189,5.7005,5.6969,5.6932,5.6859,5.6748,5.6438,5.5871,5.5285,5.464,5.4182,5.4182,5.3612,5.3247,5.3125,5.2993,5.308,5.3238,5.3361,5.3692,5.3922,5.4265,5.4641,5.4858,5.4989,5.4687,5.4506,5.448,5.4397,5.4875,5.5304,5.5432,5.5815,5.6226,5.5941,5.5537,5.5611,5.5611,5.5611,5.5684,5.5647,5.5574,5.5097,5.5023,5.4803,5.4686,5.5016,5.4979,5.4773,5.451,5.4277,5.4254,5.4209,5.4041,5.3832,5.3299,5.2886,5.3036,5.2939,5.035,5.054,5.0096,4.9879,4.9879,4.9879,4.9879,4.9879,4.9879,5.0031,5.0258,5.042,5.0818,5.1177,5.1328,5.1714,5.2507,5.2545,5.3074,5.3527,5.383,5.417,5.451,5.4736,5.4736,5.4829,5.4784,5.5004,5.5163,5.5139,5.5018,5.4735,5.4712,5.4912,5.5208,5.5525,5.6018,5.6932,5.7519,5.785,5.7923,5.7923,5.8143,5.818,5.8143,5.807,5.8143,5.7593,5.7593,5.7703,5.7262,5.7152,5.774,5.785,5.807,5.8253,5.84,5.8621,5.84,5.818,5.807,5.7813,5.7556,5.6804,5.6191,5.5629,5.5305,5.5268,5.4665,5.4431,5.4403,5.4128,5.402,5.4158,5.446,5.4769,5.5075,5.5172,5.516,5.5135,5.5245,5.5338,5.5239,5.5386,5.5514,5.5786,5.5941,5.5941,5.6161,5.6492,5.6014,5.5354,5.5244,5.5133,5.4876,5.4987,5.5097,5.539,5.495,5.4766,5.484,5.4913,5.5126,5.495,5.4693,5.4752,5.493,5.4709,5.4411,5.3869,5.3435,5.3354,5.3171,5.3282,5.2905,5.1608,5.227,5.0605,4.9944,4.9944,4.9879,4.9879,5.0031,4.9955,5.041,5.1168,5.1754,5.203,5.2276,5.237,5.2748,5.3564,5.3564,5.4019,5.4473,5.4814,5.4739,5.486,5.486,5.4928,5.5004,5.511,5.5489,5.5906,5.6064,5.6002,5.5901,5.5739,5.6058,5.6444,5.6766,5.71,5.7729,5.8006,5.8116,5.8153,5.8226,5.8483,5.8841,5.851,5.8327,5.9024,5.8364,5.807,5.8253,5.7593,5.7556,5.8253,5.8364,5.8657,5.9098,5.9575,5.9795,5.9685,5.8951,5.818,5.8033,5.785,5.7629,5.7098,5.6619,5.6379,5.615,5.5595,5.5135,5.4806,5.4475,5.4619,5.4792,5.5085,5.522,5.5438,5.5595,5.5571,5.5469,5.5473,5.5447,5.5395,5.5423,5.5668,5.5868,5.5757,5.5757,5.5721,5.5904,5.5464,5.5023,5.484,5.4509,5.3849,5.4179,5.5354,5.5721,5.55,5.539,5.539,5.5464,5.539,5.5611,5.55,5.55,5.55,5.5313,5.4857,5.3624,5.3207,5.3639,5.3446,5.3268,5.2659,5.1537,5.1725,5.0617,5.0416,5.0772,5.0161,5.0182,5.0637,5.0713,5.1168,5.1964,5.2295,5.2712,5.3072,5.3232,5.3648,5.4389,5.4427,5.4655,5.4769,5.492,5.492,5.492,5.4996,5.5148,5.5564,5.5724,5.6102,5.6853,5.6929,5.7346,5.7321,5.7035,5.7133,5.7564,5.7856,5.8079,5.8164,5.826,5.8371,5.8969,5.9132,5.9419,5.9795,5.9946,5.9752,5.9842,5.9171,5.9134,5.9098,5.8584,5.8841,5.9245,5.9355,5.9612,5.9942,6.0419,6.0529,6.0493,5.9795,5.9318,5.8657,5.829,5.785,5.7629,5.7281,5.7015,5.6776,5.6598,5.6297,5.6394,5.5835,5.5496,5.5522,5.562,5.5716,5.58,5.5993,5.5836,5.5607,5.5461,5.5414,5.5386,5.535,5.5632,5.5868,5.5721,5.5611,5.5721,5.5831,5.5611,5.5574,5.55,5.5537,5.5023,5.5427,5.5941,5.6014,5.6088,5.6088,5.6051,5.5611,5.5611,5.5978,5.6345,5.6345,5.6271,5.6088,5.5456,5.4532,5.4342,5.461,5.4143,5.352,5.3082,5.1764,5.2158,5.1382,5.1223,5.1345,5.071,5.0859,5.1527,5.163,5.2068,5.2798,5.3054,5.35,5.3993,5.4192,5.4363,5.4848,5.4895,5.4874,5.495,5.492,5.492,5.4958,5.5223,5.567,5.6171,5.6564,5.698,5.7763,5.7763,5.8256,5.8527,5.8457,5.8476,5.8533,5.8687,5.8693,5.8745,5.8597,5.8894,5.9566,5.9504,5.9727,5.9964,5.9862,5.9891,5.9789,5.9402,5.9391,5.9612,5.9685,5.9979,6.0419,6.0786,6.0896,6.1006,6.1117,6.108,6.1043,6.0529,6.0199,5.9575,5.8841,5.8217,5.7813,5.785,5.7547,5.7327,5.7481,5.7679,5.7631,5.6843,5.6539,5.66,5.6273,5.6285,5.6306,5.64,5.6061,5.5749,5.566,5.5696,5.6054,5.6008,5.5998,5.6235,5.6161,5.6161,5.6271,5.6381,5.6455,5.6492,5.6602,5.6675,5.6785,5.6675,5.6602,5.6969,5.7005,5.6895,5.6712,5.6345,5.6345,5.6859,5.7152,5.7152,5.7079,5.6969,5.6381,5.5647,5.553,5.533,5.493,5.4386,5.4351,5.2536,5.4058,5.308,5.2286,5.1797,5.1582,5.1967,5.2563,5.2677,5.3052,5.3765,5.4476,5.4836,5.4977,5.4969,5.5057,5.5037,5.5085,5.5104,5.5131,5.5148,5.5034,5.5367,5.5784,5.6353,5.6436,5.7018,5.7851,5.8672,5.8635,5.9127,5.9506,5.9506,5.9521,5.9647,5.929,5.9358,5.9673,5.9119,5.9301,5.9636,5.9499,5.9756,5.9955,5.9634,5.9701,5.9862,5.9706,5.9612,5.9648,6.0089,6.0493,6.1043,6.119,6.152,6.2108,6.2328,6.2511,6.2585,6.1263,6.0639,6.0346,5.9648,5.9061,5.8877,5.8584,5.7997,5.7776,5.7877,5.7857,5.7679,5.7546,5.7437,5.7218,5.6903,5.6794,5.6812,5.6603,5.6264,5.5915,5.603,5.6188,5.6645,5.6859,5.6667,5.6602,5.6602,5.6675,5.6822,5.6748,5.6822,5.7262,5.7446,5.7629,5.7629,5.7299,5.7299,5.7703,5.7886,5.774,5.774,5.7666,5.774,5.796,5.7776,5.7593,5.774,5.7886,5.7189,5.6492,5.6088,5.586,5.5496,5.5395,5.5556,5.2856,5.3414,5.3157,5.3255,5.3382,5.2709,5.2881,5.3595,5.4104,5.4482,5.4666,5.5107,5.5236,5.5262,5.5288,5.5288,5.521,5.514,5.5209,5.5826,5.5776,5.6171,5.6505,5.6763,5.7256,5.7763,5.8267,5.8684,5.9506,5.9393,5.9544,5.9847,5.9923,6.0127,6.0106,5.9815,5.9628,6.0038,5.9664,5.9514,6.0149,6.019,6.0265,6.0692,6.0231,6.0098,6.0226,5.9872,5.9842,5.9832,6.0272,6.0566,6.086,6.0896,6.1006,6.141,6.1594,6.2291,6.2585,6.2144,6.1777,6.1153,6.0493,5.9795,5.9281,5.9024,5.8584,5.8217,5.8217,5.8087,5.7867,5.7857,5.7711,5.7235,5.6969,5.7078,5.7107,5.6841,5.6539,5.6191,5.6088,5.6546,5.6978,5.7684,5.762,5.7409,5.7409,5.7446,5.7556,5.7152,5.7005,5.7776,5.818,5.8437,5.8474,5.8217,5.8107,5.8437,5.8547,5.8474,5.8547,5.8584,5.8437,5.829,5.8107,5.7997,5.8033,5.7997,5.7813,5.7373,5.7189,5.6969,5.6768,5.6868,5.7161,5.2778,5.3114,5.3503,5.4122,5.4682,5.382,5.3843,5.456,5.5084,5.5275,5.5183,5.5326,5.5402,5.5364,5.5427,5.5427,5.5377,5.567,5.5673,5.6473,5.6662,5.6877,5.7294,5.7749,5.8053,5.8672,5.9089,5.9468,5.9809,5.9885,5.9885,5.9885,5.9923,6.0274,6.0365,6.0144,5.9886,6.019,6.0002,5.9814,6.034,6.0527,6.0489,6.0528,6.0407,6.0278,6.0172,6.0129,6.0073,6.01,6.0199,6.0346,6.0382,6.0419,6.0419,6.0603,6.086,6.1484,6.1704,6.2218,6.1777,6.152,6.1043,6.0603,6.0052,5.9869,5.9465,5.9098,5.8804,5.8584,5.8437,5.84,5.8107,5.7666,5.774,5.785,5.7629,5.7363,5.7354,5.7015,5.6978,5.7253,5.7556,5.8143,5.8657,5.8437,5.8253,5.8217,5.8217,5.7886,5.7519,5.807,5.8731,5.9024,5.9171,5.9171,5.9134,5.9208,5.9061,5.8877,5.8877,5.8804,5.8694,5.8657,5.8694,5.8584,5.8217,5.807,5.829,5.8547,5.8694,5.8437,5.8107,5.8107,5.8217,5.2472,5.3332,5.4161,5.4951,5.5472,5.4797,5.4885,5.5446,5.5364,5.5352,5.5288,5.5437,5.5485,5.5508,5.5638,5.5692,5.5753,5.6381,5.669,5.6872,5.7434,5.762,5.7977,5.8432,5.8742,5.9046,5.9355,5.9696,5.9885,5.995,5.995,5.995,5.995,6.0297,6.0383,6.0278,6.0214,6.0443,6.0179,6.0103,6.0405,6.0214,6.0062,5.9962,5.9703,5.9474,5.9384,5.9393,5.9382,5.9532,5.9879,6.0162,6.0346,6.0382,6.0419,6.0493,6.0603,6.075,6.097,6.1594,6.152,6.1374,6.1374,6.1447,6.1374,6.086,6.0382,6.0199,5.9979,5.9575,5.9281,5.9061,5.8841,5.8767,5.8804,5.8657,5.8327,5.8253,5.84,5.8354,5.839,5.8584,5.8841,5.9318,5.8767,5.8731,5.8437,5.8437,5.851,5.8914,5.8584,5.84,5.9024,5.9501,5.9648,5.9501,5.9648,5.9575,5.9171,5.8988,5.9024,5.9245,5.9391,5.9465,5.9428,5.9245,5.9024,5.9024,5.9171,5.9428,5.9612,5.9428,5.8988,5.8694,5.8657,5.3358,5.4182,5.5011,5.5511,5.5626,5.5434,5.5407,5.5485,5.5531,5.5547,5.5427,5.5593,5.5638,5.566,5.5682,5.6066,5.6406,5.6875,5.757,5.8012,5.8397,5.8791,5.9077,5.9349,5.9539,5.9614,5.9766,5.995,5.995,5.9982,6.0099,6.015,6.0068,6.0266,6.0241,6.0069,6.0459,6.0615,6.0198,6.0198,6.0274,6.0122,5.9971,5.9908,5.9658,5.9403,5.9363,5.9201,5.9096,5.8866,5.9448,5.9771,5.9575,6.0089,6.0529,6.1227,6.1263,6.13,6.13,6.1447,6.141,6.108,6.0933,6.1557,6.1777,6.1704,6.1153,6.097,6.0713,6.0199,5.9795,5.9538,5.9061,5.8694,5.8914,5.9134,5.8804,5.8731,5.8841,5.8657,5.8731,5.8621,5.9024,5.8877,5.84,5.8547,5.8657,5.8657,5.8731,5.9134,5.9208,5.8951,5.9134,5.9575,5.9538,5.9391,5.9685,5.9832,5.9538,5.9465,5.9869,6.0089,6.0199,6.0199,6.0162,6.0052,5.9942,5.9979,6.0052,6.0089,6.0199,6.0052,5.9869,5.9575,5.9391,5.4051,5.4587,5.5357,5.5703,5.5703,5.5703,5.566,5.5615,5.5682,5.5638,5.5631,5.566,5.5703,5.578,5.6088,5.6511,5.6973,5.7789,5.8462,5.8807,5.9425,5.9663,5.9962,6.0013,5.9975,6.0013,6.0,6.0121,6.0099,6.0129,6.0208,6.0265,6.0217,6.0217,6.0159,6.0175,6.0317,6.0405,6.0302,6.0151,6.0226,6.0411,6.053,6.0648,6.0365,6.0035,5.9853,5.955,5.9313,5.9133,5.9789,6.0018,5.9863,6.0294,6.0456,6.1006,6.1006,6.097,6.1006,6.141,6.1227,6.108,6.108,6.1851,6.1887,6.1667,6.1484,6.13,6.1006,6.0676,6.0309,5.9905,5.9024,5.8217,5.8804,5.9428,5.9281,5.9098,5.8877,5.8657,5.84,5.8143,5.807,5.7997,5.818,5.8657,5.8988,5.9171,5.9098,5.9171,5.9171,5.8988,5.9208,5.9538,5.9501,5.9685,6.0015,6.0272,6.0126,6.0199,6.0639,6.0896,6.097,6.0933,6.0896,6.075,6.0566,6.0786,6.086,6.0896,6.108,6.1263,6.1006,6.0456,6.0309,5.4511,5.4682,5.5395,5.5703,5.5703,5.5703,5.5703,5.5703,5.5703,5.5703,5.5703,5.5703,5.5703,5.5818,5.6434,5.6934,5.7627,5.8489,5.9149,5.9434,6.0035,6.0321,6.015,6.0197,6.0205,6.0188,6.0199,6.0255,6.0321,6.0321,6.036,6.0321,6.0321,6.036,6.0332,6.0237,6.0425,6.0684,6.0615,6.0545,6.0936,6.1278,6.1548,6.2041,6.1599,6.1042,6.0864,6.0717,6.0528,6.0513,6.0673,6.0981,6.0997,6.093,6.086,6.0896,6.1153,6.1006,6.108,6.1337,6.141,6.1594,6.2144,6.2071,6.1667,6.1814,6.1777,6.1557,6.1227,6.0603,6.0162,5.9832,5.9134,5.8474,5.851,5.8767,5.8657,5.8584,5.8584,5.8364,5.8217,5.8033,5.84,5.8474,5.8804,5.9098,5.9391,5.9648,5.9758,5.9685,5.9575,5.9391,5.9575,5.9942,6.0346,6.0529,6.0639,6.0713,6.075,6.1006,6.1557,6.1704,6.1704,6.1704,6.1667,6.1374,6.1227,6.1484,6.1704,6.1741,6.2034,6.2548,6.2254,6.1447,6.13,5.4857,5.5434,5.5626,5.5703,5.5703,5.5703,5.5703,5.5703,5.5703,5.5703,5.5703,5.5703,5.5742,5.5934,5.6742,5.7357,5.8204,5.9088,5.9763,6.0098,6.0546,6.0533,6.0304,6.0313,6.0285,6.0265,6.0338,6.0418,6.0494,6.052,6.0585,6.066,6.061,6.0494,6.0533,6.048,6.0714,6.1124,6.14,6.137,6.1675,6.204,6.2395,6.2547,6.2216,6.2117,6.1978,6.1978,6.173,6.1581,6.2021,6.2234,6.2328,6.223,6.2218,6.2218,6.2034,6.1741,6.152,6.152,6.1484,6.1043,6.1117,6.1006,6.1153,6.1814,6.2034,6.1741,6.1337,6.0639,6.0126,5.9795,5.9391,5.8804,5.8327,5.8253,5.8143,5.8253,5.8327,5.8253,5.8107,5.8364,5.8804,5.9098,5.9391,5.9722,6.0015,6.0272,6.0603,6.0639,6.0639,6.0456,6.0236,6.0529,6.1043,6.1374,6.1447,6.1741,6.1924,6.2181,6.2438,6.2365,6.2254,6.2438,6.2438,6.2071,6.1961,6.2328,6.2511,6.2438,6.2475,6.2768,6.2805,6.2218,6.2254,5.528,5.5665,5.5703,5.5703,5.5703,5.5703,5.5703,5.5703,5.5703,5.5703,5.5703,5.5703,5.5895,5.6357,5.7203,5.8011,5.8858,5.9704,6.0219,6.057,6.0635,6.0585,6.0506,6.0453,6.048,6.0468,6.0508,6.0584,6.066,6.0685,6.0748,6.0796,6.0685,6.0699,6.0737,6.0891,6.1287,6.1812,6.2383,6.2738,6.2815,6.3159,6.3473,6.355,6.3442,6.3264,6.3117,6.3117,6.2981,6.2785,6.3006,6.2822,6.2781,6.2658,6.2732,6.2732,6.2658,6.2622,6.2254,6.1998,6.1851,6.1484,6.141,6.1851,6.1924,6.2438,6.2144,6.1887,6.163,6.1006,6.0933,6.0676,6.0236,5.9722,5.9501,5.9391,5.9355,5.9391,5.9465,5.9428,5.9355,5.9428,5.9722,5.9758,6.0126,6.0676,6.0933,6.1227,6.1447,6.1484,6.152,6.1484,6.1227,6.1374,6.1961,6.2181,6.2254,6.2585,6.2805,6.2732,6.2622,6.2732,6.2805,6.2768,6.2768,6.2695,6.2732,6.2805,6.2805,6.2658,6.2695,6.2805,6.2805,6.2805,6.2732,5.5665,5.5703,5.5703,5.5703,5.5703,5.5703,5.5703,5.5703,5.5818,5.5895,5.5972,5.6088,5.6489,5.7066,5.8066,5.8819,5.9511,6.0204,6.0666,6.0781,6.0757,6.071,6.0685,6.0685,6.066,6.066,6.071,6.0734,6.0757,6.0757,6.0757,6.0781,6.0819,6.0858,6.1166,6.1627,6.2142,6.2784,6.3489,6.4334,6.4446,6.4479,6.4649,6.4703,6.4665,6.4245,6.4176,6.4146,6.4146,6.3938,6.3764,6.3363,6.3036,6.2904,6.2805,6.2805,6.2805,6.2768,6.2695,6.2622,6.2658,6.2695,6.2805,6.2805,6.2732,6.2585,6.2291,6.2108,6.1851,6.152,6.1447,6.1227,6.0786,6.0529,6.0419,6.0346,6.0346,6.0346,6.0346,6.0346,6.0346,6.0346,6.0529,6.0566,6.0933,6.1484,6.1887,6.2254,6.2438,6.2291,6.2218,6.2254,6.2144,6.2438,6.2732,6.2695,6.2622,6.2695,6.2805,6.2805,6.2805,6.2805,6.2805,6.2805,6.2805,6.2879,6.2842,6.2805,6.2805,6.2952,6.2805,6.2805,6.2805,6.2805,6.2805,5.5703,5.5703,5.5703,5.5703,5.5703,5.5703,5.5703,5.5818,5.6472,5.6763,5.6917,5.7434,5.7643,5.7082,5.8642,5.9473,5.9742,6.0473,6.0704,6.0781,6.0781,6.0757,6.0757,6.0757,6.0796,6.0796,6.0757,6.0781,6.0781,6.0781,6.0819,6.0896,6.0858,6.1166,6.1858,6.232,6.2858,6.3603,6.4257,6.491,6.5397,6.5394,6.5388,6.5398,6.5398,6.5235,6.5176,6.5264,6.5206,6.4927,6.4369,6.3892,6.3408,6.3062,6.2904,6.2855,6.2855,6.2805,6.2805,6.2805,6.2805,6.2805,6.2805,6.2805,6.2805,6.2768,6.2585,6.2475,6.2108,6.1484,6.1263,6.108,6.0713,6.0713,6.0676,6.0639,6.0639,6.0676,6.0676,6.0676,6.0676,6.0933,6.1374,6.1447,6.1667,6.2144,6.2401,6.2695,6.2695,6.2768,6.2842,6.2952,6.2989,6.2805,6.2805,6.2768,6.2768,6.2805,6.2989,6.3282,6.3282,6.2842,6.2842,6.3319,6.3172,6.3099,6.3025,6.3356,6.3172,6.3282,6.2952,6.2805,6.2879,6.3099,6.3356]},{"header":{"parameterUnit":"m.s-1","parameterCategory":1,"la1":31.0,"la2":29.5877,"lo1":-88.7671,"lo2":-86.6584,"dy":0.0162,"dx":0.0185,"nx":115,"ny":88,"refTime":"2026-03-16T12:00:00:Z","depth":0,"parameterNumber":3,"parameterNumberName":"V-component_of_WINDS"},"data":[0.0,0.0,0.0,0.0,0.0,0.0,0.0,0.0,0.0,0.0,0.0,0.0,0.0,0.0,0.0,0.0,0.0,0.0,0.0,0.0,0.0,0.0,0.0,0.0,0.0,0.0,0.0,0.0,0.0,0.0,0.0,0.0,0.0,0.0,0.0,0.0,0.0,0.0,0.0,0.0,0.0,0.0,0.0,0.0,0.0,0.0,0.0,0.0,0.0,0.0,0.0,0.0,0.0,0.0,0.0,0.0,0.0,0.0,0.0,0.0,0.0,0.0,0.0,0.0,0.0,0.0,0.0,0.0,0.0,0.0,0.0,0.0,0.0,0.0,0.0,0.0,0.0,0.0,0.0,0.0,0.0,0.0,0.0,0.0,0.0,0.0,0.0,0.0,0.0,0.0,0.0,0.0,0.0,0.0,0.0,0.0,0.0,0.0,0.0,0.0,0.0,0.0,0.0,0.0,0.0,0.0,0.0,0.0,0.0,0.0,0.0,0.0,0.0,0.0,0.0,0.0,0.0,0.0,0.0,0.0,0.0,0.0,0.0,0.0,0.0,0.0,0.0,0.0,0.0,0.0,0.0,0.0,0.0,0.0,0.0,0.0,0.0,0.0,0.0,0.0,0.0,0.0,0.0,0.0,0.0,0.0,0.0,0.0,0.0,0.0,0.0,0.0,0.0,0.0,0.0,0.0,0.0,0.0,0.0,0.0,0.0,0.0,0.0,0.0,0.0,0.0,0.0,0.0,0.0,0.0,0.0,0.0,0.0,0.0,0.0,0.0,0.0,0.0,0.0,0.0,0.0,0.0,0.0,0.0,0.0,0.0,0.0,0.0,0.0,0.0,0.0,0.0,0.0,0.0,0.0,0.0,0.0,0.0,0.0,0.0,0.0,0.0,0.0,0.0,0.0,0.0,0.0,0.0,0.0,0.0,0.0,0.0,0.0,0.0,0.0,0.0,0.0,0.0,0.0,0.0,0.0,0.0,0.0,0.0,0.0,0.0,0.0,0.0,0.0,0.0,0.0,0.0,0.0,0.0,0.0,0.0,0.0,0.0,0.0,0.0,0.0,0.0,0.0,0.0,0.0,0.0,0.0,0.0,0.0,0.0,0.0,0.0,0.0,0.0,0.0,0.0,0.0,0.0,0.0,0.0,0.0,0.0,0.0,0.0,0.0,0.0,0.0,0.0,0.0,0.0,0.0,0.0,0.0,0.0,0.0,0.0,0.0,0.0,0.0,0.0,0.0,0.0,0.0,0.0,0.0,0.0,0.0,0.0,0.0,0.0,0.0,0.0,0.0,0.0,0.0,0.0,0.0,0.0,0.0,0.0,0.0,0.0,0.0,0.0,0.0,0.0,0.0,0.0,0.0,0.0,0.0,0.0,0.0,0.0,0.0,0.0,0.0,0.0,0.0,0.0,0.0,0.0,0.0,0.0,0.0,0.0,0.0,0.0,0.0,0.0,0.0,0.0,0.0,0.0,0.0,0.0,0.0,0.0,0.0,0.0,0.0,0.0,0.0,0.0,0.0,0.0,0.0,0.0,0.0,0.0,0.0,0.0,0.0,0.0,0.0,0.0,0.0,0.0,0.0,0.0,0.0,0.0,0.0,0.0,0.0,0.0,0.0,0.0,0.0,0.0,0.0,0.0,0.0,0.0,0.0,0.0,0.0,0.0,0.0,0.0,0.0,0.0,0.0,0.0,0.0,0.0,0.0,0.0,0.0,0.0,0.0,0.0,0.0,0.0,0.0,0.0,0.0,0.0,0.0,0.0,0.0,0.0,0.0,0.0,0.0,0.0,0.0,0.0,0.0,0.0,0.0,0.0,0.0,0.0,0.0,0.0,0.0,0.0,0.0,0.0,0.0,0.0,0.0,0.0,0.0,0.0,0.0,0.0,0.0,0.0,0.0,0.0,0.0,0.0,0.0,0.0,0.0,0.0,0.0,0.0,0.0,0.0,0.0,0.0,0.0,0.0,0.0,0.0,0.0,0.0,0.0,0.0,0.0,0.0,0.0,0.0,0.0,0.0,0.0,0.0,0.0,0.0,0.0,0.0,0.0,0.0,0.0,0.0,0.0,0.0,0.0,0.0,0.0,0.0,0.0,0.0,0.0,0.0,0.0,0.0,0.0,0.0,0.0,0.0,0.0,0.0,0.0,0.0,0.0,0.0,0.0,0.0,0.0,0.0,0.0,0.0,0.0,0.0,0.0,0.0,0.0,0.0,0.0,0.0,0.0,0.0,0.0,0.0,0.0,0.0,0.0,0.0,0.0,0.0,0.0,0.0,0.0,0.0,0.0,0.0,0.0,0.0,0.0,0.0,0.0,0.0,0.0,0.0,0.0,0.0,0.0,0.0,0.0,0.0,0.0,0.0,0.0,0.0,0.0,0.0,0.0,0.0,0.0,0.0,0.0,0.0,0.0,0.0,0.0,0.0,0.0,0.0,0.0,0.0,0.0,0.0,0.0,0.0,0.0,0.0,0.0,0.0,0.0,0.0,0.0,0.0,0.0,0.0,0.0,0.0,0.0,0.0,0.0,0.0,0.0,0.0,0.0,0.0,0.0,0.0,0.0,0.0,0.0,0.0,0.0,0.0,0.0,0.0,0.0,0.0,0.0,0.0,0.0,0.0,0.0,0.0,0.0,0.0,0.0,0.0,0.0,0.0,0.0,0.0,0.0,0.0,0.0,0.0,0.0,0.0,0.0,0.0,0.0,0.0,0.0,0.0,0.0,0.0,0.0,0.0,0.0,0.0,0.0,0.0,0.0,0.0,0.0,0.0,0.0,0.0,0.0,0.0,0.0,0.0,0.0,0.0,0.0,0.0,0.0,0.0,0.0,0.0,0.0,0.0,0.0,0.0,0.0,0.0,0.0,0.0,0.0,0.0,0.0,0.0,0.0,0.0,0.0,0.0,0.0,0.0,0.0,0.0,0.0,0.0,0.0,0.0,0.0,0.0,0.0,0.0,0.0,0.0,0.0,0.0,0.0,0.0,0.0,0.0,0.0,0.0,0.0,0.0,0.0,0.0,0.0,0.0,0.0,0.0,0.0,0.0,0.0,0.0,0.0,0.0,0.0,0.0,0.0,0.0,0.0,0.0,0.0,0.0,0.0,0.0,0.0,0.0,0.0,0.0,0.0,0.0,0.0,0.0,0.0,0.0,0.0,0.0,0.0,0.0,0.0,0.0,0.0,0.0,0.0,0.0,0.0,0.0,0.0,0.0,0.0,0.0,0.0,0.0,0.0,0.0,0.0,0.0,0.0,0.0,0.0,0.0,0.0,0.0,0.0,0.0,0.0,0.0,0.0,0.0,0.0,0.0,0.0,0.0,0.0,0.0,0.0,0.0,0.0,0.0,0.0,0.0,0.0,0.0,0.0,0.0,0.0,0.0,0.0,0.0,0.0,0.0,0.0,0.0,0.0,0.0,0.0,0.0,0.0,0.0,0.0,0.0,0.0,0.0,0.0,0.0,0.0,0.0,0.0,0.0,0.0,0.0,0.0,0.0,0.0,0.0,0.0,0.0,0.0,0.0,0.0,0.0,0.0,0.0,0.0,0.0,0.0,0.0,0.0,0.0,0.0,0.0,0.0,0.0,0.0,0.0,0.0,0.0,0.0,0.0,0.0,0.0,0.0,0.0,0.0,0.0,0.0,0.0,0.0,0.0,0.0,0.0,0.0,0.0,0.0,0.0,0.0,0.0,0.0,0.0,0.0,0.0,0.0,0.0,0.0,0.0,0.0,0.0,0.0,0.0,0.0,0.0,0.0,0.0,0.0,0.0,0.0,0.0,0.0,0.0,0.0,0.0,0.0,0.0,0.0,0.0,0.0,0.0,0.0,0.0,0.0,0.0,0.0,0.0,0.0,0.0,0.0,0.0,0.0,0.0,0.0,0.0,0.0,0.0,0.0,0.0,0.0,0.0,0.0,0.0,0.0,0.0,0.0,0.0,0.0,0.0,0.0,0.0,0.0,0.0,0.0,0.0,0.0,0.0,0.0,0.0,0.0,0.0,0.0,0.0,0.0,0.0,0.0,0.0,0.0,0.0,0.0,0.0,0.0,0.0,0.0,0.0,0.0,0.0,0.0,0.0,0.0,0.0,0.0,0.0,0.0,0.0,0.0,0.0,0.0,0.0,0.0,0.0,0.0,0.0,0.0,0.0,0.0,0.0,0.0,0.0,0.0,0.0,0.0,0.0,0.0,0.0,0.0,0.0,0.0,0.0,0.0,0.0,0.0,0.0,0.0,0.0,0.0,0.0,0.0,0.0,0.0,0.0,-1.1731,0.0,0.0,0.0,0.0,0.0,0.0,0.0,0.0,0.0,0.0,0.0,0.0,0.0,0.0,0.0,0.0,0.0,0.0,0.0,0.0,0.0,0.0,0.0,0.0,0.0,0.0,0.0,0.0,0.0,0.0,0.0,0.0,0.0,0.0,0.0,0.0,0.0,0.0,0.0,0.0,0.0,0.0,0.0,0.0,0.0,0.0,0.0,0.0,0.0,0.0,0.0,0.0,0.0,0.0,0.0,0.0,0.0,0.0,0.0,0.0,0.0,0.0,0.0,0.0,0.0,0.0,0.0,0.0,0.0,0.0,0.0,0.0,0.0,0.0,0.0,0.0,0.0,0.0,0.0,0.0,0.0,0.0,0.0,0.0,0.0,0.0,0.0,0.0,0.0,0.0,0.0,0.0,0.0,0.0,0.0,0.0,0.0,0.0,0.0,0.0,0.0,0.0,0.0,0.0,0.0,0.0,0.0,0.0,0.0,0.0,-1.2617,-1.2554,-1.3036,-1.2792,-1.1967,0.0,0.0,0.0,0.0,0.0,0.0,0.0,0.0,0.0,0.0,0.0,0.0,0.0,0.0,0.0,0.0,0.0,0.0,0.0,0.0,0.0,0.0,0.0,0.0,0.0,0.0,0.0,0.0,0.0,0.0,0.0,0.0,0.0,0.0,0.0,0.0,0.0,0.0,0.0,0.0,0.0,0.0,0.0,0.0,0.0,0.0,0.0,0.0,0.0,0.0,0.0,0.0,0.0,0.0,0.0,0.0,0.0,0.0,0.0,0.0,0.0,0.0,0.0,0.0,0.0,0.0,0.0,0.0,0.0,0.0,0.0,0.0,0.0,0.0,0.0,0.0,0.0,0.0,0.0,0.0,0.0,0.0,0.0,0.0,0.0,0.0,0.0,0.0,0.0,0.0,0.0,0.0,0.0,0.0,0.0,0.0,0.0,0.0,0.0,0.0,0.0,0.0,0.0,0.0,0.0,0.0,0.0,0.0,0.0,0.0,0.0,0.0,-1.2565,-1.2819,-1.2415,0.0,0.0,0.0,0.0,0.0,0.0,0.0,0.0,0.0,0.0,0.0,0.0,0.0,0.0,0.0,0.0,0.0,0.0,0.0,0.0,0.0,0.0,0.0,0.0,0.0,0.0,0.0,0.0,0.0,0.0,0.0,0.0,0.0,0.0,0.0,0.0,0.0,0.0,0.0,0.0,0.0,0.0,0.0,0.0,0.0,0.0,0.0,0.0,0.0,0.0,0.0,0.0,0.0,0.0,0.0,0.0,0.0,0.0,0.0,0.0,0.0,0.0,0.0,0.0,0.0,0.0,0.0,0.0,0.0,0.0,0.0,0.0,0.0,0.0,0.0,0.0,0.0,0.0,0.0,0.0,0.0,0.0,0.0,0.0,0.0,0.0,0.0,0.0,0.0,0.0,0.0,0.0,0.0,0.0,0.0,0.0,0.0,0.0,0.0,0.0,0.0,0.0,0.0,0.0,0.0,0.0,0.0,0.0,0.0,0.0,-1.2045,-1.1678,-1.2175,0.0,-1.361,0.0,0.0,0.0,0.0,0.0,0.0,0.0,0.0,0.0,0.0,0.0,0.0,0.0,0.0,0.0,0.0,0.0,0.0,0.0,0.0,0.0,0.0,0.0,0.0,0.0,0.0,0.0,0.0,0.0,0.0,0.0,0.0,0.0,0.0,0.0,0.0,0.0,0.0,0.0,0.0,0.0,0.0,0.0,0.0,0.0,0.0,0.0,0.0,0.0,0.0,0.0,0.0,0.0,0.0,0.0,0.0,0.0,0.0,0.0,0.0,0.0,0.0,0.0,0.0,0.0,0.0,0.0,0.0,0.0,0.0,0.0,0.0,0.0,0.0,0.0,0.0,0.0,0.0,0.0,0.0,0.0,0.0,0.0,0.0,0.0,0.0,0.0,0.0,0.0,0.0,0.0,0.0,0.0,0.0,0.0,0.0,0.0,0.0,0.0,0.0,0.0,0.0,0.0,0.0,0.0,0.0,0.0,0.0,0.0,0.0,0.0,-1.158,-1.2004,-1.251,0.0,0.0,0.0,0.0,0.0,0.0,0.0,0.0,0.0,0.0,0.0,0.0,0.0,0.0,0.0,0.0,0.0,0.0,0.0,0.0,0.0,0.0,0.0,0.0,0.0,0.0,0.0,0.0,0.0,0.0,0.0,0.0,0.0,0.0,0.0,0.0,0.0,0.0,0.0,0.0,0.0,0.0,0.0,0.0,0.0,0.0,0.0,0.0,0.0,0.0,0.0,0.0,0.0,0.0,0.0,0.0,0.0,0.0,0.0,0.0,0.0,0.0,0.0,0.0,0.0,0.0,0.0,0.0,0.0,0.0,0.0,0.0,0.0,0.0,0.0,0.0,0.0,0.0,0.0,0.0,0.0,0.0,0.0,0.0,0.0,0.0,0.0,0.0,0.0,0.0,0.0,0.0,0.0,0.0,0.0,0.0,0.0,0.0,0.0,0.0,0.0,0.0,0.0,0.0,0.0,0.0,0.0,0.0,0.0,0.0,-1.2363,0.0,-1.1482,-1.2099,-1.2514,-1.2767,0.0,0.0,0.0,0.0,0.0,0.0,0.0,0.0,0.0,0.0,0.0,0.0,0.0,0.0,0.0,0.0,0.0,0.0,0.0,0.0,0.0,0.0,0.0,0.0,0.0,0.0,0.0,0.0,0.0,0.0,0.0,0.0,0.0,0.0,0.0,0.0,0.0,0.0,0.0,0.0,0.0,0.0,0.0,0.0,0.0,0.0,0.0,0.0,0.0,0.0,0.0,0.0,0.0,0.0,0.0,0.0,0.0,0.0,0.0,0.0,0.0,0.0,0.0,0.0,0.0,0.0,0.0,0.0,0.0,0.0,0.0,0.0,0.0,0.0,0.0,0.0,0.0,0.0,0.0,0.0,0.0,0.0,0.0,0.0,0.0,0.0,0.0,0.0,0.0,0.0,0.0,0.0,0.0,0.0,0.0,0.0,0.0,0.0,0.0,0.0,0.0,0.0,0.0,0.0,0.0,0.0,0.0,0.0,0.0,-1.2427,-1.1676,-1.1029,-1.2512,-1.3051,0.0,0.0,0.0,0.0,0.0,0.0,0.0,0.0,0.0,0.0,0.0,0.0,0.0,0.0,0.0,0.0,0.0,0.0,0.0,0.0,0.0,0.0,0.0,0.0,0.0,0.0,0.0,0.0,0.0,0.0,0.0,0.0,0.0,0.0,0.0,0.0,0.0,0.0,0.0,0.0,0.0,0.0,0.0,0.0,0.0,0.0,0.0,0.0,0.0,0.0,0.0,0.0,0.0,0.0,0.0,0.0,0.0,0.0,0.0,0.0,0.0,0.0,0.0,0.0,0.0,0.0,0.0,0.0,0.0,0.0,0.0,0.0,0.0,0.0,0.0,0.0,0.0,0.0,0.0,0.0,0.0,0.0,0.0,0.0,0.0,0.0,0.0,0.0,0.0,0.0,0.0,0.0,0.0,0.0,0.0,0.0,0.0,0.0,0.0,0.0,0.0,0.0,0.0,0.0,0.0,0.0,0.0,0.0,0.0,-1.3695,-1.2822,-1.194,-1.1376,-1.2131,-1.247,0.0,0.0,0.0,0.0,0.0,0.0,0.0,0.0,0.0,0.0,0.0,0.0,0.0,0.0,0.0,0.0,0.0,0.0,0.0,0.0,0.0,0.0,0.0,0.0,0.0,0.0,0.0,0.0,0.0,0.0,0.0,0.0,0.0,0.0,0.0,0.0,0.0,0.0,0.0,0.0,0.0,0.0,0.0,0.0,0.0,0.0,0.0,0.0,0.0,0.0,0.0,0.0,0.0,0.0,0.0,0.0,0.0,0.0,0.0,0.0,0.0,0.0,0.0,0.0,0.0,0.0,0.0,0.0,0.0,0.0,0.0,0.0,0.0,0.0,0.0,0.0,0.0,0.0,0.0,0.0,0.0,0.0,0.0,0.0,0.0,0.0,0.0,0.0,0.0,0.0,0.0,0.0,0.0,0.0,0.0,0.0,0.0,0.0,0.0,0.0,0.0,0.0,0.0,0.0,0.0,0.0,0.0,0.0,0.0,-1.3426,0.0,-1.191,0.0,-1.1911,-1.2111,0.0,0.0,0.0,0.0,0.0,0.0,0.0,0.0,0.0,0.0,0.0,0.0,0.0,0.0,0.0,0.0,0.0,0.0,0.0,0.0,0.0,0.0,0.0,0.0,0.0,0.0,0.0,0.0,0.0,0.0,0.0,0.0,0.0,0.0,0.0,0.0,0.0,0.0,0.0,0.0,0.0,0.0,0.0,0.0,0.0,0.0,0.0,0.0,0.0,0.0,0.0,0.0,0.0,0.0,0.0,0.0,0.0,0.0,0.0,0.0,0.0,0.0,0.0,0.0,0.0,0.0,0.0,0.0,0.0,0.0,0.0,0.0,0.0,0.0,0.0,0.0,0.0,0.0,0.0,0.0,0.0,0.0,0.0,0.0,0.0,0.0,0.0,0.0,0.0,0.0,0.0,0.0,0.0,0.0,0.0,0.0,0.0,0.0,0.0,0.0,0.0,0.0,0.0,0.0,0.0,0.0,0.0,0.0,0.0,-1.2015,-1.1763,-1.15,-1.1076,-1.19,-1.2133,0.0,0.0,0.0,0.0,0.0,0.0,0.0,0.0,0.0,0.0,0.0,0.0,0.0,0.0,0.0,0.0,0.0,0.0,0.0,0.0,0.0,0.0,0.0,0.0,0.0,0.0,0.0,0.0,0.0,0.0,0.0,0.0,0.0,0.0,0.0,0.0,0.0,0.0,0.0,0.0,0.0,0.0,0.0,0.0,0.0,0.0,0.0,0.0,0.0,0.0,0.0,0.0,0.0,0.0,0.0,0.0,0.0,0.0,0.0,0.0,0.0,0.0,0.0,0.0,0.0,0.0,0.0,0.0,0.0,0.0,0.0,0.0,0.0,0.0,0.0,0.0,0.0,0.0,0.0,0.0,0.0,0.0,0.0,0.0,0.0,0.0,0.0,0.0,0.0,0.0,0.0,0.0,0.0,0.0,0.0,0.0,0.0,0.0,0.0,0.0,0.0,0.0,0.0,0.0,0.0,0.0,0.0,0.0,0.0,-1.1889,-1.2076,-1.1991,-1.16,-1.1806,-1.2005,0.0,0.0,0.0,0.0,0.0,0.0,0.0,0.0,0.0,0.0,0.0,0.0,0.0,0.0,0.0,0.0,0.0,0.0,0.0,0.0,0.0,0.0,0.0,0.0,0.0,0.0,0.0,0.0,0.0,0.0,0.0,0.0,0.0,0.0,0.0,0.0,0.0,0.0,0.0,0.0,0.0,0.0,0.0,0.0,0.0,0.0,0.0,0.0,0.0,0.0,0.0,0.0,0.0,0.0,0.0,0.0,0.0,0.0,0.0,0.0,0.0,0.0,0.0,0.0,0.0,0.0,0.0,0.0,0.0,0.0,0.0,0.0,0.0,0.0,0.0,0.0,0.0,0.0,0.0,0.0,0.0,0.0,0.0,0.0,0.0,0.0,0.0,0.0,0.0,0.0,0.0,0.0,0.0,0.0,0.0,0.0,0.0,0.0,0.0,0.0,0.0,0.0,0.0,0.0,0.0,0.0,0.0,0.0,0.0,-1.1838,-1.2114,-1.2092,-1.1688,-1.1562,-1.1681,-1.2293,0.0,0.0,0.0,0.0,0.0,0.0,0.0,0.0,0.0,0.0,0.0,0.0,0.0,0.0,0.0,0.0,0.0,0.0,0.0,0.0,0.0,0.0,0.0,0.0,0.0,0.0,0.0,0.0,0.0,0.0,0.0,0.0,0.0,0.0,0.0,0.0,0.0,0.0,0.0,0.0,0.0,0.0,0.0,0.0,0.0,0.0,0.0,0.0,0.0,0.0,0.0,0.0,0.0,0.0,0.0,0.0,0.0,0.0,0.0,0.0,0.0,0.0,0.0,0.0,0.0,0.0,0.0,0.0,0.0,0.0,0.0,0.0,0.0,0.0,0.0,0.0,0.0,0.0,0.0,0.0,0.0,0.0,0.0,0.0,0.0,0.0,0.0,0.0,0.0,0.0,0.0,0.0,0.0,0.0,0.0,0.0,0.0,0.0,0.0,0.0,0.0,0.0,0.0,0.0,0.0,0.0,0.0,0.0,-1.197,-1.2213,-1.1944,-1.1365,-1.1296,-1.1436,0.0,0.0,0.0,0.0,0.0,0.0,0.0,0.0,0.0,0.0,0.0,0.0,0.0,0.0,0.0,0.0,0.0,0.0,0.0,0.0,0.0,0.0,0.0,0.0,0.0,0.0,0.0,0.0,0.0,0.0,0.0,0.0,0.0,0.0,0.0,0.0,0.0,0.0,0.0,0.0,0.0,0.0,0.0,0.0,0.0,0.0,0.0,0.0,0.0,0.0,0.0,0.0,0.0,0.0,0.0,0.0,0.0,0.0,0.0,0.0,0.0,0.0,0.0,0.0,0.0,0.0,0.0,0.0,0.0,0.0,0.0,0.0,0.0,0.0,0.0,0.0,0.0,0.0,0.0,0.0,0.0,0.0,0.0,0.0,0.0,0.0,0.0,0.0,0.0,0.0,0.0,0.0,0.0,0.0,0.0,0.0,0.0,0.0,0.0,0.0,0.0,0.0,0.0,0.0,0.0,0.0,0.0,0.0,0.0,-1.2446,-1.2254,-1.2098,-1.1668,-1.1716,-1.2026,0.0,0.0,0.0,0.0,0.0,0.0,0.0,0.0,0.0,0.0,0.0,0.0,0.0,0.0,0.0,0.0,0.0,0.0,0.0,0.0,0.0,0.0,0.0,0.0,0.0,0.0,0.0,0.0,0.0,0.0,0.0,0.0,0.0,0.0,0.0,0.0,0.0,0.0,0.0,0.0,0.0,0.0,0.0,0.0,0.0,0.0,0.0,0.0,0.0,0.0,0.0,0.0,0.0,0.0,0.0,0.0,0.0,0.0,0.0,0.0,0.0,0.0,0.0,0.0,0.0,0.0,0.0,0.0,0.0,0.0,0.0,0.0,0.0,0.0,0.0,0.0,0.0,0.0,0.0,0.0,0.0,0.0,0.0,0.0,0.0,0.0,0.0,0.0,0.0,0.0,0.0,0.0,0.0,0.0,0.0,0.0,0.0,0.0,0.0,0.0,0.0,0.0,0.0,0.0,0.0,0.0,0.0,0.0,-1.2919,-1.1994,-1.2181,-1.2274,-1.2154,-1.2314,-1.2598,0.0,0.0,0.0,0.0,0.0,0.0,0.0,0.0,0.0,0.0,0.0,0.0,0.0,0.0,0.0,0.0,0.0,0.0,0.0,0.0,0.0,0.0,0.0,0.0,0.0,0.0,0.0,0.0,0.0,0.0,0.0,0.0,0.0,0.0,0.0,0.0,0.0,0.0,0.0,0.0,0.0,0.0,0.0,0.0,0.0,0.0,0.0,0.0,0.0,0.0,0.0,0.0,0.0,0.0,0.0,0.0,0.0,0.0,0.0,0.0,0.0,0.0,0.0,0.0,0.0,0.0,0.0,0.0,0.0,0.0,0.0,0.0,0.0,0.0,0.0,0.0,0.0,0.0,0.0,0.0,0.0,0.0,0.0,0.0,0.0,0.0,0.0,0.0,0.0,0.0,0.0,0.0,0.0,0.0,0.0,0.0,0.0,0.0,0.0,0.0,0.0,0.0,0.0,0.0,0.0,0.0,0.0,0.0,-1.2887,-1.1084,-1.2093,-1.2551,-1.2452,-1.2946,-1.3181,0.0,0.0,0.0,0.0,0.0,0.0,0.0,0.0,0.0,0.0,0.0,0.0,0.0,0.0,0.0,0.0,0.0,0.0,0.0,0.0,0.0,0.0,0.0,0.0,0.0,0.0,0.0,0.0,0.0,0.0,0.0,0.0,0.0,0.0,0.0,0.0,0.0,0.0,0.0,0.0,0.0,0.0,0.0,0.0,0.0,0.0,0.0,0.0,0.0,0.0,0.0,0.0,0.0,0.0,0.0,0.0,0.0,0.0,0.0,0.0,0.0,0.0,0.0,0.0,0.0,0.0,0.0,0.0,0.0,0.0,0.0,0.0,0.0,0.0,0.0,0.0,0.0,0.0,0.0,0.0,0.0,0.0,0.0,0.0,0.0,0.0,0.0,0.0,0.0,0.0,0.0,0.0,0.0,0.0,0.0,0.0,0.0,0.0,0.0,0.0,0.0,0.0,0.0,0.0,0.0,0.0,0.0,0.0,-1.292,-1.1447,-1.201,-1.2202,-1.2144,-1.308,-1.39,0.0,0.0,0.0,0.0,0.0,0.0,0.0,0.0,0.0,0.0,0.0,0.0,0.0,0.0,0.0,0.0,0.0,0.0,0.0,0.0,0.0,0.0,0.0,0.0,0.0,0.0,0.0,0.0,0.0,0.0,0.0,0.0,0.0,0.0,0.0,0.0,0.0,0.0,0.0,0.0,0.0,0.0,0.0,0.0,0.0,0.0,0.0,0.0,-1.9669,0.0,0.0,0.0,0.0,0.0,0.0,0.0,0.0,0.0,0.0,0.0,0.0,0.0,0.0,0.0,0.0,0.0,0.0,0.0,0.0,0.0,0.0,0.0,0.0,0.0,0.0,0.0,0.0,0.0,0.0,0.0,0.0,0.0,0.0,0.0,0.0,0.0,0.0,0.0,0.0,0.0,0.0,0.0,0.0,0.0,0.0,0.0,0.0,0.0,0.0,0.0,0.0,0.0,0.0,0.0,0.0,0.0,0.0,0.0,-1.3019,-1.1214,-1.2,-1.2221,-1.2064,-1.3257,-1.4126,0.0,0.0,0.0,0.0,0.0,0.0,0.0,0.0,0.0,0.0,0.0,0.0,0.0,0.0,0.0,0.0,0.0,0.0,0.0,0.0,0.0,0.0,0.0,0.0,0.0,0.0,0.0,0.0,0.0,0.0,0.0,0.0,0.0,0.0,0.0,0.0,0.0,0.0,0.0,0.0,0.0,0.0,0.0,0.0,0.0,0.0,0.0,0.0,0.0,0.0,0.0,0.0,0.0,0.0,0.0,0.0,0.0,0.0,0.0,0.0,0.0,0.0,0.0,0.0,0.0,0.0,0.0,0.0,0.0,0.0,0.0,0.0,0.0,0.0,0.0,0.0,0.0,0.0,0.0,0.0,0.0,0.0,0.0,0.0,0.0,0.0,0.0,0.0,0.0,0.0,0.0,0.0,0.0,0.0,0.0,0.0,0.0,0.0,0.0,0.0,0.0,0.0,0.0,0.0,0.0,0.0,0.0,-1.4578,-1.3095,-1.0964,-1.1878,-1.2221,-1.1964,-1.3164,-1.4013,-1.4484,0.0,0.0,0.0,0.0,0.0,0.0,0.0,0.0,0.0,0.0,0.0,0.0,0.0,0.0,0.0,0.0,0.0,0.0,0.0,0.0,0.0,0.0,0.0,0.0,0.0,0.0,0.0,0.0,0.0,0.0,0.0,0.0,0.0,0.0,0.0,0.0,0.0,0.0,-1.8033,-1.8738,0.0,0.0,0.0,0.0,0.0,0.0,0.0,0.0,-1.9131,0.0,0.0,0.0,0.0,0.0,0.0,0.0,0.0,0.0,0.0,0.0,0.0,0.0,0.0,0.0,0.0,0.0,0.0,0.0,0.0,0.0,0.0,0.0,0.0,0.0,0.0,0.0,0.0,0.0,0.0,0.0,0.0,0.0,0.0,0.0,0.0,0.0,0.0,0.0,0.0,0.0,0.0,0.0,0.0,0.0,0.0,0.0,0.0,0.0,0.0,0.0,0.0,0.0,0.0,0.0,0.0,-1.5681,-1.4515,-1.2942,-1.0887,-1.1475,-1.1695,-1.1311,-1.2221,-1.3401,-1.4841,0.0,0.0,0.0,0.0,0.0,0.0,0.0,0.0,0.0,0.0,0.0,0.0,0.0,0.0,0.0,0.0,0.0,0.0,0.0,0.0,0.0,0.0,0.0,0.0,0.0,0.0,0.0,0.0,0.0,0.0,0.0,0.0,0.0,0.0,0.0,0.0,0.0,0.0,0.0,-1.9717,-1.9794,0.0,0.0,0.0,0.0,0.0,0.0,0.0,0.0,-1.8854,0.0,0.0,0.0,0.0,0.0,0.0,0.0,0.0,0.0,0.0,0.0,0.0,0.0,0.0,0.0,0.0,0.0,0.0,0.0,0.0,0.0,0.0,0.0,0.0,0.0,0.0,0.0,0.0,0.0,0.0,0.0,0.0,0.0,0.0,0.0,0.0,0.0,0.0,0.0,0.0,0.0,0.0,0.0,0.0,0.0,0.0,0.0,0.0,0.0,0.0,0.0,0.0,0.0,0.0,0.0,-1.4904,-1.4341,-1.3019,-1.087,-1.1362,-1.1431,-1.0849,-1.1954,-1.3314,0.0,0.0,0.0,0.0,0.0,0.0,0.0,0.0,0.0,0.0,0.0,0.0,0.0,0.0,0.0,0.0,0.0,0.0,0.0,0.0,0.0,0.0,0.0,0.0,0.0,0.0,0.0,0.0,0.0,0.0,0.0,0.0,0.0,0.0,0.0,0.0,0.0,0.0,0.0,0.0,-1.9626,-1.975,-1.975,0.0,0.0,0.0,0.0,0.0,0.0,-1.8586,-1.8444,0.0,0.0,0.0,0.0,0.0,0.0,0.0,0.0,0.0,0.0,0.0,0.0,0.0,0.0,0.0,0.0,0.0,0.0,0.0,0.0,0.0,0.0,0.0,0.0,0.0,0.0,0.0,0.0,0.0,0.0,0.0,0.0,0.0,0.0,0.0,0.0,0.0,0.0,0.0,0.0,0.0,0.0,0.0,0.0,0.0,0.0,0.0,0.0,0.0,0.0,0.0,0.0,0.0,0.0,0.0,-1.4372,-1.4235,-1.3171,-1.1066,-1.1259,-1.1176,-1.0404,-1.1746,-1.2997,0.0,0.0,0.0,0.0,0.0,0.0,0.0,0.0,0.0,0.0,0.0,0.0,0.0,0.0,0.0,0.0,0.0,0.0,0.0,0.0,0.0,0.0,0.0,0.0,0.0,0.0,0.0,0.0,0.0,0.0,0.0,0.0,0.0,0.0,0.0,0.0,0.0,0.0,0.0,0.0,0.0,-1.9588,-1.943,-1.9506,0.0,0.0,0.0,0.0,-1.8789,-1.8619,0.0,0.0,0.0,0.0,0.0,0.0,0.0,0.0,0.0,0.0,0.0,0.0,0.0,0.0,0.0,0.0,0.0,0.0,0.0,0.0,0.0,0.0,0.0,0.0,0.0,0.0,0.0,0.0,0.0,0.0,0.0,0.0,0.0,0.0,0.0,0.0,0.0,0.0,0.0,0.0,0.0,0.0,0.0,0.0,0.0,0.0,0.0,0.0,0.0,0.0,0.0,0.0,0.0,0.0,0.0,0.0,-1.5053,-1.4364,-1.3017,-1.1271,-1.0949,-1.0758,-1.0404,-1.0845,-1.2064,0.0,0.0,0.0,0.0,0.0,0.0,0.0,0.0,0.0,0.0,0.0,0.0,0.0,0.0,0.0,0.0,0.0,0.0,0.0,0.0,0.0,0.0,0.0,0.0,0.0,0.0,0.0,0.0,0.0,0.0,0.0,0.0,0.0,0.0,0.0,0.0,0.0,0.0,0.0,0.0,0.0,-1.9539,-1.8865,-1.9216,-1.956,0.0,0.0,0.0,-2.0074,-2.0271,0.0,0.0,0.0,0.0,0.0,0.0,0.0,0.0,0.0,0.0,0.0,0.0,0.0,0.0,0.0,0.0,0.0,0.0,0.0,0.0,0.0,0.0,0.0,0.0,0.0,0.0,0.0,0.0,0.0,0.0,0.0,0.0,0.0,0.0,0.0,0.0,0.0,0.0,0.0,0.0,0.0,0.0,0.0,0.0,0.0,0.0,0.0,0.0,0.0,0.0,0.0,0.0,0.0,0.0,0.0,-1.4932,-1.517,-1.449,-1.3158,-1.1116,-1.0782,-1.0441,-1.0111,-1.045,-1.1688,0.0,0.0,0.0,0.0,0.0,0.0,0.0,0.0,0.0,0.0,0.0,0.0,0.0,0.0,0.0,0.0,0.0,0.0,0.0,0.0,0.0,0.0,0.0,0.0,0.0,0.0,0.0,0.0,0.0,0.0,0.0,0.0,0.0,0.0,0.0,0.0,0.0,0.0,0.0,0.0,0.0,0.0,-1.8959,-1.9487,0.0,0.0,0.0,-2.0015,-2.0316,0.0,0.0,0.0,0.0,0.0,0.0,0.0,0.0,0.0,0.0,0.0,0.0,0.0,0.0,0.0,0.0,0.0,0.0,0.0,0.0,0.0,0.0,0.0,0.0,0.0,0.0,0.0,0.0,0.0,0.0,0.0,0.0,0.0,0.0,0.0,0.0,0.0,0.0,0.0,0.0,0.0,0.0,0.0,0.0,0.0,0.0,0.0,0.0,0.0,0.0,0.0,0.0,0.0,0.0,0.0,0.0,0.0,-1.4972,-1.4565,-1.3311,-1.1297,-1.0759,-1.0382,-0.9876,-1.0245,0.0,0.0,0.0,0.0,0.0,0.0,0.0,0.0,0.0,0.0,0.0,0.0,0.0,0.0,0.0,0.0,0.0,0.0,0.0,0.0,0.0,0.0,0.0,0.0,0.0,0.0,0.0,0.0,0.0,0.0,0.0,0.0,0.0,0.0,0.0,0.0,0.0,0.0,0.0,0.0,0.0,0.0,-1.7893,-1.8875,-1.9524,-2.0025,0.0,0.0,-2.0411,-2.0474,-2.0648,-2.056,0.0,0.0,0.0,0.0,0.0,0.0,0.0,0.0,0.0,0.0,0.0,0.0,0.0,0.0,0.0,0.0,0.0,0.0,0.0,0.0,0.0,0.0,0.0,0.0,0.0,0.0,0.0,0.0,0.0,0.0,0.0,0.0,0.0,0.0,0.0,0.0,0.0,0.0,0.0,0.0,0.0,0.0,0.0,0.0,0.0,0.0,0.0,0.0,0.0,0.0,0.0,0.0,0.0,0.0,0.0,-1.4576,-1.4372,-1.3528,-1.2154,-1.108,-1.0382,-0.9782,-1.007,-1.117,0.0,0.0,0.0,0.0,0.0,0.0,0.0,0.0,0.0,0.0,0.0,0.0,0.0,0.0,0.0,0.0,0.0,0.0,0.0,0.0,0.0,0.0,0.0,0.0,0.0,0.0,0.0,0.0,0.0,0.0,0.0,0.0,0.0,0.0,0.0,0.0,0.0,0.0,0.0,0.0,0.0,-1.7449,-1.7988,-1.8758,-1.9568,0.0,0.0,-2.1186,-2.0941,-2.1719,-2.1814,-2.013,0.0,0.0,0.0,0.0,0.0,0.0,0.0,0.0,0.0,0.0,0.0,0.0,0.0,0.0,0.0,0.0,0.0,0.0,0.0,0.0,0.0,0.0,0.0,0.0,0.0,0.0,0.0,0.0,0.0,0.0,0.0,0.0,0.0,0.0,0.0,0.0,0.0,0.0,0.0,0.0,0.0,0.0,0.0,0.0,0.0,0.0,0.0,0.0,0.0,0.0,0.0,0.0,0.0,-1.3536,-1.3986,-1.2935,-1.2088,-1.1579,-1.0401,-0.9713,-0.973,-0.9821,-1.0678,0.0,0.0,0.0,0.0,0.0,0.0,0.0,0.0,0.0,0.0,0.0,0.0,0.0,0.0,0.0,0.0,0.0,0.0,0.0,0.0,0.0,0.0,0.0,0.0,0.0,0.0,0.0,0.0,-1.275,-1.2329,-1.2056,0.0,0.0,0.0,0.0,0.0,0.0,0.0,0.0,0.0,0.0,-1.7008,-1.8067,-1.8873,0.0,0.0,-2.1059,-2.164,-2.129,-2.1576,-2.1481,-2.0369,-2.033,0.0,0.0,0.0,0.0,0.0,0.0,0.0,0.0,0.0,0.0,0.0,0.0,0.0,0.0,0.0,0.0,0.0,0.0,0.0,0.0,0.0,0.0,0.0,0.0,0.0,0.0,0.0,0.0,0.0,0.0,0.0,0.0,0.0,0.0,0.0,0.0,0.0,0.0,0.0,0.0,0.0,0.0,0.0,0.0,0.0,0.0,0.0,0.0,0.0,0.0,0.0,0.0,-1.2909,-1.3623,-1.1984,-1.117,-1.1072,-0.9797,-0.9221,-0.9327,-0.9525,-1.0255,0.0,0.0,0.0,0.0,0.0,0.0,0.0,0.0,0.0,0.0,0.0,0.0,0.0,0.0,0.0,0.0,0.0,0.0,0.0,0.0,0.0,0.0,0.0,0.0,0.0,0.0,0.0,0.0,-1.3168,-1.2616,-1.2596,0.0,0.0,0.0,0.0,0.0,0.0,0.0,0.0,0.0,0.0,-1.6819,-1.8108,-1.8702,-1.9197,-1.9911,-2.0847,-2.1443,-2.1211,-2.1306,-2.1163,-2.0369,0.0,0.0,0.0,0.0,0.0,0.0,0.0,0.0,0.0,0.0,0.0,0.0,0.0,0.0,0.0,0.0,0.0,0.0,0.0,0.0,0.0,0.0,0.0,0.0,0.0,0.0,0.0,0.0,0.0,0.0,-1.007,0.0,0.0,0.0,0.0,0.0,0.0,0.0,0.0,0.0,0.0,0.0,0.0,0.0,0.0,0.0,0.0,0.0,0.0,0.0,0.0,0.0,0.0,0.0,-1.3373,-1.189,-1.0974,-1.0779,-0.9805,-0.9122,-0.8832,-0.9327,-1.0121,-1.1133,0.0,0.0,0.0,0.0,0.0,0.0,0.0,0.0,0.0,0.0,0.0,0.0,0.0,0.0,0.0,0.0,0.0,0.0,0.0,0.0,0.0,0.0,0.0,0.0,0.0,0.0,-1.4094,-1.3014,-1.2493,0.0,0.0,0.0,0.0,0.0,0.0,0.0,0.0,0.0,0.0,-1.6375,-1.67,-1.7849,-1.8194,-1.8745,-1.9575,-2.0272,-2.0585,-2.0458,-2.1004,-2.1084,0.0,0.0,0.0,0.0,0.0,0.0,0.0,0.0,0.0,0.0,0.0,0.0,0.0,0.0,0.0,0.0,0.0,0.0,0.0,0.0,0.0,0.0,0.0,0.0,0.0,0.0,0.0,-0.9393,-0.9461,0.0,0.0,0.0,0.0,0.0,0.0,0.0,0.0,0.0,0.0,0.0,-1.4082,-1.4175,0.0,0.0,0.0,0.0,0.0,0.0,0.0,0.0,0.0,0.0,0.0,0.0,-1.1661,-1.2248,-1.0192,-0.941,-1.0207,-0.9137,-0.8693,-0.8996,-0.9611,-1.0807,-1.2341,0.0,0.0,0.0,0.0,0.0,0.0,0.0,0.0,0.0,0.0,0.0,0.0,0.0,0.0,0.0,0.0,0.0,0.0,0.0,0.0,0.0,0.0,0.0,0.0,0.0,-1.4709,0.0,0.0,0.0,0.0,0.0,0.0,0.0,0.0,0.0,0.0,0.0,-1.5228,-1.6197,-1.6464,-1.6847,-1.7635,-1.8071,-1.8731,0.0,0.0,0.0,0.0,0.0,0.0,0.0,0.0,0.0,0.0,0.0,0.0,0.0,0.0,-2.267,-2.0289,-2.0082,-1.9945,-1.9109,0.0,0.0,0.0,0.0,0.0,0.0,0.0,0.0,0.0,0.0,0.0,0.0,0.0,0.0,-0.9429,0.0,-0.9228,0.0,0.0,0.0,0.0,0.0,0.0,0.0,0.0,-1.2572,-1.3242,-1.4392,-1.4581,-1.4576,0.0,-1.4295,-1.4095,0.0,0.0,0.0,0.0,0.0,0.0,0.0,0.0,-1.115,-1.1732,-0.9268,-0.8535,-0.9525,-0.8693,-0.8473,-0.878,-0.976,-1.108,-1.2867,-1.3591,-1.4183,0.0,0.0,0.0,0.0,0.0,0.0,0.0,0.0,0.0,0.0,0.0,0.0,0.0,0.0,0.0,0.0,0.0,0.0,0.0,0.0,0.0,0.0,0.0,-1.4832,0.0,0.0,0.0,0.0,0.0,0.0,0.0,0.0,0.0,-1.4509,-1.487,-1.5404,-1.6166,-1.6526,-1.6914,-1.7502,0.0,0.0,0.0,0.0,0.0,0.0,0.0,-2.0676,-2.0961,-2.193,-2.3117,-2.4406,-2.5937,-2.6764,-2.6109,0.0,0.0,-2.2005,-2.1526,-2.148,-2.061,-2.0779,-2.0976,-2.0533,-2.0874,-2.107,0.0,0.0,0.0,0.0,0.0,0.0,0.0,0.0,-0.9602,-0.9602,0.0,-0.9018,0.0,0.0,0.0,0.0,0.0,0.0,0.0,0.0,-1.2587,-1.3338,-1.4256,-1.481,-1.499,-1.5003,-1.5244,-1.5217,-1.491,-1.3828,0.0,0.0,0.0,0.0,0.0,0.0,-1.1273,-1.166,-0.9235,-0.823,-0.8817,-0.8491,-0.8392,-0.8508,-0.9569,-1.1021,-1.2705,-1.4076,-1.4799,-1.4656,-1.602,0.0,0.0,0.0,0.0,0.0,0.0,0.0,0.0,0.0,0.0,0.0,0.0,0.0,0.0,0.0,0.0,0.0,0.0,0.0,0.0,-1.5374,0.0,0.0,0.0,0.0,0.0,0.0,0.0,0.0,0.0,0.0,-1.4576,-1.5057,-1.5631,-1.6192,0.0,0.0,0.0,0.0,-1.7806,-1.8345,-1.8988,-1.942,-1.9633,-2.0327,-2.1248,-2.2046,0.0,0.0,-2.7672,-2.8437,-2.8603,-2.8167,-2.8359,-2.7643,-2.4061,-2.3129,-2.278,-2.2253,-2.2149,-2.2264,-2.2753,-2.3184,-2.3395,-1.3549,0.0,0.0,0.0,0.0,-1.02,-1.0149,-1.0102,-0.9894,-0.9874,-0.9856,-0.9275,0.0,0.0,0.0,0.0,0.0,0.0,-1.2057,-1.3124,-1.3101,-1.3882,-1.5378,-1.5485,-1.5578,-1.5578,-1.567,-1.5562,-1.5257,-1.4723,-1.4402,-1.4269,0.0,0.0,0.0,0.0,-1.0997,-1.0769,-0.8945,-0.8188,-0.8661,-0.854,-0.8948,-1.0023,-1.0273,-1.1376,-1.3657,-1.4654,-1.5468,-1.6106,-1.6998,0.0,0.0,0.0,0.0,0.0,0.0,0.0,0.0,0.0,0.0,0.0,0.0,0.0,0.0,0.0,0.0,0.0,0.0,0.0,-1.5682,-1.5605,-1.5374,0.0,0.0,0.0,0.0,0.0,0.0,0.0,0.0,0.0,-1.515,-1.5471,-1.5845,0.0,0.0,-1.7088,-1.7248,-1.7622,-1.8104,-1.8652,0.0,0.0,0.0,-2.0981,-2.1699,-2.2766,-2.5289,-2.7535,-2.8776,-2.9982,-3.0665,-3.0088,-2.9838,-2.8938,-2.7058,-2.6226,-2.55,-2.429,-2.3854,-2.3673,-2.3556,-2.3655,-2.3655,-1.46,-1.3285,-1.256,-1.1684,-1.0875,-1.0573,-1.0362,-1.0291,-1.0214,-1.0159,-1.0187,-0.9757,-0.9452,-0.9489,-0.9863,0.0,0.0,0.0,-1.1951,-1.3239,-1.3251,-1.4039,-1.5439,-1.5737,-1.5832,-1.5818,-1.5765,-1.5685,-1.5565,-1.5271,-1.5044,-1.4856,0.0,0.0,-1.3127,-1.1912,-1.1139,-1.051,-0.9081,-0.8287,-0.8405,-0.8487,-0.9231,-1.0566,-1.0542,-1.1709,-1.4218,-1.4963,-1.5908,-1.7159,-1.7644,-1.7636,0.0,0.0,0.0,0.0,0.0,0.0,0.0,0.0,0.0,0.0,0.0,-1.418,0.0,0.0,0.0,0.0,-1.5111,-1.5795,-1.6079,-1.5968,0.0,0.0,0.0,0.0,0.0,0.0,0.0,-1.6462,-1.6273,-1.6026,-1.5806,-1.6005,-1.6246,-1.642,-1.686,-1.7298,-1.7301,0.0,-1.7956,-1.8276,-1.8963,-1.9628,-2.027,-2.0634,-2.149,-2.3474,-2.6417,-2.8689,-2.9456,-3.0384,-3.0939,-3.0772,-3.045,-2.9742,-2.8649,-2.8115,-2.7256,-2.5519,-2.5093,-2.4824,-2.4529,-2.4548,-2.443,-1.5253,-1.4309,-1.3375,-1.2537,-1.1804,-1.102,-1.05,-1.0338,-1.0518,-1.0594,-1.0556,-1.0167,-1.0051,-1.0028,-1.0028,0.0,0.0,-1.094,-1.1446,-1.2897,-1.3085,-1.3874,-1.5166,-1.5547,-1.5832,-1.5832,-1.5832,-1.5832,-1.5818,-1.5565,-1.5418,-1.5378,-1.4856,-1.43,-1.3661,-1.2485,-1.1507,-1.0668,-0.9502,-0.8513,-0.8045,-0.8309,-0.9159,-1.042,-1.0599,-1.19,-1.4477,-1.507,-1.6164,-1.7717,-1.8018,-1.7856,-1.7429,0.0,0.0,0.0,0.0,0.0,0.0,0.0,0.0,0.0,0.0,0.0,0.0,0.0,0.0,0.0,-1.5053,0.0,-1.6617,-1.6444,0.0,0.0,0.0,-1.6063,-1.6746,-1.6526,-1.639,-1.6831,0.0,0.0,0.0,0.0,-1.6714,-1.674,-1.6994,-1.7275,-1.7515,-1.7595,-1.7609,-1.7662,-1.8177,-1.8731,-1.9477,-2.03,-2.1755,-2.4158,-2.7046,-2.9096,-2.9579,-2.9929,-3.0285,-3.0643,-3.0472,-2.9949,-2.9458,-2.8934,-2.8124,-2.6267,-2.5897,-2.58,-2.582,-2.5723,-2.5528,-1.5615,-1.5402,-1.4638,-1.3457,-1.1984,-1.1424,-1.0933,-1.0754,-1.0792,-1.0726,-1.0565,-1.0357,-1.0336,-1.0309,-1.0426,-1.0701,-1.1049,-1.1042,-1.1921,-1.3324,-1.3419,-1.4232,-1.5642,-1.5737,-1.5832,-1.5832,-1.5832,-1.5832,-1.5832,-1.5765,-1.5618,-1.5404,-1.5257,-1.4889,-1.4142,-1.3009,-1.1942,-1.0763,-0.9581,-0.8608,-0.8038,-0.8106,-0.894,-1.0412,-1.0599,-1.1964,-1.482,-1.5447,-1.6548,-1.8354,-1.8387,-1.8303,-1.8097,-1.8129,0.0,0.0,0.0,0.0,0.0,0.0,0.0,0.0,0.0,-1.4638,-1.3962,0.0,-1.4305,0.0,-1.4668,-1.5463,-1.6139,-1.6421,0.0,0.0,-1.6953,-1.7064,-1.7477,-1.7676,-1.7679,-1.7447,-1.7154,-1.6994,-1.6898,-1.6724,-1.6794,-1.7007,-1.7288,-1.7422,-1.7301,-1.7662,-1.7929,-1.7943,-1.8631,-1.9354,-1.9974,-2.2247,-2.4015,-2.4792,-2.7008,-2.8528,-2.8391,-2.9057,-2.9593,-2.9749,-2.9678,-2.9589,-2.9449,-2.9059,-2.8545,-2.7641,-2.7146,-2.686,-2.686,-2.6592,-2.6204,-1.5832,-1.5724,-1.4943,-1.3826,-1.2642,-1.1826,-1.1182,-1.0905,-1.099,-1.0915,-1.0697,-1.0405,-1.0295,-1.0377,-1.0493,-1.0658,-1.0769,-1.0981,-1.1949,-1.3511,-1.3511,-1.428,-1.5832,-1.5832,-1.5832,-1.5832,-1.5832,-1.5832,-1.5832,-1.5832,-1.5738,-1.5591,-1.5591,-1.5405,-1.4982,-1.3882,-1.2614,-1.1,-0.9364,-0.835,-0.8038,-0.8167,-0.8873,-1.029,-1.0791,-1.2238,-1.4582,-1.5303,-1.6484,-1.8053,-1.8184,-1.8157,-1.8177,-1.8357,-1.8091,0.0,0.0,0.0,0.0,0.0,0.0,0.0,0.0,0.0,0.0,0.0,-1.4315,0.0,0.0,0.0,-1.6687,-1.7111,-1.754,-1.7989,-1.7851,-1.7808,-1.7969,-1.8176,-1.8171,-1.7873,-1.7687,-1.7596,-1.7274,-1.7103,-1.7163,-1.7378,-1.7475,-1.7528,-1.7408,-1.7649,-1.7836,-1.7849,-1.8292,-1.9048,-2.0119,-2.2282,-2.4105,-2.4981,-2.638,-2.7471,-2.7763,-2.8342,-2.881,-2.9062,-2.9106,-2.9161,-2.9161,-2.8964,-2.8653,-2.8466,-2.8092,-2.7809,-2.7336,-2.6935,-2.6642,-1.5832,-1.5737,-1.4879,-1.4208,-1.3596,-1.2437,-1.1497,-1.1039,-1.1182,-1.1231,-1.0924,-1.036,-1.0301,-1.05,-1.061,-1.0635,-1.0715,-1.0839,-1.1788,-1.3414,-1.3511,-1.428,-1.5737,-1.5737,-1.5832,-1.5832,-1.5832,-1.5832,-1.5832,-1.5832,-1.5832,-1.5832,-1.5832,-1.5832,-1.5818,-1.479,-1.3343,-1.122,-0.9068,-0.7991,-0.8011,-0.8385,-0.9057,-1.0128,-1.1125,-1.2402,-1.4185,-1.4987,-1.6085,-1.7399,-1.7692,-1.7882,-1.8148,-1.8475,-1.8615,0.0,-1.8014,0.0,0.0,0.0,0.0,0.0,0.0,0.0,0.0,-1.403,-1.4431,-1.5109,-1.5683,-1.645,-1.7556,-1.8067,-1.8469,-1.8885,-1.8589,-1.8402,-1.8425,-1.8367,-1.8297,-1.8241,-1.8087,-1.7953,-1.7795,-1.7598,-1.7521,-1.7644,-1.7674,-1.7582,-1.7582,-1.7595,-1.7622,-1.7622,-1.7741,-1.859,-2.015,-2.1554,-2.2997,-2.4692,-2.5665,-2.6468,-2.7321,-2.7598,-2.7939,-2.838,-2.858,-2.8696,-2.8746,-2.8861,-2.8861,-2.8768,-2.8768,-2.8466,-2.7715,-2.741,-2.696,-1.5832,-1.5737,-1.5599,-1.5108,-1.4388,-1.3765,-1.2684,-1.1521,-1.1758,-1.1764,-1.1466,-1.0784,-1.0938,-1.171,-1.092,-1.0839,-1.1133,-1.1144,-1.1745,-1.2953,-1.3329,-1.41,-1.5274,-1.5642,-1.5832,-1.5832,-1.5832,-1.5832,-1.5832,-1.5832,-1.5832,-1.5832,-1.5832,-1.5832,0.0,0.0,0.0,0.0,-0.8783,-0.774,-0.7855,-0.8421,-0.9082,-0.9933,-1.1241,0.0,-1.4185,-1.4975,-1.6085,-1.7399,-1.7692,0.0,0.0,0.0,0.0,0.0,0.0,0.0,0.0,0.0,0.0,0.0,-1.6041,-1.5559,-1.5197,-1.5335,-1.5712,-1.6209,-1.6657,-1.706,-1.7494,-1.8513,-1.9096,-1.9024,-1.9346,-1.9455,-1.9082,-1.8808,-1.8672,-1.8627,-1.8365,-1.8252,-1.8566,-1.7995,-1.7736,-1.8102,-1.7898,-1.7582,-1.7582,-1.7582,-1.7675,-1.7889,-1.8224,-1.9,-2.0076,-2.1338,-2.2722,-2.4146,-2.52,-2.5748,-2.6074,-2.6543,-2.6906,-2.7386,-2.7873,-2.8279,-2.8675,-2.8861,-2.8768,-2.8861,-2.8861,-2.8746,-2.856,-2.8186,-2.7462,-1.5832,0.0,-1.5803,-1.5408,0.0,-1.4592,-1.3811,-1.2737,-1.2704,-1.268,-1.257,-1.2472,-1.251,-1.2592,-1.213,-1.2005,-1.2225,-1.1783,-1.2165,-1.3136,-1.3522,-1.41,-1.4892,-1.5547,-1.5832,-1.5832,-1.5832,-1.5832,-1.5832,-1.5832,-1.5832,-1.5832,-1.5832,-1.5765,-1.5605,-1.4759,-1.3216,-1.1071,-0.939,-0.8386,-0.8131,-0.878,-0.9415,-1.0022,0.0,0.0,0.0,0.0,0.0,0.0,0.0,0.0,0.0,0.0,0.0,-2.0061,-2.0467,-2.0513,-1.971,-1.9265,-1.8648,-1.7819,-1.7337,-1.6777,-1.6102,-1.6104,-1.6386,-1.682,-1.7125,-1.7663,-1.8545,-1.9407,-2.0001,-2.0447,-2.0335,-2.0093,-1.9637,-1.918,-1.892,-1.8859,-1.88,-1.883,-1.892,-1.8751,-1.8513,-1.8442,-1.8213,-1.7898,-1.7687,-1.7582,-1.7649,-1.7796,-1.8022,-1.8646,-1.9687,-2.0836,-2.2162,-2.3604,-2.4746,-2.5366,-2.5684,-2.611,-2.6592,-2.686,-2.7241,-2.7809,-2.8279,-2.8373,-2.8466,-2.8746,-2.8861,-2.8659,-2.8484,-2.8212,-2.7565,-1.5832,-1.5832,-1.579,-1.5491,-1.4879,-1.507,-1.4879,-1.4196,0.0,0.0,0.0,-1.4052,-1.4063,-1.3708,-1.3531,-1.3437,-1.3237,-1.2469,-1.2554,-1.3414,-1.3715,-1.41,-1.4592,-1.5452,-1.5832,-1.5832,-1.5832,-1.5832,-1.5832,-1.5832,-1.5832,-1.5832,-1.5832,-1.5658,-1.5232,-1.4151,-1.2848,-1.1569,-1.0377,-0.9315,-0.8663,-0.9308,-0.9808,-1.0152,-1.2177,-1.3401,-1.3602,-1.4942,-1.5817,-1.5912,-1.6429,-1.6933,-1.7501,-1.8923,-2.0087,-2.0995,-2.1368,-2.1565,-2.1652,-2.0992,-2.0296,-1.9592,-1.8758,-1.7951,-1.7063,-1.6888,-1.6996,-1.7336,-1.7686,-1.8383,-1.9618,-2.0176,-2.0817,-2.1784,-2.1159,-2.0529,-2.0002,-1.9455,-1.912,-1.8939,-1.9193,-1.9431,-1.9336,-1.9414,-1.9415,-1.8858,-1.8471,-1.813,-1.783,-1.7752,-1.7793,-1.782,-1.7939,-1.8227,-1.9228,-2.0174,-2.1387,-2.302,-2.4134,-2.4941,-2.543,-2.6014,-2.6304,-2.6496,-2.686,-2.7241,-2.7715,-2.7904,-2.7998,-2.8466,-2.8495,-2.8392,-2.7865,-2.776,-2.7344,-1.5832,-1.5832,-1.5845,-1.5737,-1.5642,-1.5642,-1.5629,-1.5452,-1.4376,-1.3992,-1.4172,-1.4256,-1.4746,-1.5369,-1.4543,-1.404,-1.3765,-1.2931,-1.2662,0.0,-1.3522,-1.3908,-1.41,-1.5248,-1.5832,-1.5832,-1.5832,-1.5832,-1.5832,-1.5832,-1.5832,-1.5832,-1.5832,-1.5551,-1.507,-1.4797,-1.4128,-1.2746,-1.1214,-1.0281,-0.9953,-1.0306,-1.0408,-1.0248,-1.2151,-1.3325,-1.3754,-1.4937,-1.5732,-1.6219,-1.6938,-1.757,-1.816,-1.9684,-2.083,-2.1384,-2.2307,-2.2698,-2.2259,-2.2007,-2.153,-2.0837,-2.0262,-1.9389,-1.8208,-1.7933,-1.8041,-1.8501,-1.8517,-1.8948,-1.9588,-2.0439,-2.0997,-2.1177,-2.1266,-2.0997,-2.04,-1.9687,-1.9358,-1.9351,-1.9336,-1.9638,-1.998,-1.9884,-1.975,-1.9656,-1.8743,-1.8044,-1.81,-1.8151,-1.8304,-1.8318,-1.8318,-1.8513,-1.893,-1.9657,-2.079,-2.208,-2.342,-2.443,-2.4941,-2.5528,-2.6014,-2.64,-2.6496,-2.6784,-2.7241,-2.7336,-2.7431,-2.7505,-2.7556,-2.7409,-2.6939,-2.6821,-2.6541,-1.5832,-1.5832,-1.5832,-1.5738,-1.5578,-1.5431,-1.5351,-1.5364,-1.4797,-1.4684,-1.5045,-1.4867,-1.5166,-1.5681,-1.507,-1.4771,-1.4867,-1.4004,-1.3534,-1.3426,-1.4196,-1.4304,-1.4004,-1.5248,-1.5832,-1.5832,-1.5832,-1.5832,-1.5832,-1.5832,-1.5832,-1.5805,-1.5524,-1.5217,-1.499,-1.5053,-1.476,-1.4251,-1.2598,-1.1696,-1.1512,-1.1355,-1.1353,-1.1449,-1.2708,-1.3631,-1.4004,-1.4908,-1.5806,-1.6513,-1.6833,-1.7299,-1.7896,-1.9573,-2.0908,-2.1397,-2.2906,-2.3738,-2.3467,-2.3195,-2.2831,-2.2281,-2.1653,-2.0823,-1.9893,-1.9124,-1.8735,-1.8812,-1.8669,-1.8894,-1.9712,-2.0546,-2.1177,-2.1516,-2.217,-2.2172,-2.1296,-2.0695,-2.0223,-1.9926,-1.991,-2.0051,-2.0353,-2.0358,-2.0209,-2.004,-1.8877,-1.8178,-1.8673,-1.8702,-1.8654,-1.8812,-1.8632,-1.8422,-1.8632,-1.9554,-2.0483,-2.1183,-2.3003,-2.4214,-2.4726,-2.5235,-2.5723,-2.6014,-2.6014,-2.6304,-2.6668,-2.6764,-2.6955,-2.72,-2.6983,-2.671,-2.634,-2.5865,-2.5572,-1.5832,-1.5832,-1.5832,-1.5698,-1.5471,-1.5257,-1.5124,-1.5057,-1.507,-1.5271,-1.5511,-1.5269,-1.5308,-1.5738,-1.536,-1.5399,-1.5629,-1.4804,-1.4195,-1.4005,-1.4621,-1.4502,-1.4016,-1.5227,-1.5738,-1.5738,-1.5792,-1.5805,-1.5738,-1.5738,-1.5738,-1.5671,-1.5217,-1.5003,-1.507,-1.5057,-1.5204,-1.5272,-1.3978,-1.3136,-1.2903,-1.2495,-1.2304,-1.2451,-1.331,-1.3953,-1.4299,-1.5149,-1.5986,-1.6706,-1.686,-1.7103,-1.7708,-1.9284,-2.0605,-2.1473,-2.3036,-2.4117,-2.4322,-2.4044,-2.3765,-2.3598,-2.2829,-2.2072,-2.1449,-2.0406,-1.9515,-1.9127,-1.8859,-1.9088,-1.987,-2.0824,-2.1608,-2.2187,-2.3072,-2.3131,-2.2167,-2.1707,-2.1168,-2.059,-2.044,-2.04,-2.0543,-2.075,-2.0609,-1.9811,-1.892,-1.8686,-1.929,-1.9134,-1.9125,-1.9361,-1.9153,-1.884,-1.8736,-1.9657,-2.038,-2.0585,-2.2619,-2.3917,-2.443,-2.5039,-2.5625,-2.5723,-2.5723,-2.5917,-2.6207,-2.6304,-2.64,-2.6648,-2.6587,-2.6341,-2.5958,-2.542,-2.493,-1.5832,-1.5832,-1.5832,-1.5818,-1.5765,-1.5725,-1.5565,-1.5351,-1.5351,-1.5217,-1.5057,-1.5044,-1.5308,-1.5722,-1.5444,-1.5471,-1.567,-1.4978,-1.4397,-1.4186,-1.4239,-1.4113,-1.3981,-1.5153,-1.5643,-1.5484,-1.5698,-1.5712,-1.5498,-1.5458,-1.5444,-1.5404,-1.5124,-1.5097,-1.5324,-1.5351,-1.5285,-1.5253,-1.5019,-1.4606,-1.3998,-1.3532,-1.2946,-1.2151,-1.3286,-1.3992,-1.4389,-1.5626,-1.6587,-1.7128,-1.7341,-1.7698,-1.8296,-1.8862,-1.9891,-2.1654,-2.2327,-2.3093,-2.4249,-2.4322,-2.4361,-2.4229,-2.3822,-2.3261,-2.2488,-2.164,-2.0824,-2.0039,-1.9733,-1.983,-2.0151,-2.1268,-2.2049,-2.2369,-2.3224,-2.3374,-2.268,-2.1865,-2.1252,-2.0801,-2.06,-2.0512,-2.0782,-2.0861,-2.0436,-1.9537,-1.9048,-1.8919,-1.9277,-1.946,-1.972,-2.0405,-2.0292,-1.9776,-1.948,-1.9879,-2.038,-2.0688,-2.2316,-2.352,-2.4035,-2.4824,-2.5723,-2.5742,-2.5723,-2.5742,-2.5742,-2.5723,-2.582,-2.5954,-2.5944,-2.5878,-2.5838,-2.5571,-2.531,-1.5832,-1.5832,-1.5832,-1.5725,-1.5565,-1.5391,-1.5257,-1.5137,-1.5137,-1.4874,-1.452,-1.4608,-1.4754,-1.4825,-1.5033,-1.5204,-1.5311,-1.5008,-1.4578,-1.4292,-1.4463,-1.4411,-1.4153,-1.4878,-1.5299,-1.5418,-1.5685,-1.5765,-1.5671,-1.5645,-1.5565,-1.5404,-1.5271,-1.5284,-1.5391,-1.5391,-1.5431,-1.5507,-1.5704,-1.5667,-1.5379,-1.4688,-1.4217,-1.4038,-1.4276,-1.448,-1.4987,-1.5503,-1.6253,-1.7141,-1.7365,-1.7513,-1.7884,-1.8786,-2.003,-2.1628,-2.3401,-2.4603,-2.51,-2.5195,-2.5195,-2.5195,-2.4718,-2.4218,-2.3736,-2.2859,-2.1974,-2.1213,-2.0232,-1.9734,-2.0136,-2.1117,-2.1795,-2.2031,-2.3167,-2.3862,-2.3224,-2.2763,-2.2275,-2.1828,-2.1309,-2.0953,-2.0845,-2.0734,-2.03,-1.9662,-1.9275,-1.9238,-1.9735,-1.9722,-2.0023,-2.0625,-2.0704,-2.0395,-1.9983,-1.9983,-2.0277,-2.0585,-2.181,-2.302,-2.3538,-2.443,-2.5333,-2.5645,-2.5645,-2.5742,-2.5723,-2.5723,-2.5723,-2.5644,-2.5467,-2.5317,-2.5065,-2.4965,-2.4766,-1.5832,-1.5832,-1.5832,-1.5658,-1.5404,-1.5351,-1.5231,-1.5124,-1.5257,-1.4927,-1.4375,-1.4595,-1.4586,-1.4435,-1.4741,-1.4883,-1.495,-1.487,-1.4705,-1.4475,-1.4705,-1.4705,-1.4514,-1.4747,-1.5088,-1.5338,-1.5698,-1.5832,-1.5805,-1.5645,-1.5551,-1.5498,-1.5431,-1.5444,-1.5511,-1.5511,-1.5591,-1.5827,-1.6109,-1.6353,-1.6374,-1.5729,-1.5283,-1.5481,-1.5263,-1.5197,-1.5605,-1.5871,-1.642,-1.7248,-1.7194,-1.7248,-1.7539,-1.8302,-1.9592,-2.1494,-2.3932,-2.5412,-2.5723,-2.5723,-2.5723,-2.5645,-2.5333,-2.4941,-2.4529,-2.3836,-2.302,-2.2248,-2.1212,-2.0524,-2.0197,-2.1028,-2.1518,-2.1878,-2.3238,-2.39,-2.3636,-2.3367,-2.3037,-2.2529,-2.1812,-2.1269,-2.0852,-2.0464,-2.013,-1.9924,-1.9568,-1.9579,-2.019,-2.01,-2.0109,-2.0759,-2.0925,-2.0704,-2.0395,-2.0395,-2.0292,-2.0585,-2.1607,-2.2535,-2.3138,-2.4035,-2.4843,-2.5235,-2.5547,-2.5742,-2.5742,-2.5723,-2.5723,-2.5664,-2.5449,-2.5156,-2.5055,-2.4824,-2.4805,-1.5832,-1.5845,-1.5832,-1.5712,-1.5444,-1.5965,-1.5885,-1.5471,-1.5952,-1.5792,-1.5055,-1.5214,-1.5251,-1.4906,-1.4717,-1.471,-1.491,-1.4696,-1.4723,-1.4834,-1.4696,-1.471,-1.4977,-1.4839,-1.4995,-1.5484,-1.5738,-1.5845,-1.5805,-1.5311,-1.5284,-1.5765,-1.5551,-1.5551,-1.5778,-1.5805,-1.577,-1.5853,-1.6183,-1.6427,-1.6636,-1.6605,-1.6199,-1.5758,-1.6061,-1.6163,-1.6084,-1.6964,-1.7515,-1.7542,-1.7288,-1.7168,-1.7271,-1.7042,-1.8411,-2.1016,-2.3257,-2.4833,-2.5567,-2.5723,-2.5723,-2.5723,-2.5645,-2.543,-2.4941,-2.4529,-2.3899,-2.2902,-2.2845,-2.2312,-2.1075,-2.1313,-2.185,-2.2426,-2.2994,-2.343,-2.356,-2.3636,-2.3377,-2.253,-2.2079,-2.141,-2.0564,-2.0114,-1.9987,-1.9924,-1.9892,-2.0035,-2.0353,-2.0432,-2.0591,-2.0813,-2.0925,-2.0925,-2.0822,-2.0719,-2.0822,-2.0909,-2.142,-2.2232,-2.2837,-2.3538,-2.4233,-2.4941,-2.543,-2.5645,-2.5645,-2.5723,-2.5723,-2.5703,-2.5703,-2.5508,-2.5352,-2.5586,-2.5527,-1.6343,-1.6505,-1.6393,-1.6326,-1.6259,-1.646,-1.642,-1.6259,-1.646,-1.6427,-1.6035,-1.5779,-1.5564,-1.5486,-1.4986,-1.4856,-1.495,-1.4856,-1.487,-1.495,-1.4856,-1.4963,-1.5244,-1.5325,-1.5576,-1.5952,-1.6072,-1.6019,-1.5832,-1.5605,-1.5618,-1.5765,-1.5725,-1.5818,-1.6059,-1.6112,-1.5993,-1.587,-1.6255,-1.6754,-1.7217,-1.7048,-1.6972,-1.6924,-1.6688,-1.6557,-1.6456,-1.6866,-1.7101,-1.7288,-1.7208,-1.7235,-1.7486,-1.8554,-1.9836,-2.1428,-2.3386,-2.4771,-2.5509,-2.5723,-2.5723,-2.5723,-2.5723,-2.5645,-2.543,-2.502,-2.4417,-2.3724,-2.326,-2.2582,-2.159,-2.159,-2.1764,-2.1812,-2.2182,-2.2631,-2.311,-2.3315,-2.3112,-2.2458,-2.1837,-2.0948,-2.0424,-2.013,-2.0194,-2.021,-2.0194,-2.0353,-2.0623,-2.0734,-2.0782,-2.0877,-2.0925,-2.0925,-2.0925,-2.0925,-2.0925,-2.1027,-2.1318,-2.1725,-2.2333,-2.3238,-2.4035,-2.4627,-2.5137,-2.5645,-2.5723,-2.5723,-2.5723,-2.5723,-2.5723,-2.5723,-2.5723,-2.5723,-2.5723,-1.6684,-1.6792,-1.6673,-1.6647,-1.6593,-1.6767,-1.6794,-1.674,-1.6901,-1.6841,-1.666,-1.6357,-1.6155,-1.6021,-1.5577,-1.5378,-1.5364,-1.5204,-1.515,-1.5231,-1.5244,-1.5404,-1.5658,-1.5778,-1.5925,-1.6099,-1.6236,-1.6059,-1.5965,-1.5872,-1.5925,-1.6099,-1.6019,-1.6126,-1.6366,-1.6406,-1.6328,-1.6338,-1.6619,-1.7109,-1.7482,-1.7405,-1.7368,-1.7488,-1.7194,-1.6981,-1.6994,-1.6994,-1.7074,-1.7248,-1.7208,-1.7194,-1.7495,-1.873,-2.0101,-2.1276,-2.281,-2.43,-2.5314,-2.5645,-2.5723,-2.5723,-2.5723,-2.5723,-2.5645,-2.5333,-2.4887,-2.4369,-2.41,-2.3468,-2.2408,-2.2302,-2.2031,-2.1369,-2.1384,-2.1935,-2.2678,-2.3195,-2.3243,-2.2871,-2.2016,-2.1081,-2.0327,-2.0373,-2.0353,-2.04,-2.048,-2.0686,-2.0861,-2.0925,-2.0925,-2.0925,-2.0925,-2.0925,-2.0925,-2.0941,-2.0941,-2.1059,-2.1027,-2.142,-2.1928,-2.282,-2.3737,-2.4233,-2.4843,-2.543,-2.5723,-2.5723,-2.5723,-2.5723,-2.5723,-2.5723,-2.5723,-2.5723,-2.5723,-1.6779,-1.642,-1.6607,-1.6633,-1.6513,-1.6954,-1.6981,-1.6887,-1.7301,-1.7203,-1.6878,-1.6962,-1.6787,-1.6647,-1.6222,-1.6179,-1.6032,-1.5631,-1.5551,-1.5738,-1.5752,-1.5912,-1.6179,-1.6005,-1.5952,-1.6005,-1.5912,-1.6032,-1.6259,-1.6059,-1.6166,-1.654,-1.6393,-1.642,-1.6714,-1.6727,-1.6847,-1.6959,-1.7141,-1.7288,-1.7542,-1.7555,-1.7555,-1.7582,-1.7542,-1.7515,-1.7528,-1.7542,-1.7515,-1.7515,-1.7315,-1.7021,-1.6988,-1.7666,-1.8711,-2.0384,-2.1691,-2.3144,-2.4669,-2.5333,-2.5645,-2.5723,-2.5723,-2.5723,-2.5742,-2.5625,-2.5392,-2.5004,-2.5082,-2.4967,-2.3703,-2.3148,-2.2512,-2.1181,-2.1129,-2.1482,-2.2258,-2.3472,-2.4145,-2.3535,-2.2617,-2.1691,-2.0966,-2.0632,-2.0564,-2.0512,-2.0686,-2.0861,-2.0909,-2.0925,-2.0925,-2.0956,-2.102,-2.1068,-2.1004,-2.0956,-2.0972,-2.0972,-2.0941,-2.113,-2.1623,-2.2417,-2.332,-2.3935,-2.5039,-2.5528,-2.5723,-2.5723,-2.5723,-2.5723,-2.5723,-2.5742,-2.5723,-2.5723,-2.5723,-1.7306,-1.7181,-1.7275,-1.7261,-1.7194,-1.7382,-1.7382,-1.7328,-1.7515,-1.7526,-1.7284,-1.6941,-1.674,-1.6612,-1.6179,-1.5979,-1.5965,-1.5965,-1.5952,-1.5845,-1.5832,-1.6005,-1.6246,-1.638,-1.654,-1.6714,-1.674,-1.666,-1.6553,-1.646,-1.6553,-1.6647,-1.662,-1.6727,-1.6994,-1.7021,-1.7154,-1.7408,-1.7448,-1.7502,-1.7582,-1.7595,-1.7582,-1.7582,-1.7582,-1.7582,-1.7582,-1.7582,-1.7582,-1.7582,-1.7502,-1.7408,-1.7432,-1.7936,-1.8891,-2.0296,-2.1325,-2.2763,-2.4295,-2.4941,-2.5333,-2.5645,-2.5723,-2.5723,-2.5723,-2.5723,-2.5509,-2.516,-2.5178,-2.4813,-2.3881,-2.3107,-2.2464,-2.1553,-2.1508,-2.176,-2.2427,-2.3317,-2.3673,-2.3444,-2.2743,-2.2051,-2.1527,-2.1146,-2.0921,-2.082,-2.0845,-2.0909,-2.0925,-2.0956,-2.1052,-2.1211,-2.1258,-2.1338,-2.1401,-2.1433,-2.1433,-2.1338,-2.1227,-2.1147,-2.1599,-2.2384,-2.316,-2.4162,-2.5153,-2.5644,-2.5723,-2.584,-2.5898,-2.584,-2.5859,-2.582,-2.5762,-2.582,-2.5937,-1.7203,-1.7248,-1.7261,-1.7261,-1.7248,-1.7261,-1.7248,-1.7261,-1.7261,-1.7378,-1.74,-1.7089,-1.66,-1.6381,-1.6095,-1.6005,-1.6005,-1.6192,-1.6179,-1.6046,-1.6126,-1.6259,-1.6433,-1.6607,-1.6794,-1.6954,-1.6981,-1.6887,-1.6714,-1.6714,-1.6767,-1.6847,-1.6874,-1.7021,-1.7288,-1.7315,-1.7408,-1.7569,-1.7582,-1.7635,-1.7729,-1.7756,-1.7809,-1.7903,-1.7929,-1.7916,-1.7916,-1.7916,-1.7809,-1.7635,-1.7582,-1.7582,-1.7582,-1.7884,-1.8617,-1.9761,-2.0775,-2.1996,-2.3719,-2.443,-2.5039,-2.5528,-2.5723,-2.5723,-2.5723,-2.5723,-2.5586,-2.5391,-2.5332,-2.5119,-2.4507,-2.3688,-2.2997,-2.2399,-2.1926,-2.2065,-2.2786,-2.3522,-2.3937,-2.3839,-2.3542,-2.2832,-2.2244,-2.1728,-2.1623,-2.142,-2.1216,-2.1312,-2.1361,-2.1441,-2.1426,-2.1513,-2.1608,-2.1735,-2.1878,-2.191,-2.1926,-2.1767,-2.1592,-2.1528,-2.1675,-2.3031,-2.4043,-2.508,-2.6106,-2.6326,-2.6426,-2.6367,-2.6387,-2.623,-2.6133,-2.6289,-2.6387,-2.6348,-2.6426,-1.6487,-1.67,-1.6714,-1.6754,-1.6754,-1.6754,-1.6767,-1.674,-1.674,-1.6995,-1.731,-1.7014,-1.6534,-1.6043,-1.6175,-1.6276,-1.6273,-1.6259,-1.6299,-1.6366,-1.654,-1.6714,-1.674,-1.6767,-1.6834,-1.686,-1.686,-1.682,-1.686,-1.6847,-1.6887,-1.7141,-1.7181,-1.7288,-1.7502,-1.7569,-1.7555,-1.7582,-1.7609,-1.7769,-1.8009,-1.8063,-1.8183,-1.8424,-1.8424,-1.841,-1.8397,-1.8384,-1.8183,-1.7729,-1.7716,-1.7729,-1.7662,-1.7635,-1.8058,-1.8898,-1.9879,-2.1183,-2.2601,-2.3719,-2.4627,-2.543,-2.5625,-2.5723,-2.5723,-2.5723,-2.5723,-2.5664,-2.5664,-2.5586,-2.5353,-2.4632,-2.3826,-2.3214,-2.2149,-2.2232,-2.3588,-2.4047,-2.4371,-2.4752,-2.4627,-2.4115,-2.2968,-2.24,-2.2232,-2.23,-2.1824,-2.1767,-2.2204,-2.2143,-2.1973,-2.1921,-2.1866,-2.2024,-2.2166,-2.201,-2.2135,-2.2307,-2.1992,-2.185,-2.2028,-2.3355,-2.4589,-2.5778,-2.6691,-2.6851,-2.6914,-2.6797,-2.6758,-2.6699,-2.6777,-2.6973,-2.6934,-2.6797,-2.6777,-1.6098,-1.6111,-1.6513,-1.67,-1.67,-1.67,-1.67,-1.67,-1.67,-1.6714,-1.6673,-1.6585,-1.6308,-1.581,-1.5893,-1.6059,-1.6246,-1.6299,-1.6406,-1.662,-1.6901,-1.7021,-1.7034,-1.7034,-1.7141,-1.7301,-1.7301,-1.7355,-1.7355,-1.7315,-1.7368,-1.7462,-1.7448,-1.7502,-1.7582,-1.7609,-1.7582,-1.7622,-1.7836,-1.7956,-1.8076,-1.829,-1.841,-1.8477,-1.8517,-1.8517,-1.8504,-1.849,-1.845,-1.829,-1.825,-1.825,-1.8196,-1.8036,-1.8131,-1.8744,-1.9179,-2.0071,-2.1794,-2.2802,-2.38,-2.502,-2.543,-2.5723,-2.5723,-2.5723,-2.5723,-2.5723,-2.5742,-2.5547,-2.5137,-2.4843,-2.4134,-2.2902,-2.2212,-2.2326,-2.3404,-2.4184,-2.473,-2.5333,-2.5039,-2.4467,-2.3673,-2.3007,-2.2672,-2.2775,-2.2465,-2.2061,-2.2761,-2.2683,-2.2371,-2.2196,-2.2167,-2.2308,-2.2323,-2.2178,-2.2224,-2.2592,-2.2434,-2.1993,-2.2413,-2.3453,-2.4682,-2.5909,-2.684,-2.7246,-2.7109,-2.6973,-2.7031,-2.7207,-2.7168,-2.7226,-2.709,-2.6973,-2.7012,-1.5171,-1.548,-1.5862,-1.6045,-1.6072,-1.6374,-1.6526,-1.6553,-1.666,-1.6587,-1.6434,-1.6315,-1.6334,-1.6321,-1.6286,-1.6397,-1.646,-1.6593,-1.674,-1.6914,-1.7194,-1.7315,-1.7328,-1.7341,-1.7422,-1.7555,-1.7582,-1.7582,-1.7569,-1.7582,-1.7582,-1.7569,-1.7582,-1.7649,-1.7782,-1.7782,-1.7849,-1.7969,-1.8156,-1.8277,-1.8424,-1.8584,-1.8744,-1.8824,-1.8865,-1.8865,-1.8865,-1.8865,-1.8758,-1.8557,-1.849,-1.849,-1.8477,-1.833,-1.8346,-1.8755,-1.8786,-1.9657,-2.1068,-2.1978,-2.3103,-2.443,-2.5137,-2.543,-2.5625,-2.5723,-2.5723,-2.5723,-2.5723,-2.543,-2.4941,-2.4627,-2.3836,-2.2937,-2.2469,-2.2588,-2.3155,-2.3719,-2.443,-2.5058,-2.5388,-2.5187,-2.429,-2.3609,-2.3495,-2.3479,-2.2921,-2.3017,-2.3375,-2.3013,-2.2586,-2.2293,-2.2116,-2.2209,-2.2158,-2.2091,-2.1994,-2.2394,-2.2251,-2.1856,-2.2466,-2.3361,-2.4809,-2.5996,-2.6874,-2.7519,-2.7338,-2.7357,-2.7637,-2.7715,-2.7559,-2.7519,-2.748,-2.7363,-2.7383,-1.4039,-1.4594,-1.4846,-1.5051,-1.5248,-1.5927,-1.6281,-1.6295,-1.6593,-1.66,-1.6473,-1.6473,-1.6547,-1.6941,-1.6833,-1.6927,-1.6767,-1.6954,-1.7114,-1.7248,-1.7422,-1.7542,-1.7528,-1.7528,-1.7555,-1.7582,-1.7582,-1.7622,-1.7662,-1.7662,-1.7675,-1.7756,-1.7742,-1.7836,-1.8036,-1.809,-1.8237,-1.8384,-1.849,-1.8624,-1.8798,-1.8918,-1.9065,-1.9225,-1.9265,-1.9265,-1.9292,-1.9292,-1.9118,-1.8624,-1.8584,-1.8637,-1.8611,-1.8584,-1.8531,-1.8588,-1.881,-1.9356,-2.0574,-2.1402,-2.2469,-2.3935,-2.4634,-2.5074,-2.5564,-2.572,-2.5681,-2.5487,-2.5644,-2.5465,-2.4989,-2.4317,-2.3853,-2.3318,-2.3014,-2.286,-2.2842,-2.3362,-2.4063,-2.4876,-2.5833,-2.5786,-2.521,-2.4693,-2.4508,-2.4316,-2.3734,-2.3386,-2.3603,-2.3393,-2.2751,-2.2173,-2.2024,-2.1957,-2.1972,-2.1972,-2.1858,-2.1972,-2.1631,-2.1556,-2.1994,-2.3086,-2.4624,-2.5846,-2.6528,-2.7188,-2.7835,-2.7912,-2.8096,-2.8144,-2.7949,-2.8086,-2.8203,-2.7988,-2.793,-1.2531,-1.3215,-1.4103,-1.4529,-1.4807,-1.5595,-1.6021,-1.6021,-1.6487,-1.6653,-1.6613,-1.6487,-1.6513,-1.6841,-1.6995,-1.7049,-1.7048,-1.7154,-1.7261,-1.7488,-1.7528,-1.7582,-1.7595,-1.7595,-1.7595,-1.7609,-1.7595,-1.7716,-1.7889,-1.7969,-1.8063,-1.8237,-1.821,-1.8317,-1.837,-1.8397,-1.841,-1.8531,-1.8718,-1.8865,-1.8971,-1.9158,-1.9279,-1.9372,-1.9372,-1.9372,-1.9372,-1.9372,-1.9305,-1.9212,-1.9145,-1.9105,-1.9078,-1.8931,-1.8838,-1.8771,-1.8668,-1.9029,-1.986,-2.0956,-2.1989,-2.3201,-2.4118,-2.4966,-2.5396,-2.5748,-2.5616,-2.5282,-2.5496,-2.559,-2.5201,-2.4657,-2.4396,-2.4293,-2.4382,-2.4122,-2.3948,-2.4017,-2.4584,-2.5358,-2.6168,-2.657,-2.5834,-2.5203,-2.5108,-2.4987,-2.4485,-2.3737,-2.3558,-2.3484,-2.2798,-2.1873,-2.1531,-2.1417,-2.1447,-2.1476,-2.1536,-2.1465,-2.1234,-2.1133,-2.158,-2.2208,-2.3698,-2.4975,-2.5918,-2.6754,-2.7568,-2.8114,-2.833,-2.8272,-2.8359,-2.8476,-2.8535,-2.8437,-2.8476,-1.1934,-1.2435,-1.3467,-1.3948,-1.4185,-1.5017,-1.5475,-1.5614,-1.6137,-1.6497,-1.66,-1.6587,-1.6793,-1.7114,-1.723,-1.7338,-1.7432,-1.7355,-1.7435,-1.7555,-1.7582,-1.7582,-1.7635,-1.7729,-1.7796,-1.7796,-1.7809,-1.7969,-1.8183,-1.8263,-1.833,-1.8477,-1.8504,-1.8544,-1.8677,-1.8704,-1.8784,-1.8918,-1.9038,-1.9132,-1.9172,-1.9279,-1.9372,-1.9372,-1.9372,-1.9372,-1.9372,-1.9372,-1.9372,-1.9372,-1.9372,-1.9372,-1.9359,-1.9225,-1.9145,-1.9078,-1.8851,-1.9027,-1.9764,-2.0281,-2.1032,-2.2156,-2.3207,-2.3947,-2.4491,-2.5118,-2.5252,-2.5003,-2.5076,-2.5326,-2.4927,-2.4927,-2.4823,-2.4859,-2.5089,-2.4968,-2.4544,-2.4192,-2.4386,-2.5068,-2.5681,-2.6087,-2.5829,-2.5587,-2.513,-2.4855,-2.4343,-2.3673,-2.2448,-2.2348,-2.1926,-2.1303,-2.0945,-2.0845,-2.0773,-2.0845,-2.0988,-2.0971,-2.0732,-2.0906,-2.1185,-2.1774,-2.2467,-2.3829,-2.5266,-2.6409,-2.7247,-2.7796,-2.8404,-2.8622,-2.875,-2.8809,-2.8906,-2.8984,-2.9023,-1.1773,-1.1954,-1.2895,-1.3339,-1.3506,-1.441,-1.4908,-1.4954,-1.5459,-1.6025,-1.6511,-1.663,-1.7095,-1.7345,-1.7542,-1.7569,-1.7569,-1.7569,-1.7569,-1.7582,-1.7675,-1.7702,-1.7769,-1.7862,-1.7952,-1.8061,-1.8021,-1.818,-1.8366,-1.8446,-1.8512,-1.8526,-1.8651,-1.8798,-1.8958,-1.8998,-1.9078,-1.9252,-1.9292,-1.9372,-1.9426,-1.9466,-1.9479,-1.9573,-1.9586,-1.9586,-1.9586,-1.9573,-1.9546,-1.9506,-1.9506,-1.9506,-1.9479,-1.9386,-1.9372,-1.9345,-1.9105,-1.9226,-1.9511,-1.9892,-2.0413,-2.1215,-2.2209,-2.2872,-2.3533,-2.4332,-2.4598,-2.4632,-2.4527,-2.458,-2.4351,-2.4792,-2.488,-2.5092,-2.5344,-2.5362,-2.4806,-2.4098,-2.4136,-2.458,-2.5201,-2.5666,-2.5989,-2.5973,-2.541,-2.465,-2.4094,-2.3328,-2.2199,-2.1402,-2.1203,-2.1032,-2.0715,-2.0798,-2.0868,-2.0545,-2.0656,-2.0726,-2.064,-2.0681,-2.099,-2.1594,-2.2376,-2.3483,-2.4721,-2.5828,-2.7031,-2.779,-2.8347,-2.8771,-2.9141,-2.9199,-2.9355,-2.9551,-2.9531,-1.2333,-1.2308,-1.2625,-1.282,-1.3076,-1.3987,-1.4308,-1.4426,-1.4888,-1.5339,-1.5779,-1.6906,-1.7,-1.7067,-1.7371,-1.7582,-1.7477,-1.7371,-1.749,-1.7556,-1.7595,-1.7714,-1.7807,-1.7974,-1.7987,-1.8104,-1.8138,-1.8151,-1.822,-1.8525,-1.849,-1.8557,-1.8942,-1.9225,-1.9225,-1.9292,-1.9292,-1.9399,-1.9426,-1.9506,-1.9679,-1.9733,-1.9813,-1.9973,-1.9987,-2.0,-2.004,-2.0067,-2.0094,-2.0094,-2.008,-2.0067,-1.9947,-1.9626,-1.9452,-1.9426,-1.9386,-1.9461,-1.9537,-1.9943,-2.0345,-2.09,-2.1774,-2.256,-2.3118,-2.3971,-2.4132,-2.3871,-2.3729,-2.3687,-2.4022,-2.4597,-2.5103,-2.5357,-2.5666,-2.5864,-2.5081,-2.4336,-2.3921,-2.4326,-2.4885,-2.5265,-2.5392,-2.5428,-2.4803,-2.3966,-2.3295,-2.2472,-2.1391,-2.1032,-2.0917,-2.0772,-2.0625,-2.0774,-2.1026,-2.0575,-2.0509,-2.075,-2.0711,-2.0591,-2.0981,-2.1661,-2.2483,-2.3022,-2.4069,-2.5192,-2.6329,-2.735,-2.8182,-2.8596,-2.9103,-2.9609,-2.9672,-2.9695,-2.9805,-1.2442,-1.2402,-1.2519,-1.2567,-1.2762,-1.3305,-1.3521,-1.363,-1.3954,-1.4374,-1.4922,-1.5708,-1.6135,-1.6324,-1.6524,-1.6736,-1.6736,-1.6736,-1.6813,-1.6845,-1.6984,-1.7148,-1.7398,-1.7715,-1.7528,-1.7412,-1.7285,-1.7576,-1.7749,-1.7993,-1.8172,-1.848,-1.8777,-1.901,-1.9359,-1.9359,-1.9466,-1.9533,-1.9599,-1.9733,-1.9987,-2.0027,-2.012,-2.0187,-2.0241,-2.0241,-2.0241,-2.0241,-2.0227,-2.0227,-2.0227,-2.0241,-2.0147,-2.0027,-1.9813,-1.98,-1.98,-1.98,-1.9813,-2.0169,-2.0274,-2.0482,-2.119,-2.1784,-2.2284,-2.2956,-2.3487,-2.3484,-2.3435,-2.3389,-2.3424,-2.4223,-2.4667,-2.4889,-2.5331,-2.5348,-2.4906,-2.3904,-2.3713,-2.3729,-2.3664,-2.3855,-2.4156,-2.4061,-2.3838,-2.3295,-2.2523,-2.1735,-2.0713,-2.0625,-2.0522,-2.0559,-2.0447,-2.0557,-2.0805,-2.0631,-2.0307,-2.0578,-2.0713,-2.0713,-2.0821,-2.1371,-2.1689,-2.2067,-2.3211,-2.4354,-2.526,-2.6097,-2.7196,-2.8307,-2.8859,-2.9298,-2.9642,-2.9795,-2.9698,-1.2412,-1.2436,-1.2436,-1.2436,-1.2436,-1.2663,-1.2772,-1.2881,-1.2989,-1.3413,-1.3954,-1.4385,-1.4934,-1.547,-1.5684,-1.5684,-1.5731,-1.5767,-1.5898,-1.6113,-1.6232,-1.6363,-1.6666,-1.7044,-1.711,-1.6391,-1.5876,-1.6245,-1.6962,-1.7208,-1.7572,-1.783,-1.8064,-1.8532,-1.901,-1.9336,-1.9599,-1.9733,-1.988,-2.004,-2.0254,-2.0374,-2.0401,-2.0414,-2.0401,-2.0441,-2.0481,-2.0481,-2.0481,-2.0454,-2.0388,-2.0334,-2.0321,-2.0321,-2.0321,-2.0321,-2.0281,-2.0241,-2.0214,-2.0201,-2.0254,-2.0241,-2.0585,-2.1081,-2.1554,-2.2206,-2.2793,-2.323,-2.336,-2.3328,-2.3231,-2.3664,-2.4111,-2.4144,-2.4401,-2.4468,-2.4311,-2.3683,-2.2996,-2.2735,-2.2383,-2.2596,-2.3083,-2.3294,-2.3115,-2.2713,-2.2064,-2.1379,-2.0565,-2.0223,-2.0278,-2.0307,-2.0281,-2.0268,-2.0389,-2.0469,-2.0361,-2.0483,-2.0483,-2.0483,-2.0727,-2.0956,-2.1129,-2.1392,-2.2108,-2.3245,-2.407,-2.4817,-2.578,-2.69,-2.8228,-2.875,-2.8473,-2.8801,-2.8993,-1.2417,-1.2436,-1.2436,-1.2436,-1.2436,-1.2436,-1.2436,-1.2436,-1.2545,-1.2663,-1.3088,-1.363,-1.418,-1.4752,-1.4815,-1.5036,-1.5183,-1.5263,-1.5376,-1.5603,-1.5784,-1.5898,-1.6253,-1.7055,-1.648,-1.5729,-1.4687,-1.4837,-1.5688,-1.6279,-1.6526,-1.6644,-1.7467,-1.8181,-1.8621,-1.9233,-1.976,-1.984,-2.0067,-2.0334,-2.0615,-2.0842,-2.0935,-2.0949,-2.0949,-2.0922,-2.0882,-2.0869,-2.0882,-2.0909,-2.0722,-2.0628,-2.0628,-2.0628,-2.0628,-2.0548,-2.0401,-2.0241,-2.0294,-2.0334,-2.0334,-2.0469,-2.0698,-2.1018,-2.137,-2.1906,-2.2543,-2.2528,-2.2902,-2.3117,-2.3149,-2.3408,-2.3601,-2.3618,-2.3682,-2.3893,-2.3729,-2.32,-2.261,-2.2171,-2.1979,-2.195,-2.2169,-2.2372,-2.2387,-2.1994,-2.1427,-2.0948,-2.0509,-2.0295,-2.0094,-2.0187,-2.0241,-2.0241,-2.0241,-2.0334,-2.0347,-2.0347,-2.0307,-2.0294,-2.0335,-2.0523,-2.0563,-2.0884,-2.1477,-2.2078,-2.287,-2.3582,-2.444,-2.526,-2.6251,-2.6615,-2.677,-2.7301,-2.7943,-1.2436,-1.2436,-1.2436,-1.2436,-1.2436,-1.2436,-1.2436,-1.2436,-1.2436,-1.2436,-1.2654,-1.3088,-1.3593,-1.4025,-1.3905,-1.404,-1.4452,-1.4505,-1.4622,-1.4802,-1.5077,-1.5184,-1.5312,-1.5569,-1.5375,-1.4888,-1.4143,-1.4023,-1.4629,-1.5116,-1.5472,-1.5946,-1.6537,-1.7445,-1.8158,-1.9022,-1.964,-2.0146,-2.0575,-2.0788,-2.0922,-2.1029,-2.1109,-2.1109,-2.1109,-2.1109,-2.1096,-2.0922,-2.0975,-2.1002,-2.0842,-2.0775,-2.0869,-2.0922,-2.0922,-2.0909,-2.0815,-2.0748,-2.0735,-2.0722,-2.0695,-2.0655,-2.0821,-2.0889,-2.1222,-2.1799,-2.2305,-2.2305,-2.2757,-2.3014,-2.3099,-2.3594,-2.3494,-2.3425,-2.334,-2.3068,-2.3027,-2.2616,-2.2215,-2.1886,-2.1661,-2.168,-2.1608,-2.146,-2.1565,-2.1202,-2.0953,-2.0725,-2.0591,-2.0604,-2.0361,-2.0214,-2.0241,-2.0241,-2.0241,-2.0267,-2.0254,-2.0227,-2.0054,-2.0027,-1.9947,-2.0039,-2.016,-2.0147,-2.0479,-2.1061,-2.1654,-2.2334,-2.315,-2.3638,-2.4109,-2.4713,-2.5225,-2.5724,-2.6539,-1.2321,-1.2367,-1.2374,-1.2436,-1.2436,-1.2436,-1.2436,-1.2436,-1.2436,-1.2474,-1.2531,-1.2688,-1.3024,-1.3354,-1.3394,-1.3615,-1.3824,-1.3834,-1.3973,-1.4093,-1.4172,-1.4262,-1.4351,-1.4411,-1.4411,-1.4052,-1.3913,-1.3842,-1.401,-1.426,-1.4871,-1.5308,-1.5818,-1.6657,-1.7805,-1.8713,-1.9562,-2.0722,-2.0935,-2.1056,-2.1082,-2.1082,-2.1162,-2.1176,-2.1162,-2.1136,-2.1162,-2.0962,-2.0962,-2.1002,-2.0842,-2.0802,-2.1015,-2.1056,-2.1136,-2.1203,-2.1256,-2.1336,-2.1256,-2.1176,-2.1136,-2.1042,-2.0949,-2.0956,-2.1149,-2.1633,-2.1925,-2.191,-2.2364,-2.2825,-2.3093,-2.3535,-2.3489,-2.3268,-2.3257,-2.2826,-2.2392,-2.2151,-2.2286,-2.2556,-2.218,-2.152,-2.1343,-2.0846,-2.0618,-2.0443,-2.0361,-2.0361,-2.0441,-2.0561,-2.0388,-2.0147,-2.0107,-2.0067,-1.9973,-2.0013,-2.0054,-2.016,-2.0,-1.9933,-1.996,-1.9987,-2.0201,-2.0,-1.9907,-2.0199,-2.0948,-2.1413,-2.1846,-2.2038,-2.227,-2.3061,-2.3673,-2.4282,-2.5093,-1.2271,-1.2188,-1.2266,-1.2337,-1.2337,-1.2436,-1.2436,-1.2474,-1.2455,-1.2569,-1.2758,-1.2664,-1.2852,-1.3155,-1.3422,-1.3519,-1.3479,-1.3479,-1.3594,-1.3708,-1.3794,-1.3775,-1.3933,-1.3933,-1.3822,-1.3842,-1.374,-1.3835,-1.3939,-1.4108,-1.4353,-1.4587,-1.5196,-1.5942,-1.7122,-1.8444,-1.9661,-2.0585,-2.0969,-2.1009,-2.1022,-2.1049,-2.1142,-2.1416,-2.1296,-2.1229,-2.1483,-2.1243,-2.1136,-2.1203,-2.0962,-2.0949,-2.1203,-2.1243,-2.1349,-2.151,-2.1683,-2.1764,-2.1724,-2.1456,-2.1176,-2.1122,-2.1056,-2.0975,-2.1064,-2.1451,-2.1642,-2.1695,-2.204,-2.2556,-2.2841,-2.3123,-2.3184,-2.2976,-2.2676,-2.2451,-2.2118,-2.204,-2.2311,-2.2976,-2.2554,-2.1562,-2.1264,-2.086,-2.0537,-2.0334,-2.0294,-2.0294,-2.0281,-2.0347,-2.0187,-2.0027,-1.996,-1.984,-1.9599,-1.972,-2.0147,-2.0281,-2.0201,-2.016,-2.016,-2.0187,-2.016,-2.0241,-2.0201,-2.0201,-2.0201,-2.0818,-2.092,-2.0316,-2.0424,-2.1672,-2.2549,-2.3162,-2.386,-1.273,-1.1942,-1.099,-1.1177,-1.2072,-1.2274,-1.2512,-1.2625,-1.2644,-1.2758,-1.2956,-1.2918,-1.3021,-1.3355,-1.3519,-1.3625,-1.3561,-1.357,-1.3627,-1.3655,-1.3693,-1.3693,-1.3693,-1.3712,-1.375,-1.3854,-1.4023,-1.4118,-1.4175,-1.4194,-1.4298,-1.4558,-1.4883,-1.5576,-1.6642,-1.8242,-1.9574,-2.017,-2.0488,-2.0527,-2.0593,-2.0361,-2.0605,-2.1764,-2.1228,-2.1306,-2.1633,-2.1537,-2.1523,-2.151,-2.1323,-2.1416,-2.1563,-2.1603,-2.1697,-2.1817,-2.1991,-2.2031,-2.2017,-2.1764,-2.159,-2.1349,-2.1216,-2.1056,-2.0975,-2.1132,-2.1175,-2.1369,-2.1726,-2.2176,-2.2356,-2.2701,-2.2704,-2.2432,-2.219,-2.1947,-2.184,-2.1775,-2.1854,-2.2326,-2.1847,-2.0994,-2.0846,-2.0832,-2.0524,-2.0334,-2.0281,-2.0241,-2.0281,-2.0321,-2.0241,-2.0227,-2.0201,-2.0214,-2.0027,-2.0174,-2.0361,-2.0388,-2.0414,-2.0414,-2.0401,-2.0241,-2.0241,-2.0374,-2.0508,-2.0508,-2.0481,-2.0414,-2.0322,-2.0118,-2.0183,-2.069,-2.1464,-2.2169,-2.2806,-1.2786,-1.1444,-0.9988,-1.0189,-1.15,-1.1824,-1.221,-1.2608,-1.2514,-1.2861,-1.3164,-1.3105,-1.3091,-1.3212,-1.2885,-1.3177,-1.3168,-1.3306,-1.3555,-1.3573,-1.3693,-1.3693,-1.3703,-1.3769,-1.3751,-1.4005,-1.4365,-1.4471,-1.4402,-1.4402,-1.4525,-1.4728,-1.4846,-1.5395,-1.6233,-1.7803,-1.9212,-1.9799,-1.9749,-1.9848,-1.9931,-1.9622,-1.9695,-2.094,-2.0758,-2.0915,-2.1319,-2.1474,-2.1617,-2.1697,-2.1724,-2.183,-2.1991,-2.2124,-2.2164,-2.2205,-2.2245,-2.2231,-2.2218,-2.2031,-2.1911,-2.1683,-2.1416,-2.1189,-2.1042,-2.1056,-2.1088,-2.1007,-2.1491,-2.1853,-2.1978,-2.2391,-2.2414,-2.2153,-2.2451,-2.2313,-2.1614,-2.1368,-2.138,-2.154,-2.1227,-2.1241,-2.0958,-2.108,-2.0659,-2.0468,-2.0441,-2.0441,-2.0481,-2.0521,-2.0548,-2.0561,-2.0601,-2.0628,-2.0668,-2.0628,-2.0601,-2.0735,-2.0748,-2.0708,-2.0641,-2.0508,-2.0508,-2.0695,-2.0802,-2.0802,-2.0775,-2.0735,-2.0521,-2.0254,-2.0348,-2.055,-2.0948,-2.1698,-2.2097,-1.225,-1.0753,-0.9838,-1.0045,-1.0892,-1.0964,-1.1402,-1.2135,-1.2161,-1.2614,-1.3156,-1.2702,-1.2534,-1.244,-1.1935,-1.208,-1.2706,-1.2844,-1.3102,-1.349,-1.375,-1.3721,-1.3676,-1.3779,-1.392,-1.4071,-1.4481,-1.4692,-1.4629,-1.4619,-1.4742,-1.4837,-1.4837,-1.5255,-1.5704,-1.6861,-1.8148,-1.9102,-1.8782,-1.8983,-1.909,-1.8617,-1.8841,-1.9625,-2.0098,-2.0266,-2.0758,-2.1437,-2.1697,-2.171,-2.1871,-2.2017,-2.2218,-2.2271,-2.2392,-2.2605,-2.2686,-2.2752,-2.2779,-2.2298,-2.2071,-2.1964,-2.171,-2.1496,-2.143,-2.1323,-2.1109,-2.1029,-2.1209,-2.1488,-2.1853,-2.209,-2.2048,-2.1964,-2.2128,-2.2086,-2.1383,-2.1163,-2.1176,-2.1324,-2.1789,-2.2133,-2.1602,-2.1259,-2.0765,-2.0601,-2.0601,-2.0628,-2.0681,-2.0655,-2.0681,-2.0842,-2.0909,-2.0975,-2.0975,-2.0855,-2.0855,-2.1002,-2.1069,-2.1015,-2.1015,-2.0989,-2.1015,-2.1096,-2.1029,-2.0962,-2.1015,-2.1069,-2.0815,-2.0561,-2.0414,-2.0469,-2.0887,-2.1264,-2.1605,-1.1356,-1.0383,-0.9852,-0.975,-1.0135,-1.0724,-1.124,-1.1637,-1.1871,-1.2328,-1.2746,-1.2217,-1.1993,-1.1872,-1.1752,-1.1752,-1.2113,-1.2603,-1.3,-1.3274,-1.3648,-1.4005,-1.3957,-1.389,-1.401,-1.4402,-1.4798,-1.4904,-1.4837,-1.4808,-1.4846,-1.4922,-1.4941,-1.541,-1.6105,-1.687,-1.7239,-1.7784,-1.7673,-1.7629,-1.796,-1.7544,-1.7708,-1.8991,-1.928,-1.9817,-2.0298,-2.1202,-2.1633,-2.1777,-2.1937,-2.2044,-2.2151,-2.2164,-2.2205,-2.2352,-2.2418,-2.2672,-2.2779,-2.2619,-2.2485,-2.2258,-2.2017,-2.1764,-2.1577,-2.1483,-2.1323,-2.1189,-2.1189,-2.1429,-2.1348,-2.1488,-2.1434,-2.1257,-2.13,-2.1341,-2.0926,-2.097,-2.0999,-2.1149,-2.153,-2.1423,-2.1162,-2.1281,-2.1115,-2.0895,-2.0895,-2.0909,-2.0949,-2.0802,-2.0748,-2.1029,-2.1176,-2.1269,-2.1283,-2.1189,-2.1149,-2.1269,-2.1309,-2.1283,-2.1309,-2.1323,-2.1269,-2.1216,-2.1149,-2.1109,-2.1122,-2.1109,-2.1042,-2.0882,-2.0815,-2.0735,-2.0943,-2.1121,-2.123,-1.0379,-1.0084,-0.9916,-0.9787,-0.9765,-1.034,-1.0832,-1.1224,-1.1583,-1.2001,-1.2234,-1.176,-1.1398,-1.139,-1.1277,-1.1277,-1.1518,-1.1833,-1.2725,-1.2908,-1.3473,-1.3918,-1.402,-1.4131,-1.4205,-1.4629,-1.4733,-1.4827,-1.4912,-1.4931,-1.4931,-1.4931,-1.4941,-1.5308,-1.5893,-1.6115,-1.6467,-1.6834,-1.6781,-1.6729,-1.6734,-1.6643,-1.6633,-1.7642,-1.8324,-1.9006,-1.9842,-2.0704,-2.1569,-2.1726,-2.1911,-2.1964,-2.1977,-2.1991,-2.1991,-2.2058,-2.2151,-2.2378,-2.2458,-2.2645,-2.2485,-2.2392,-2.2218,-2.2058,-2.1857,-2.179,-2.1643,-2.151,-2.1403,-2.1323,-2.1269,-2.1256,-2.1149,-2.0989,-2.1015,-2.1056,-2.0975,-2.102,-2.1159,-2.1175,-2.1162,-2.098,-2.0949,-2.1162,-2.1349,-2.1269,-2.1203,-2.1189,-2.1189,-2.1069,-2.0935,-2.1136,-2.1376,-2.1483,-2.1537,-2.1537,-2.1523,-2.155,-2.1496,-2.143,-2.143,-2.1403,-2.1363,-2.1349,-2.1363,-2.1323,-2.1189,-2.1136,-2.1216,-2.1309,-2.1363,-2.1269,-2.1149,-2.1149,-2.1189,-0.9252,-0.9764,-0.9794,-0.9813,-0.9781,-0.9786,-1.0172,-1.0778,-1.139,-1.1639,-1.1752,-1.1027,-1.0785,-1.0664,-1.0186,-1.0322,-1.0837,-1.1087,-1.1921,-1.2738,-1.326,-1.3833,-1.4187,-1.4298,-1.451,-1.4585,-1.4799,-1.4884,-1.4931,-1.467,-1.467,-1.467,-1.467,-1.4894,-1.5195,-1.5449,-1.5853,-1.6054,-1.5984,-1.5964,-1.6044,-1.5853,-1.5813,-1.6488,-1.712,-1.79,-1.8724,-1.9585,-2.0592,-2.1228,-2.1646,-2.1897,-2.1964,-2.1977,-2.1991,-2.2017,-2.2058,-2.2111,-2.2191,-2.2418,-2.2392,-2.2338,-2.2338,-2.2365,-2.2338,-2.2151,-2.1977,-2.1911,-2.183,-2.1683,-2.1577,-2.1496,-2.1416,-2.139,-2.1403,-2.1349,-2.1229,-2.1203,-2.1256,-2.1383,-2.1397,-2.1323,-2.1416,-2.159,-2.139,-2.1376,-2.1269,-2.1269,-2.1296,-2.1443,-2.1323,-2.1256,-2.1483,-2.1657,-2.171,-2.1657,-2.171,-2.1683,-2.1537,-2.147,-2.1483,-2.1563,-2.1617,-2.1643,-2.163,-2.1563,-2.1483,-2.1483,-2.1537,-2.163,-2.1697,-2.163,-2.147,-2.1363,-2.1349,-0.9169,-0.9676,-0.97,-0.9788,-0.9808,-0.9774,-1.0144,-1.0785,-1.0543,-1.0671,-1.1277,-1.0429,-1.0186,-1.0065,-0.9943,-1.0012,-1.0327,-1.0798,-1.1713,-1.2463,-1.308,-1.3979,-1.4456,-1.466,-1.4707,-1.4725,-1.4763,-1.467,-1.467,-1.4539,-1.3875,-1.3473,-1.4006,-1.4191,-1.4463,-1.4838,-1.5214,-1.5394,-1.5288,-1.5288,-1.5308,-1.5269,-1.5231,-1.5633,-1.6265,-1.7033,-1.7725,-1.8524,-1.9487,-2.0413,-2.076,-2.1019,-2.1683,-2.1871,-2.2031,-2.2285,-2.2298,-2.2311,-2.2311,-2.2365,-2.2352,-2.2231,-2.2178,-2.2405,-2.2485,-2.2458,-2.2258,-2.2191,-2.2098,-2.1911,-2.1764,-2.167,-2.1496,-2.1363,-2.1443,-2.1523,-2.1403,-2.1376,-2.1416,-2.1349,-2.1376,-2.1336,-2.1483,-2.143,-2.1256,-2.1309,-2.1349,-2.1349,-2.1376,-2.1523,-2.155,-2.1456,-2.1523,-2.1683,-2.167,-2.1617,-2.1724,-2.1777,-2.167,-2.1643,-2.179,-2.1871,-2.1911,-2.1911,-2.1897,-2.1857,-2.1817,-2.183,-2.1857,-2.1871,-2.1911,-2.1857,-2.179,-2.1683,-2.1617,-0.9288,-0.9625,-0.9761,-0.9822,-0.9822,-0.9822,-1.0065,-1.0308,-0.9943,-1.0186,-1.0436,-1.0065,-0.9822,-0.9836,-0.989,-0.9964,-1.0046,-1.058,-1.1232,-1.2098,-1.2767,-1.35,-1.4119,-1.4408,-1.4399,-1.4408,-1.4128,-1.3604,-1.3875,-1.3744,-1.321,-1.2947,-1.335,-1.335,-1.3613,-1.3892,-1.4481,-1.4781,-1.5035,-1.4997,-1.5016,-1.4922,-1.5092,-1.5262,-1.5893,-1.6367,-1.688,-1.7781,-1.8559,-1.9499,-2.0005,-2.0666,-2.1346,-2.1648,-2.2004,-2.2205,-2.2205,-2.2191,-2.2205,-2.2352,-2.2285,-2.2231,-2.2231,-2.2512,-2.2525,-2.2445,-2.2378,-2.2311,-2.2205,-2.2084,-2.1951,-2.1804,-2.1483,-2.1189,-2.1403,-2.163,-2.1577,-2.151,-2.143,-2.1349,-2.1256,-2.1162,-2.1136,-2.1109,-2.1176,-2.1349,-2.147,-2.1537,-2.151,-2.1537,-2.1537,-2.147,-2.155,-2.167,-2.1657,-2.1724,-2.1844,-2.1937,-2.1884,-2.1911,-2.2071,-2.2164,-2.2191,-2.2178,-2.2164,-2.2111,-2.2044,-2.2124,-2.2151,-2.2164,-2.2231,-2.2298,-2.2205,-2.2004,-2.1951,-0.9612,-0.9765,-0.9768,-0.9822,-0.9822,-0.9822,-0.9822,-0.9822,-0.9822,-0.9822,-0.9822,-0.9822,-0.9822,-0.9842,-0.9951,-1.0039,-1.0161,-1.0445,-1.0963,-1.1553,-1.1942,-1.2684,-1.3473,-1.3621,-1.3761,-1.3481,-1.307,-1.2808,-1.2684,-1.2684,-1.2692,-1.2684,-1.2684,-1.2692,-1.2824,-1.3079,-1.3673,-1.4289,-1.4412,-1.4536,-1.4911,-1.4995,-1.5203,-1.5325,-1.5644,-1.5929,-1.6594,-1.7124,-1.7642,-1.8645,-1.9567,-2.0256,-2.1301,-2.1726,-2.2151,-2.2164,-2.2258,-2.2205,-2.2231,-2.2325,-2.2352,-2.2418,-2.2619,-2.2592,-2.2445,-2.2498,-2.2485,-2.2405,-2.2285,-2.2058,-2.1897,-2.1777,-2.1523,-2.1283,-2.1296,-2.139,-2.1349,-2.1323,-2.1323,-2.1243,-2.1189,-2.1122,-2.1256,-2.1283,-2.1403,-2.151,-2.1617,-2.171,-2.175,-2.1724,-2.1683,-2.1617,-2.1683,-2.1817,-2.1964,-2.2031,-2.2071,-2.2098,-2.2111,-2.2205,-2.2405,-2.2458,-2.2458,-2.2458,-2.2445,-2.2338,-2.2285,-2.2378,-2.2458,-2.2472,-2.2579,-2.2766,-2.2659,-2.2365,-2.2311,-0.9673,-0.9774,-0.9808,-0.9822,-0.9822,-0.9822,-0.9822,-0.9822,-0.9822,-0.9822,-0.9822,-0.9822,-0.9829,-0.9863,-1.0005,-1.0114,-1.0263,-1.0419,-1.1076,-1.141,-1.1769,-1.2041,-1.2955,-1.3095,-1.3227,-1.2947,-1.2413,-1.2018,-1.2033,-1.1901,-1.1776,-1.138,-1.1644,-1.2033,-1.2041,-1.2305,-1.2905,-1.3411,-1.3612,-1.3746,-1.3814,-1.4323,-1.4692,-1.4728,-1.4937,-1.5344,-1.574,-1.574,-1.6685,-1.7658,-1.8519,-2.0071,-2.2225,-2.2496,-2.2645,-2.2645,-2.2579,-2.2472,-2.2392,-2.2392,-2.2378,-2.2218,-2.2245,-2.2205,-2.2258,-2.2498,-2.2579,-2.2472,-2.2325,-2.2071,-2.1884,-2.1764,-2.1617,-2.1403,-2.1229,-2.1203,-2.1162,-2.1203,-2.1229,-2.1203,-2.1149,-2.1243,-2.1403,-2.151,-2.1617,-2.1737,-2.1844,-2.1937,-2.2058,-2.2071,-2.2071,-2.2004,-2.1924,-2.2031,-2.2218,-2.2338,-2.2365,-2.2472,-2.2539,-2.2632,-2.2726,-2.2699,-2.2659,-2.2726,-2.2726,-2.2592,-2.2552,-2.2686,-2.2752,-2.2726,-2.2739,-2.2846,-2.2859,-2.2645,-2.2659,-0.9747,-0.9815,-0.9822,-0.9822,-0.9822,-0.9822,-0.9822,-0.9822,-0.9822,-0.9822,-0.9822,-0.9822,-0.9856,-0.9937,-1.0086,-1.0229,-1.0378,-1.0527,-1.0754,-1.1226,-1.1512,-1.1776,-1.2173,-1.2437,-1.2305,-1.2165,-1.1762,-1.1365,-1.138,-1.1247,-1.1122,-1.0857,-1.1247,-1.1387,-1.1394,-1.1836,-1.2052,-1.2015,-1.255,-1.2764,-1.278,-1.3425,-1.4363,-1.438,-1.4501,-1.4751,-1.4862,-1.4862,-1.5266,-1.6823,-1.8215,-2.0412,-2.2232,-2.2806,-2.2832,-2.2832,-2.2806,-2.2792,-2.2659,-2.2565,-2.2512,-2.2378,-2.2352,-2.2512,-2.2539,-2.2726,-2.2619,-2.2525,-2.2432,-2.2205,-2.2178,-2.2084,-2.1924,-2.1737,-2.1657,-2.1617,-2.1603,-2.1617,-2.1643,-2.163,-2.1603,-2.163,-2.1737,-2.175,-2.1884,-2.2084,-2.2178,-2.2285,-2.2365,-2.2378,-2.2392,-2.2378,-2.2285,-2.2338,-2.2552,-2.2632,-2.2659,-2.2779,-2.2859,-2.2832,-2.2792,-2.2832,-2.2859,-2.2846,-2.2846,-2.2819,-2.2832,-2.2859,-2.2859,-2.2806,-2.2819,-2.2859,-2.2859,-2.2859,-2.2832,-0.9815,-0.9822,-0.9822,-0.9822,-0.9822,-0.9822,-0.9822,-0.9822,-0.9842,-0.9856,-0.9869,-0.989,-1.0088,-1.0191,-1.0369,-1.0371,-1.0493,-1.0616,-1.0697,-1.0717,-1.085,-1.1115,-1.1247,-1.1247,-1.138,-1.138,-1.1115,-1.0982,-1.085,-1.085,-1.085,-1.0717,-1.0724,-1.0731,-1.0785,-1.0867,-1.1097,-1.1495,-1.1767,-1.1924,-1.2381,-1.2826,-1.3742,-1.4048,-1.404,-1.3949,-1.4081,-1.4221,-1.4221,-1.5793,-1.7833,-2.013,-2.1859,-2.2585,-2.2859,-2.2859,-2.2859,-2.2846,-2.2819,-2.2792,-2.2806,-2.2819,-2.2859,-2.2859,-2.2832,-2.2779,-2.2672,-2.2605,-2.2512,-2.2392,-2.2365,-2.2285,-2.2124,-2.2031,-2.1991,-2.1964,-2.1964,-2.1964,-2.1964,-2.1964,-2.1964,-2.1964,-2.2031,-2.2044,-2.2178,-2.2378,-2.2525,-2.2659,-2.2726,-2.2672,-2.2645,-2.2659,-2.2619,-2.2726,-2.2832,-2.2819,-2.2792,-2.2819,-2.2859,-2.2859,-2.2859,-2.2859,-2.2859,-2.2859,-2.2859,-2.2886,-2.2873,-2.2859,-2.2859,-2.2913,-2.2859,-2.2859,-2.2859,-2.2859,-2.2859,-0.9822,-0.9822,-0.9822,-0.9822,-0.9822,-0.9822,-0.9822,-0.9842,-0.9958,-0.9881,-0.9908,-1.0127,-1.0294,-1.0322,-1.0472,-1.0487,-1.0534,-1.0663,-1.0704,-1.0717,-1.0717,-1.085,-1.085,-1.085,-1.0857,-1.0857,-1.085,-1.0717,-1.0717,-1.0717,-1.0724,-1.0738,-1.0731,-1.0785,-1.0907,-1.0989,-1.1084,-1.1358,-1.1475,-1.1592,-1.1973,-1.2415,-1.2858,-1.3009,-1.3009,-1.3421,-1.3705,-1.3278,-1.3563,-1.484,-1.6947,-1.9077,-2.0756,-2.2022,-2.2585,-2.2722,-2.2722,-2.2859,-2.2859,-2.2859,-2.2859,-2.2859,-2.2859,-2.2859,-2.2859,-2.2846,-2.2779,-2.2739,-2.2605,-2.2378,-2.2298,-2.2231,-2.2098,-2.2098,-2.2084,-2.2071,-2.2071,-2.2084,-2.2084,-2.2084,-2.2084,-2.2178,-2.2338,-2.2365,-2.2445,-2.2619,-2.2712,-2.2819,-2.2819,-2.2846,-2.2873,-2.2913,-2.2926,-2.2859,-2.2859,-2.2846,-2.2846,-2.2859,-2.2926,-2.3033,-2.3033,-2.2873,-2.2873,-2.3046,-2.2993,-2.2966,-2.2939,-2.306,-2.2993,-2.3033,-2.2913,-2.2859,-2.2886,-2.2966,-2.306]}]]